     2.10           OBSERVATION DATA    G (GPS)             RINEX VERSION / TYPE
teqc 2005May6 SOPAC 20050822 21:28:56UTC                    PGM / RUN BY / DATE
Linux 2.4.20-8|Pentium IV|gcc|Linux|486/DX+                 COMMENT
BIT 2 OF LLI FLAGS DATA COLLECTED UNDER A/S CONDITION       COMMENT
E 1436                                                      MARKER NAME
1436                                                        MARKER NUMBER
Jason Long                                                  OBSERVER / AGENCY
0220247382 TRIMBLE 5700 2.01                                REC # / TYPE / VERS
12237024 TRM41249.00 NONE                                   ANT # / TYPE
 -2734204.0000 -4085766.0000  4049771.0000                  APPROX POSITION XYZ
        2.0000        0.0000        0.0000                  ANTENNA: DELTA H/E/N
     1     1                                                WAVELENGTH FACT L1/2
     6    L1    L2    C1    P2    P1    D1                  # / TYPES OF OBSERV
    15.0000                                                 INTERVAL
Northern California Height Modernization 2004               COMMENT
                                                            COMMENT
SOPAC - Scripps Orbit and Permanent Array Center            COMMENT
IGPP - Institute of Geophysics and Planetary Physics        COMMENT
SIO - Scripps Institution of Oceanography                   COMMENT
UCSD - University of California, San Diego                  COMMENT
                                                            COMMENT
email: archive@gpsmail.ucsd.edu                             COMMENT
ftp://garner.ucsd.edu                                       COMMENT
http://sopac.ucsd.edu                                       COMMENT
                                                            COMMENT
                                                            COMMENT
Approximate Lat, Lon : 39.669, -123.791                     COMMENT
                                                            COMMENT
SNR is mapped to RINEX snr flag value [0-9]                 COMMENT
L1 & L2: 2-19 dBHz = 1, 20-27 dBHz = 2, 28-31 dBHz = 3      COMMENT
32-35 dBHz = 4, 36-38 dBHz = 5, 39-41 dBHz = 6              COMMENT
42-44 dBHz = 7, 45-48 dBHz = 8, >= 49 dBHz = 9              COMMENT
  2004     9    14    14    42    0.0000000     GPS         TIME OF FIRST OBS
                                                            END OF HEADER
 04  9 14 14 42  0.0000000  0  7G 1G11G14G15G19G22G25
    -93251.89858    -64525.05954  22186346.3134   22186343.3364

    -67565.37558    -47856.23854  21956533.2894   21956528.9224

    144637.30559     88784.14556  20971215.4924   20971211.1684

    238956.88358    150143.23853  23055174.5864   23055172.7584

    176809.93457    110868.32053  23204086.0634   23204080.2274

    164147.51658    103258.46154  22790943.1094   22790937.6954

   -102080.67658    -70471.96554  22120293.4924   22120290.3364

 04  9 14 14 42 15.0000000  0  7G 1G11G14G15G19G22G25
   -119023.39548    -84606.73844  22181441.9534   22181439.1844
      1718.1004
    -86226.68448    -62397.52744  21952982.4774   21952977.6884
      1244.0874
    184916.79749    120170.75046  20978880.2584   20978875.9384
     -2685.2994
    305650.68848    202112.38343  23067865.8524   23067863.7074
     -4446.2544
    226570.01247    149642.38343  23213554.6724   23213549.0474
     -3317.3394
    209745.92648    138789.65244  22799620.3364   22799615.0904
     -3039.8944
   -130386.39148    -92528.36344  22114906.7664   22114904.0004
      1887.0484
 04  9 14 14 42 30.0000000  0  7G 1G11G14G15G19G22G25
   -144654.16048   -104578.76644  22176564.9224   22176562.0124
      1708.7184
   -104720.45748    -76808.26645  21949463.1564   21949458.7384
      1232.9184
    225339.75449    151669.14546  20986572.3674   20986568.2034
     -2694.8644
    372463.91048    254174.57043  23080579.6334   23080578.6484
     -4454.2154
    276464.00047    188520.77043  23223049.1884   23223044.3554
     -3326.2664
    255443.79748    174398.35244  22808316.3524   22808310.9224
     -3046.5254
   -158545.96548   -114470.88344  22109548.3284   22109545.5784
      1877.3054
 04  9 14 14 42 45.0000000  0  7G 1G11G14G15G19G22G25
   -170132.90648   -124432.34044  22171715.9144   22171713.4734
      1698.5834
   -123035.29749    -91079.59045  21945977.7814   21945973.2344
      1220.9894
    265917.03949    183287.78946  20994294.3524   20994289.8134
     -2705.1524
    439407.45348    306338.31342  23093319.0704   23093317.4144
     -4462.9034
    326502.63747    227511.87143  23232571.4924   23232566.4224
     -3335.9094
    301252.32048    210093.26244  22817034.1644   22817028.8524
     -3053.9024
   -186547.84848   -136290.53544  22104219.6334   22104217.0044
      1866.7924
 04  9 14 14 43  0.0000000  0  7G 1G11G14G15G19G22G25
   -195453.88748   -144162.97744  22166898.0314   22166895.1054
      1688.0654
   -141165.35249   -105206.90644  21942527.9064   21942522.8984
      1208.6704
    306654.07849    215030.92246  21002046.1254   21002041.8794
     -2715.8034
    506486.72748    358607.81642  23106084.2034   23106082.1524
     -4471.9524
    376691.17247    266619.78943  23242122.0084   23242117.0664
     -3345.9024
    347177.10548    245878.78544  22825772.5704   22825767.7584
     -3061.6524
   -214386.17249   -157982.74644  22098922.1174   22098919.4734
      1855.8884
 04  9 14 14 43 15.0000000  0  7G 1G11G14G15G19G22G25
   -220618.20748   -163771.54344  22162109.6724   22162106.4654
      1677.6214
   -159111.66849   -119191.06645  21939112.6484   21939107.9924
      1196.4214
    347549.44149    246897.42646  21009828.4694   21009823.8674
     -2726.3584
    573700.14848    410981.87943  23118874.4534   23118872.5274
     -4480.8954
    427028.08247    305843.32843  23251700.7274   23251694.9964
     -3355.7944
    393216.93848    281753.95344  22834533.1254   22834528.5234
     -3069.3224
   -242061.84448   -179548.21144  22093655.6174   22093652.7854
      1845.0454
 04  9 14 14 43 30.0000000  0  7G 1G11G14G15G19G22G25
   -245626.82048   -183258.78144  22157350.6334   22157347.6294
      1667.2414
   -176874.87548   -133032.53545  21935732.6024   21935728.1174
      1184.2144
    388601.72349    278886.19546  21017640.2114   21017636.1884
     -2736.8194
    641046.47748    463459.48442  23131690.3204   23131687.8874
     -4489.7554
    477511.86747    345181.32443  23261307.4454   23261302.3554
     -3365.5864
    439370.84048    317717.99644  22843316.5864   22843311.3364
     -3076.9274
   -269575.63749   -200987.53944  22088420.0864   22088417.2154
      1834.2534
 04  9 14 14 43 45.0000000  0  7G 1G11G14G15G19G22G25
   -270483.60548   -202627.71144  22152620.2974   22152617.3404
      1657.1194
   -194458.76649   -146734.28145  21932386.2424   21932381.7854
      1172.2594
    429806.83649    310994.05946  21025481.6024   21025477.1174
     -2747.0084
    708521.47348    516037.34443  23144530.3674   23144528.4344
     -4498.3334
    528138.36747    384630.52043  23270941.7504   23270936.5274
     -3375.1004
    485634.73048    353767.72744  22852120.1724   22852114.9924
     -3084.2594
   -296931.10249   -222303.48844  22083214.4224   22083211.2034
      1823.6984
 04  9 14 14 44  0.0000000  0  7G 1G11G14G15G19G22G25
   -295193.33648   -221882.04744  22147918.6334   22147915.3444
      1647.3154
   -211867.89849   -160299.84445  21929073.5554   21929069.0004
      1160.6094
    471159.66849    343217.03946  21033350.4304   21033346.3204
     -2756.8554
    776119.95348    568711.41043  23157393.6564   23157392.2274
     -4506.5654
    578902.19547    424186.71943  23280601.7194   23280596.7154
     -3384.2554
    532003.80548    389899.44144  22860944.2194   22860939.2774
     -3091.2724
   -324132.67249   -243499.52344  22078038.3364   22078035.4734
      1813.4384
 04  9 14 14 44 15.0000000  0  7G 1G11G14G15G19G22G25
   -319760.67248   -241025.42644  22143243.3054   22143240.3054
      1637.8224
   -229106.84049   -173732.79745  21925792.8834   21925788.6804
      1149.2634
    512655.11749    375551.14146  21041247.0634   21041242.9344
     -2766.3634
    843836.96548    621477.86743  23170280.2814   23170278.3054
     -4514.4674
    629798.24647    463845.94943  23290286.7584   23290281.9024
     -3393.0704
    578473.15248    426109.29743  22869786.8134   22869781.2344
     -3097.9574
   -351184.90249   -264579.16844  22072890.2664   22072887.2274
      1803.4824
 04  9 14 14 44 30.0000000  0  7G 1G11G14G15G19G22G25
   -344190.13748   -260061.38744  22138594.6174   22138591.5554
      1628.6314
   -246179.89149   -187036.48045  21922544.2814   21922540.2034
      1138.2034
    554288.32049    407992.58646  21049169.4774   21049165.2464
     -2775.5474
    911667.64548    674332.89843  23183187.5634   23183185.8524
     -4522.0454
    680821.55547    503604.32843  23299996.6954   23299991.4614
     -3401.5544
    625038.28548    462393.78144  22878647.6484   22878643.1094
     -3104.3424
   -378092.00049   -285545.74244  22067770.0704   22067766.9454
      1793.8074
 04  9 14 14 44 45.0000000  0  7G 1G11G14G15G19G22G25
   -368482.91048   -278990.82044  22133972.0234   22133968.8834
      1619.5184
   -263088.12949   -200211.75445  21919326.7274   21919322.3554
      1127.2164
    596057.77749    440540.19946  21057118.2034   21057113.8244
     -2784.6304
    979610.42648    727275.28943  23196116.3754   23196114.6914
     -4529.5194
    731970.47347    543460.59843  23309729.9614   23309724.9144
     -3409.9284
    671697.89148    498751.87144  22887527.2504   22887521.9104
     -3110.6404
   -404855.06248   -306400.08244  22062677.0864   22062674.1604
      1784.2044
 04  9 14 14 45  0.0000000  0  7G 1G11G14G15G19G22G25
   -392644.29348   -297817.86744  22129373.7664   22129371.1294
      1610.7594
   -279836.57049   -213262.49645  21916139.7664   21916135.3954
      1116.5634
    637957.91449    473189.64846  21065091.2424   21065087.4384
     -2793.3424
   1047659.61348    780300.55942  23209066.0004   23209064.1764
     -4536.6124
    783239.19547    583410.21543  23319485.9144   23319480.7664
     -3417.9154
    718446.62948    535179.43844  22896422.8134   22896417.5124
     -3116.5834
   -431479.09049   -327146.08244  22057610.8524   22057607.9304
      1774.9354
 04  9 14 14 45 15.0000000  0  7G 1G11G14G15G19G22G25
   -416677.40248   -316544.97344  22124800.7734   22124797.7034
      1602.2074
   -296428.25449   -226191.09045  21912982.3284   21912978.2704
      1106.1124
    679985.25449    505938.20346  21073088.8204   21073084.9494
     -2801.8234
   1115811.75848    833406.07843  23222034.5164   23222033.4024
     -4543.4764
    834624.12147    623450.39543  23329264.0704   23329258.9614
     -3425.6624
    765281.26248    571673.92244  22905335.4224   22905330.5354
     -3122.3094
   -457967.10248   -347786.09044  22052570.0474   22052566.9024
      1765.8674
 04  9 14 14 45 30.0000000  0  7G 1G11G14G15G19G22G25
   -440584.77748   -335174.09844  22120251.3754   22120248.0864
      1593.8254
   -312865.57849   -238999.40645  21909854.5234   21909850.0474
      1095.8224
    722136.85949    538783.59846  21081109.7734   21081105.7464
     -2810.1074
   1184063.93048    886589.52343  23235022.9774   23235021.3484
     -4550.1454
    886122.29347    663578.82043  23339063.7344   23339058.5474
     -3433.2114
    812199.11748    608233.25843  22914263.3524   22914258.1724
     -3127.8574
   -484321.26649   -368321.80144  22047555.1024   22047552.3284
      1756.9444
 04  9 14 14 45 45.0000000  0  7G 1G11G14G15G19G22G25
   -464368.74249   -353707.05144  22115725.1954   22115721.9844
      1585.5984
   -329150.66049   -251689.09445  21906755.4144   21906751.1524
      1085.6724
    764410.07049    571723.75446  21089154.0864   21089150.3674
     -2818.2144
   1252413.45348    939848.83642  23248029.3054   23248028.0274
     -4556.6354
    937730.86347    703793.26243  23348885.0474   23348879.5164
     -3440.5714
    859197.77348    644855.56344  22923206.7424   22923202.5314
     -3133.2444
   -510543.65249   -388754.81644  22042565.5474   22042562.2304
      1748.1594
 04  9 14 14 46  0.0000000  0  7G 1G11G14G15G19G22G25
   -488032.03149   -372145.98044  22111222.1644   22111219.0864
      1577.5534
   -345286.07849   -264262.16045  21903685.1174   21903680.4064
      1075.6954
    806801.75449    604756.21946  21097221.3674   21097217.1954
     -2826.1124
   1320857.27047    993181.63342  23261053.5704   23261051.6954
     -4562.9214
    989446.53947    744091.17643  23358725.9454   23358720.6334
     -3447.7124
    906274.40248    681538.60544  22932164.8674   22932160.6374
     -3138.4424
   -536636.84049   -409087.17644  22037599.7814   22037596.9534
      1739.5464
 04  9 14 14 46 15.0000000  0  7G 1G11G14G15G19G22G25
   -511576.89848   -390492.64144  22106741.7424   22106738.6994
      1569.6584
   -361274.09449   -276720.35945  21900642.6954   21900638.2814
      1065.8684
    849309.35949    637879.01246  21105310.0554   21105306.0394
     -2833.8404
   1389392.70348   1046585.82442  23274095.9384   23274093.5234
     -4569.0294
   1041266.69147    784470.48843  23368587.2194   23368581.7974
     -3454.6774
    953426.65248    718280.57444  22941138.4694   22941133.4024
     -3143.4834
   -562603.02049   -429320.55944  22032658.8444   22032655.6054
      1731.0794
 04  9 14 14 46 30.0000000  0  7G 1G11G14G15G19G22G25
   -535007.04748   -408749.89144  22102283.3284   22102280.3244
      1562.0104
   -377118.19149   -289066.41845  21897627.3674   21897623.1844
      1056.2734
    891928.83649    671088.97746  21113420.5784   21113416.0234
     -2841.2984
   1458015.66848   1100058.21542  23287154.3054   23287152.7624
     -4574.8644
   1093187.05548    824927.89543  23378467.3134   23378461.8874
     -3461.3584
   1000650.61748    755078.44944  22950124.5084   22950119.0394
     -3148.2644
   -588445.48849   -449457.54744  22027741.0634   22027738.1334
      1722.8314
 04  9 14 14 46 45.0000000  0  7G 1G11G14G15G19G22G25
   -558323.80148   -426918.79344  22097846.2814   22097843.3284
      1554.4504
   -392819.55549   -301301.25445  21894639.7584   21894635.3874
      1046.7584
    934658.43449    704384.75846  21121551.7584   21121547.5744
     -2848.6404
   1526724.50847   1153597.50043  23300228.8134   23300227.6174
     -4580.5894
   1145205.91447    865462.04343  23388365.9534   23388360.7544
     -3467.9244
   1047944.80948    791931.02044  22959124.3674   22959119.3794
     -3152.9464
   -614165.48048   -469499.10244  22022846.5944   22022843.5744
      1714.6664
 04  9 14 14 47  0.0000000  0  7G 1G11G14G15G19G22G25
   -581528.05149   -445000.03544  22093430.2734   22093427.5744
      1546.9504
   -408378.89149   -313425.42645  21891678.8364   21891674.7934
      1037.2894
    977496.94949    737765.40646  21129703.2504   21129699.6804
     -2855.9014
   1595517.94548   1207202.72343  23313320.3364   23313319.3874
     -4586.2294
   1197321.89147    906071.87143  23398283.3134   23398278.3484
     -3474.3984
   1095308.51648    828837.77344  22968137.7584   22968132.1604
     -3157.5804
   -639763.60549   -489445.68744  22017975.7664   22017972.8364
      1706.5424
 04  9 14 14 47 15.0000000  0  7G 1G11G14G15G19G22G25
   -604622.88349   -462996.00444  22089035.7814   22089032.9384
      1539.6554
   -423799.02049   -325441.12145  21888744.3054   21888740.3284
      1028.0094
   1020441.08249    771228.35546  21137875.6954   21137871.5204
     -2862.9424
   1664392.67247   1260871.28942  23326426.1484   23326425.2154
     -4591.6484
   1249531.46947    946754.62543  23408218.5004   23408213.3094
     -3480.6394
   1142738.44148    865796.12144  22977163.2584   22977157.7344
     -3161.9954
   -665242.68048   -509299.51244  22013126.6724   22013123.7194
      1698.6054
 04  9 14 14 47 30.0000000  0  7G 1G11G14G15G19G22G25
   -627610.61749   -480908.52044  22084661.3054   22084658.5354
      1532.5164
   -439082.02749   -337349.96945  21885836.2974   21885832.1884
      1018.8674
   1063488.09449    804771.46546  21146067.1094   21146062.8134
     -2869.8014
   1733345.82447   1314600.95742  23339547.8524   23339546.7274
     -4596.8774
   1301831.80147    987508.10243  23418170.7034   23418166.2304
     -3486.6894
   1190232.11348    902804.15644  22986201.2894   22986196.9574
     -3166.2454
   -690604.80548   -529062.20744  22008300.7584   22008297.9184
      1690.8084
 04  9 14 14 47 45.0000000  0  7G 1G11G14G15G19G22G25
   -650491.82849   -498738.03944  22080307.2584   22080304.3324
      1525.4144
   -454228.33249   -349152.29345  21882953.9774   21882949.3524
      1009.7544
   1106637.16849    838394.10946  21154278.2344   21154273.8874
     -2876.6054
   1802376.60947   1368391.09842  23352684.3834   23352683.2704
     -4602.0524
   1354221.86747   1028331.50043  23428140.6094   23428135.2304
     -3492.6714
   1237788.84048    939861.31343  22995251.1254   22995245.2154
     -3170.4484
   -715850.36349   -548734.07045  22003496.8054   22003494.1884
      1683.0374
 04  9 14 14 48  0.0000000  0  7G 1G11G14G15G19G22G25
   -673269.02749   -516486.51644  22075972.9924   22075969.5204
      1518.4804
   -469240.61349   -360850.18745  21880097.4304   21880093.0044
      1000.8194
   1149885.30949    872093.94946  21162507.8364   21162504.2894
     -2883.2094
   1871482.04747   1422239.47342  23365834.7114   23365832.4574
     -4607.0294
   1406698.75047   1069222.55543  23438126.3054   23438121.2274
     -3498.4594
   1285406.08648    976965.63344  23004311.8204   23004307.7154
     -3174.4834
   -740981.62549   -568316.86744  21998714.2974   21998711.9064
      1675.4174
 04  9 14 14 48 15.0000000  0  7G 1G11G14G15G19G22G25
   -695943.24249   -534154.72744  22071657.9924   22071654.9384
      1511.6144
   -484119.58249   -372444.19945  21877265.5554   21877261.2464
       991.9314
   1193231.21549    905869.96146  21170756.2734   21170752.5824
     -2889.7274
   1940660.82447   1476144.95743  23378999.0234   23378997.4804
     -4611.9184
   1459260.87547   1110180.01243  23448128.7664   23448123.2624
     -3504.1424
   1333082.77048   1014116.26644  23013384.7814   23013378.8984
     -3178.4464
   -765999.33649   -587811.18744  21993953.4384   21993950.8874
      1667.8474
 04  9 14 14 48 30.0000000  0  7G 1G11G14G15G19G22G25
   -718517.39848   -551744.98444  22067362.4064   22067359.3244
      1504.9444
   -498867.96949   -383936.44545  21874459.2274   21874455.1724
       983.2264
   1236671.58649    939719.59046  21179022.7344   21179018.7304
     -2896.0254
   2009909.64147   1530105.01643  23392176.1414   23392175.4454
     -4616.5884
   1511904.78547   1151201.21943  23458146.5864   23458141.6374
     -3509.5944
   1380815.87948   1051310.85944  23022467.4844   23022463.7194
     -3182.2074
   -790906.24649   -607219.16444  21989213.6174   21989211.1214
      1660.4614
 04  9 14 14 48 45.0000000  0  7G 1G11G14G15G19G22G25
   -740990.94948   -569256.83644  22063085.5474   22063082.7734
      1498.2374
   -513485.00449   -395326.35245  21871677.6564   21871673.6134
       974.4694
   1280206.66449    973643.01246  21187307.3594   21187303.1914
     -2902.3394
   2079228.75847   1584119.83243  23405367.5634   23405366.5744
     -4621.2744
   1564630.64547   1192286.27743  23468179.9534   23468175.0124
     -3515.0574
   1428605.84449   1088549.75044  23031562.2034   23031556.4654
     -3185.9984
   -815701.59849   -626540.22744  21984495.6334   21984492.3794
      1653.0234
 04  9 14 14 49  0.0000000  0  7G 1G11G14G15G19G22G25
   -763363.80948   -586690.23444  22058828.1024   22058825.1484
      1491.5244
   -527970.42649   -406613.70345  21868921.4454   21868917.0474
       965.6954
   1323836.22749   1007640.06346  21195609.6414   21195605.8914
     -2908.6374
   2148617.88347   1638189.23042  23418571.7504   23418570.9494
     -4625.9424
   1617438.05547   1233434.89843  23478228.8834   23478224.0394
     -3520.4944
   1476452.54748   1125832.85944  23040666.9844   23040662.5704
     -3189.7804
   -840385.12549   -645774.13744  21979798.5704   21979795.6134
      1645.5684
 04  9 14 14 49 15.0000000  0  7G 1G11G14G15G19G22G25
   -785638.10948   -604046.82844  22054589.7274   22054586.9884
      1484.9534
   -542326.42249   -417800.20345  21866189.6414   21866185.4574
       957.0664
   1367557.79349   1041708.80546  21203929.7664   21203925.7304
     -2914.7714
   2218074.41047   1692311.12142  23431789.3834   23431787.9654
     -4630.4354
   1670324.42247   1274645.00843  23488292.7504   23488288.1414
     -3525.7584
   1524353.74648   1163158.43844  23049782.4304   23049777.5904
     -3193.4134
   -864958.83249   -664922.47344  21975122.4534   21975119.4844
      1638.2474
 04  9 14 14 49 30.0000000  0  7G 1G11G14G15G19G22G25
   -807813.72349   -621326.52744  22050369.5554   22050366.9494
      1478.3744
   -556552.55549   -428885.51245  21863482.5004   21863477.9804
       948.4094
   1411371.15249   1075849.06346  21212267.2114   21212263.0864
     -2920.8914
   2287598.23047   1746485.49642  23445019.2424   23445017.4884
     -4634.9214
   1723289.40247   1315916.40243  23498371.7344   23498366.8984
     -3530.9994
   1572309.60548   1200526.59444  23058908.0784   23058903.2934
     -3197.0574
   -889422.27348   -683984.89145  21970467.1564   21970464.3484
      1630.8964
 04  9 14 14 49 45.0000000  0  7G 1G11G14G15G19G22G25
   -829891.65648   -638530.10944  22046168.1254   22046165.6844
      1471.8624
   -570649.85949   -439870.44145  21860799.7814   21860795.2424
       939.8204
   1455274.88349   1110059.75046  21220621.7114   21220617.5164
     -2926.9154
   2357187.91447   1800711.17642  23458261.6414   23458259.8554
     -4639.3124
   1776331.57047   1357247.92243  23508465.5944   23508460.6684
     -3536.1454
   1620318.94148   1237936.43044  23068044.2664   23068039.3984
     -3200.6224
   -913776.24249   -702962.00445  21965832.9534   21965829.6524
      1623.5984
 04  9 14 14 50  0.0000000  0  7G 1G11G14G15G19G22G25
   -851873.57849   -655658.87944  22041985.3204   22041982.1994
      1465.4614
   -584619.63749   -450755.98845  21858141.3444   21858137.2034
       931.3184
   1499267.18049   1144339.44545  21228993.4534   21228989.1764
     -2932.8204
   2426841.42647   1854986.58242  23471515.8444   23471514.8874
     -4643.5674
   1829448.78947   1398637.93843  23518573.5314   23518568.3444
     -3541.1484
   1668379.95348   1275386.55943  23077189.8204   23077184.7384
     -3204.0674
   -938022.15249   -721854.91845  21961218.9774   21961215.9184
      1616.3944
 04  9 14 14 50 15.0000000  0  7G 1G11G14G15G19G22G25
   -873760.78549   -672713.84444  22037820.5554   22037817.6804
      1459.1474
   -598463.06249   -461543.09045  21855507.2814   21855502.9144
       922.8954
   1543346.23849   1178686.75446  21237380.9844   21237377.1884
     -2938.6044
   2496557.14147   1909310.43842  23484782.8594   23484781.9414
     -4647.7144
   1882639.11747   1440084.92643  23528694.8914   23528689.8674
     -3546.0224
   1716491.40248   1312875.94943  23086345.4064   23086340.1684
     -3207.4304
   -962161.12549   -740664.50045  21956625.6954   21956622.4964
      1609.2654
 04  9 14 14 50 30.0000000  0  7G 1G11G14G15G19G22G25
   -895552.73448   -689694.58244  22033673.4144   22033670.1914
      1452.7974
   -612179.50849   -472231.23845  21852897.0474   21852892.9454
       914.4304
   1587512.33249   1213101.87946  21245785.8204   21245781.7934
     -2944.4064
   2566335.22347   1963682.91842  23498061.3674   23498059.5204
     -4651.8724
   1935902.68447   1481588.97343  23538830.5634   23538826.1334
     -3550.9044
   1764653.68448   1350404.98843  23095509.7114   23095505.3244
     -3210.8194
   -986192.29749   -759390.09045  21952052.4614   21952049.1954
      1602.0784
 04  9 14 14 50 45.0000000  0  7G 1G11G14G15G19G22G25
   -917250.75449   -706602.13344  22029544.6334   22029541.7504
      1446.5354
   -625770.09849   -482821.31645  21850310.7664   21850306.7854
       906.0394
   1631763.77349   1247583.50845  21254206.3984   21254202.2934
     -2950.0964
   2636174.02347   2018102.73042  23511351.3754   23511349.5514
     -4655.9204
   1989237.81647   1523148.79343  23548980.0944   23548975.3674
     -3555.6764
   1812865.44148   1387972.55543  23104684.2504   23104679.4384
     -3214.1174
  -1010116.76649   -778032.52745  21947499.7504   21947496.6484
      1594.9654
 04  9 14 14 51  0.0000000  0  7G 1G11G14G15G19G22G25
   -938856.44949   -723437.73845  22025433.2504   22025430.2584
      1440.3804
   -639236.18049   -493314.37545  21847748.2734   21847743.9414
       897.7394
   1676098.64149   1282130.14546  21262643.2814   21262639.0784
     -2955.6584
   2706071.49247   2072568.23442  23524651.8054   23524650.7034
     -4659.8314
   2042642.38747   1564762.71143  23559142.2894   23559137.8754
     -3560.3054
   1861124.73048   1425577.14844  23113868.0164   23113863.3754
     -3217.2864
  -1033936.00049   -796592.97345  21942967.1564   21942963.6884
      1587.9494
 04  9 14 14 51 15.0000000  0  7G 1G11G14G15G19G22G25
   -960368.00849   -740199.99644  22021339.7114   22021336.6564
      1434.1044
   -652575.79349   -503708.89145  21845209.7664   21845205.4064
       889.3084
   1720518.38349   1316742.91046  21271095.8444   21271092.0984
     -2961.3164
   2776029.18847   2127080.66042  23537965.0784   23537963.0634
     -4663.8464
   2096117.79747   1606431.82443  23569318.9614   23569314.1054
     -3565.0274
   1909433.52048   1463220.34043  23123060.9774   23123056.0084
     -3220.5864
  -1057648.03549   -815069.87545  21938454.7974   21938451.9104
      1580.8024
 04  9 14 14 51 30.0000000  0  7G 1G11G14G15G19G22G25
   -981787.01648   -756890.12944  22017263.6024   22017261.0084
      1427.9344
   -665790.57049   -514006.11745  21842695.0474   21842690.6414
       880.9854
   1765021.08249   1351420.33246  21279564.5394   21279560.5824
     -2966.8474
   2846045.09047   2181638.46942  23551288.2034   23551287.6134
     -4667.7274
   2149661.93847   1648154.49643  23579507.9224   23579502.8404
     -3569.6094
   1957790.03148   1500900.68843  23132262.2814   23132257.8984
     -3223.7674
  -1081254.14148   -833464.23445  21933962.4924   21933959.7464
      1573.7404
 04  9 14 14 51 45.0000000  0  7G 1G11G14G15G19G22G25
  -1003113.48449   -773508.15244  22013205.6414   22013202.5434
      1421.7654
   -678880.20749   -524205.85245  21840204.2894   21840200.1414
       872.6424
   1809606.38349   1386162.10546  21288048.8834   21288044.9924
     -2972.3534
   2916118.91847   2236241.38742  23564623.5474   23564622.4064
     -4671.5894
   2203274.34447   1689930.36743  23589709.9614   23589705.4454
     -3574.1604
   2006194.23448   1538618.22343  23141473.9694   23141468.8984
     -3226.9474
  -1104754.10249   -851775.89145  21929490.7734   21929487.9654
      1566.6644
 04  9 14 14 52  0.0000000  0  7G 1G11G14G15G19G22G25
  -1024350.01648   -790056.10244  22009164.4454   22009161.4774
      1415.7694
   -691847.12549   -534309.95345  21837736.7274   21837732.2424
       864.4614
   1854271.50449   1420966.08645  21296548.3204   21296544.4884
     -2977.6754
   2986247.71947   2290887.15242  23577968.2734   23577967.3014
     -4675.2534
   2256952.03947   1731757.11343  23599925.0704   23599919.8014
     -3578.5134
   2054643.43848   1576370.80943  23150693.4304   23150688.6254
     -3229.9474
  -1128150.34449   -870006.72745  21925038.4534   21925035.5704
      1559.7494
 04  9 14 14 52 15.0000000  0  7G 1G11G14G15G19G22G25
  -1045497.29749   -806534.49644  22005140.0554   22005136.8484
      1409.8194
   -704691.94549   -544318.91445  21835292.6564   21835288.1804
       856.3214
   1899015.39149   1455831.43446  21305062.9694   21305059.2704
     -2982.9264
   3056430.44147   2345574.93042  23591323.0704   23591321.9884
     -4678.8484
   2310693.74247   1773633.72743  23610151.5864   23610146.3404
     -3582.7804
   2103136.86748   1614157.86743  23159921.6094   23159916.4264
     -3232.8954
  -1151443.33649   -888157.10945  21920606.0554   21920603.2074
      1552.8664
 04  9 14 14 52 30.0000000  0  7G 1G11G14G15G19G22G25
  -1066554.98048   -822943.08244  22001132.8364   22001129.8284
      1403.8464
   -717414.06649   -554232.25845  21832871.6954   21832866.9104
       848.1414
   1943838.02349   1490758.14545  21313592.0554   21313588.2624
     -2988.1764
   3126667.07447   2400304.73842  23604689.2584   23604687.5904
     -4682.4424
   2364499.44547   1815560.22743  23620390.4144   23620385.2894
     -3587.0474
   2151674.84448   1651979.62143  23169158.6804   23169153.2384
     -3235.8654
  -1174632.39849   -906226.50045  21916193.4304   21916190.8444
      1545.9384
 04  9 14 14 52 45.0000000  0  7G 1G11G14G15G19G22G25
  -1087523.15649   -839281.91844  21997142.7814   21997139.7194
      1397.8784
   -730013.60549   -564050.09045  21830474.2344   21830469.5474
       839.9694
   1988738.94149   1525745.86345  21322136.8524   21322132.9774
     -2993.3954
   3196957.14547   2455076.19542  23618065.0084   23618063.4654
     -4686.0054
   2418368.64847   1857536.20343  23630641.5704   23630636.3484
     -3591.2804
   2200257.10248   1689835.90243  23178402.8984   23178398.1094
     -3238.8174
  -1197717.51249   -924214.89845  21911800.0164   21911797.5904
      1539.0084
 04  9 14 14 53  0.0000000  0  7G 1G11G14G15G19G22G25
  -1108401.57849   -855550.82445  21993169.7424   21993166.7974
      1391.8954
   -742489.95349   -573771.93745  21828099.8444   21828095.2774
       831.7574
   2033718.12549   1560794.56346  21330695.7194   21330692.0394
     -2998.6124
   3267300.58647   2509889.19942  23631451.0234   23631450.0784
     -4689.5634
   2472300.86747   1899561.28143  23640904.5394   23640899.6414
     -3595.4814
   2248883.84848   1727726.83243  23187656.5394   23187651.8634
     -3241.7834
  -1220698.12148   -942121.86345  21907427.2034   21907424.6254
      1532.0414
 04  9 14 14 53 15.0000000  0  7G 1G11G14G15G19G22G25
  -1129191.44549   -871750.72745  21989213.7274   21989210.9144
      1385.9914
   -754844.30949   -583398.71545  21825748.8524   21825744.7734
       823.6244
   2078774.05149   1595903.05946  21339269.6254   21339265.7464
     -3003.7284
   3337695.84847   2564742.58642  23644846.2894   23644845.7894
     -4693.0174
   2526294.69547   1941634.36743  23651179.1414   23651174.0084
     -3599.5894
   2297553.78148   1765651.42643  23196918.2664   23196912.9804
     -3244.6624
  -1243575.19949   -959948.15245  21903073.7894   21903071.3554
      1525.1394
 04  9 14 14 53 30.0000000  0  7G 1G11G14G15G19G22G25
  -1149893.88348   -887882.49644  21985274.1334   21985271.1254
      1380.1624
   -767077.53949   -592931.11745  21823420.7734   21823416.6254
       815.5494
   2123905.18849   1631070.16446  21347857.8914   21347854.3244
     -3008.7424
   3408141.37947   2619635.15642  23658252.5164   23658251.1604
     -4696.3694
   2580348.52347   1983754.19543  23661464.7664   23661460.1994
     -3603.5894
   2346265.64548   1803608.69143  23206187.1254   23206182.8754
     -3247.4584
  -1266349.76649   -977694.55545  21898740.0634   21898737.3674
      1518.3044
 04  9 14 14 53 45.0000000  0  7G 1G11G14G15G19G22G25
  -1170508.27048   -903945.65244  21981351.3594   21981348.4734
      1374.2924
   -779188.88349   -602368.53945  21821116.2734   21821111.7854
       807.4234
   2169112.02049   1666296.23846  21356460.8754   21356456.5634
     -3013.7894
   3478637.55947   2674567.18842  23671666.9774   23671666.0124
     -4699.7454
   2634462.44147   2025920.85543  23671762.5784   23671758.0474
     -3607.5954
   2395020.09448   1841599.12943  23215465.0314   23215460.3404
     -3250.2974
  -1289020.96149   -995360.41845  21894426.1804   21894422.7974
      1511.4134
 04  9 14 14 54  0.0000000  0  7G 1G11G14G15G19G22G25
  -1191034.98849   -919940.50045  21977445.4304   21977442.5274
      1368.4484
   -791178.54349   -611711.14545  21818834.7424   21818830.2734
       799.3114
   2214393.63749   1701580.60946  21365077.5784   21365073.2234
     -3018.7744
   3549183.58647   2729538.06642  23685091.9304   23685089.9734
     -4703.0684
   2688635.69947   2068133.74643  23682071.2424   23682066.1994
     -3611.5514
   2443816.57048   1879622.30943  23224750.5004   23224747.1094
     -3253.0984
  -1311588.96549  -1012945.87545  21890131.4614   21890128.4884
      1504.5344
 04  9 14 14 54 15.0000000  0  7G 1G11G14G15G19G22G25
  -1211474.71949   -935867.56644  21973555.7734   21973552.8284
      1362.6494
   -803047.14149   -620959.41045  21816576.2584   21816571.7074
       791.2404
   2259749.06649   1736922.48046  21373708.2664   21373704.4144
     -3023.6954
   3619778.45347   2784547.02042  23698525.4454   23698524.0904
     -4706.3244
   2742867.02347   2110391.89843  23692391.7274   23692386.4884
     -3615.4224
   2492654.34448   1917677.67243  23234044.9534   23234039.5124
     -3255.8524
  -1334054.20349  -1030451.25045  21885856.1094   21885853.1724
      1497.6834
 04  9 14 14 54 30.0000000  0  7G 1G11G14G15G19G22G25
  -1231826.24649   -951725.89845  21969682.9304   21969679.8674
      1356.7684
   -814793.23849   -630112.22345  21814341.2584   21814336.4534
       783.0734
   2305179.25849   1772322.61745  21382353.6884   21382349.6724
     -3028.6794
   3690423.03947   2839594.68042  23711968.9064   23711967.2344
     -4709.6394
   2797157.18847   2152695.87943  23702722.2114   23702717.7974
     -3619.3444
   2541534.57848   1955766.14143  23243345.9144   23243341.9344
     -3258.6824
  -1356415.25449  -1047875.44145  21881601.3364   21881598.4534
      1490.7374
 04  9 14 14 54 45.0000000  0  7G 1G11G14G15G19G22G25
  -1252091.05949   -967516.66445  21965826.8674   21965824.1254
      1350.9884
   -826418.10249   -639170.56645  21812128.5944   21812124.1454
       774.9914
   2350682.44549   1807779.62946  21391012.3284   21391008.3204
     -3033.5464
   3761115.51647   2894679.68442  23725420.7114   23725419.9574
     -4712.8324
   2851504.40247   2195044.33243  23713064.6724   23713059.3404
     -3623.1484
   2590455.63748   1993886.38743  23252655.8674   23252650.9224
     -3261.4044
  -1378673.23049  -1065219.31245  21877365.7504   21877362.9774
      1483.8654
 04  9 14 14 55  0.0000000  0  7G 1G11G14G15G19G22G25
  -1272267.79748   -983238.78945  21961987.1564   21961984.4454
      1345.1164
   -837920.29349   -648133.32045  21809940.0234   21809935.4414
       766.8134
   2396259.69549   1843294.35545  21399685.4534   21399681.1174
     -3038.4834
   3831856.82846   2949802.71942  23738882.3204   23738881.6684
     -4716.0874
   2905909.52347   2237437.90643  23723416.9924   23723412.4104
     -3627.0084
   2639418.86348   2032039.52743  23261973.0554   23261968.3524
     -3264.2154
  -1400826.68049  -1082481.74245  21873150.2424   21873147.4344
      1476.8974
 04  9 14 14 55 15.0000000  0  7G 1G11G14G15G19G22G25
  -1292357.49649   -998893.10245  21958163.9614   21958161.2624
      1339.3134
   -849300.81649   -657001.27045  21807774.8134   21807769.8484
       758.7024
   2441909.68049   1878865.75045  21408372.2034   21408368.2544
     -3043.3324
   3902645.62146   3004962.77342  23752353.3054   23752352.2034
     -4719.2534
   2960370.93447   2279875.32443  23733781.5314   23733776.1884
     -3630.7614
   2688422.97748   2070224.51243  23271298.1804   23271294.0744
     -3266.9414
  -1422876.40649  -1099663.33245  21868953.6724   21868951.1174
      1469.9824
 04  9 14 14 55 30.0000000  0  7G 1G11G14G15G19G22G25
  -1312359.80949  -1014479.32445  21954357.8364   21954355.1524
      1333.4884
   -860558.97349   -665773.87545  21805632.2424   21805627.5824
       750.5444
   2487632.40649   1914493.83645  21417073.1884   21417069.4184
     -3048.1824
   3973481.95747   3060159.85942  23765832.7664   23765832.5744
     -4722.4224
   3014888.57047   2322356.57043  23744155.6724   23744150.2154
     -3634.5094
   2737468.50848   2108441.75843  23280631.6094   23280626.2664
     -3269.7024
  -1444821.80949  -1116763.65245  21864778.0784   21864774.9264
      1463.0274
 04  9 14 14 55 45.0000000  0  7G 1G11G14G15G19G22G25
  -1332275.82049  -1029998.29745  21950568.0474   21950564.9734
      1327.7344
   -871695.77349   -674451.90245  21803513.2194   21803508.6884
       742.4534
   2533426.44549   1950177.48446  21425787.3984   21425783.6054
     -3052.9364
   4044364.38747   3115392.87542  23779321.6254   23779320.9264
     -4725.4954
   3069460.90647   2364880.44943  23754540.0784   23754534.9884
     -3638.1564
   2786554.16448   2146690.29343  23289972.1094   23289967.2074
     -3272.3774
  -1466663.83649  -1133783.40645  21860621.8444   21860618.9454
      1456.1354
 04  9 14 14 56  0.0000000  0  7G 1G11G14G15G19G22G25
  -1352105.93049  -1045450.33245  21946794.4064   21946791.3594
      1322.0074
   -882711.40249   -683035.52745  21801416.8204   21801412.2734
       734.3754
   2579291.09449   1985916.15646  21434515.1024   21434511.1094
     -3057.6434
   4115292.07447   3170661.12542  23792818.2814   23792817.5634
     -4728.5124
   3124087.07047   2407446.25843  23764935.4224   23764930.0084
     -3641.7444
   2835679.43848   2184969.69943  23299319.9384   23299315.2624
     -3275.0184
  -1488402.73449  -1150722.80545  21856484.9304   21856482.0124
      1449.2604
 04  9 14 14 56 15.0000000  0  7G 1G11G14G15G19G22G25
  -1371850.09848  -1060835.40644  21943036.8524   21943034.3794
      1316.2784
   -893605.76649   -691524.65245  21799343.7114   21799338.8284
       726.2914
   2625225.94149   2021709.52745  21443255.8134   21443252.2584
     -3062.3234
   4186264.76246   3225964.47342  23806324.4064   23806323.2424
     -4731.5124
   3178766.63747   2450053.68443  23775340.7034   23775335.5394
     -3645.3044
   2884844.22748   2223279.88743  23308675.8524   23308670.6954
     -3277.6534
  -1510038.09449  -1167581.52345  21852367.9304   21852364.6724
      1442.3574
 04  9 14 14 56 30.0000000  0  7G 1G11G14G15G19G22G25
  -1391509.00448  -1076154.02345  21939296.4064   21939293.5554
      1310.5944
   -904379.38749   -699919.69545  21797293.7344   21797288.9454
       718.2414
   2671230.11749   2057556.92245  21452010.3444   21452006.7774
     -3066.9454
   4257281.50447   3281302.14542  23819838.8834   23819837.7424
     -4734.4494
   3233498.42247   2492701.79343  23785755.7274   23785750.9804
     -3648.7864
   2934047.94148   2261620.40643  23318039.5084   23318034.2074
     -3280.2484
  -1531570.33249  -1184359.88745  21848270.5164   21848267.5164
      1435.4834
 04  9 14 14 56 45.0000000  0  7G 1G11G14G15G19G22G25
  -1411083.72748  -1091407.05944  21935571.5164   21935568.5634
      1304.9824
   -915033.20349   -708221.38345  21795266.0634   21795261.9734
       710.2544
   2717302.16049   2093457.19146  21460777.8524   21460773.7584
     -3071.4704
   4328340.79746   3336672.98042  23833360.2894   23833359.9774
     -4737.2864
   3288281.03147   2535389.50843  23796180.5704   23796175.8244
     -3652.1744
   2983289.35548   2299990.30143  23327409.7734   23327404.7504
     -3282.7614
  -1553000.35249  -1201058.59845  21844192.4454   21844189.5394
      1428.6684
 04  9 14 14 57  0.0000000  0  7G 1G11G14G15G19G22G25
  -1430573.40249  -1106593.82445  21931862.3754   21931859.4804
      1299.3124
   -925566.16849   -716428.89845  21793262.0394   21793257.5004
       702.1984
   2763442.74649   2129410.88345  21469558.3524   21469554.3954
     -3076.0394
   4399443.21946   3392077.37142  23846891.4614   23846890.2074
     -4740.1614
   3343114.81647   2578117.10943  23806614.7424   23806610.1294
     -3655.5864
   3032569.34448   2338390.25443  23336787.5004   23336782.0664
     -3285.3334
  -1574327.16449  -1217676.88345  21840133.7894   21840130.8634
      1421.7874
 04  9 14 14 57 15.0000000  0  7G 1G11G14G15G19G22G25
  -1449977.94549  -1121714.25444  21928170.0004   21928167.2154
      1293.6364
   -935977.85249   -724541.90645  21791280.3284   21791276.3164
       694.1124
   2809651.63349   2165417.78546  21478351.2734   21478347.4384
     -3080.5924
   4470588.41846   3447515.10942  23860429.4694   23860429.3444
     -4743.0134
   3397999.52047   2620884.36343  23817058.9614   23817054.6484
     -3658.9804
   3081887.90248   2376820.25043  23346172.9534   23346167.9534
     -3287.9044
  -1595550.35249  -1234214.42245  21836095.2424   21836092.1374
      1414.8794
 04  9 14 14 57 30.0000000  0  7G 1G11G14G15G19G22G25
  -1469298.25849  -1136769.05145  21924493.5164   21924490.6454
      1288.0214
   -946269.07449   -732561.05145  21789322.0634   21789317.5044
       686.0824
   2855927.58249   2201476.95746  21487157.5554   21487153.6644
     -3085.0634
   4541775.18446   3502985.24642  23873976.1954   23873975.9144
     -4745.7844
   3452933.69547   2663690.18443  23827512.5234   23827508.3094
     -3662.2784
   3131243.97348   2415279.49243  23355563.8984   23355559.7234
     -3290.4054
  -1616670.53549  -1250671.70745  21832076.4384   21832073.2464
      1408.0124
 04  9 14 14 57 45.0000000  0  7G 1G11G14G15G19G22G25
  -1488533.01249  -1151757.17645  21920833.2274   21920830.3364
      1282.3174
   -956438.47349   -740485.26645  21787386.9454   21787382.5434
       677.9604
   2902271.55549   2237589.12945  21495976.4924   21495972.6254
     -3089.5984
   4613004.56646   3558488.62142  23887530.4304   23887529.5004
     -4748.6264
   3507918.13346   2706535.17243  23837975.9384   23837971.3794
     -3665.6294
   3180638.89848   2453768.98843  23364964.4224   23364959.3404
     -3292.9954
  -1637686.27749  -1267047.61345  21828077.4384   21828074.5084
      1401.0494
 04  9 14 14 58  0.0010000  0  7G 1G11G14G15G19G22G25
  -1507684.98048  -1166680.78545  21917188.5524   21917186.3494
      1276.7984
   -966488.02349   -748316.10245  21785474.4114   21785469.8604
       669.9704
   2948684.84049   2273755.30145  21504808.5604   21504804.8214
     -3094.2194
   4684279.45347   3614027.43842  23901093.9974   23901092.9584
     -4751.6594
   3562954.66847   2749420.75043  23848449.3414   23848444.2744
     -3669.1024
   3230074.25448   2492290.01643  23374370.9814   23374367.3884
     -3295.6904
  -1658600.32449  -1283344.26245  21824097.1304   21824094.3104
      1394.2704
 04  9 14 14 58 15.0010000  0  7G 1G11G14G15G19G22G25
  -1526750.50449  -1181537.03145  21913560.4194   21913557.8724
      1271.0354
   -976415.20349   -756051.57045  21783585.5604   21783580.9194
       661.8124
   2995162.18849   2309971.40645  21513652.9504   21513648.7044
     -3098.4904
   4755590.96547   3669594.78542  23914664.1304   23914663.4624
     -4754.1014
   3618036.54346   2792341.66043  23858931.3024   23858926.2434
     -3672.1254
   3279544.43448   2530838.18443  23383785.0364   23383780.0634
     -3298.0124
  -1679408.64149  -1299558.53545  21820137.4114   21820134.8684
      1387.2214
 04  9 14 14 58 30.0010000  0  7G 1G11G14G15G19G22G25
  -1545732.50048  -1196328.20745  21909948.6464   21909945.6734
      1265.4664
   -986222.12149   -763693.34445  21781719.3724   21781714.7904
       653.7954
   3041704.59049   2346238.19545  21522509.9034   21522505.3564
     -3102.8274
   4826942.04347   3725192.98042  23928242.5914   23928241.5524
     -4756.7394
   3673165.46946   2835299.23043  23869421.8174   23869416.5524
     -3675.2624
   3329051.25848   2569414.87543  23393206.0054   23393201.5364
     -3300.4554
  -1700113.82049  -1315692.43445  21816197.4194   21816194.6384
      1380.3454
 04  9 14 14 58 45.0010000  0  7G 1G11G14G15G19G22G25
  -1564629.98449  -1211053.52045  21906352.4584   21906349.6854
      1259.8324
   -995907.64549   -771240.52345  21779876.2784   21779871.5834
       645.7024
   3088312.74249   2382556.22345  21531378.9744   21531374.9974
     -3107.2104
   4898333.27047   3780822.44942  23941826.9974   23941826.5244
     -4759.4154
   3728341.91447   2878293.82443  23879921.7784   23879916.4384
     -3678.4304
   3378595.54348   2608020.77043  23402634.2944   23402629.9544
     -3302.9524
  -1720714.75049  -1331745.10545  21812277.1534   21812274.2904
      1373.3954
 04  9 14 14 59  0.0010000  0  7G 1G11G14G15G19G22G25
  -1583441.87149  -1225712.13345  21902772.5284   21902769.9974
      1254.1264
  -1005470.47749   -778692.08645  21778056.6384   21778052.0324
       637.5224
   3134987.49649   2418926.14545  21540260.6614   21540257.2944
     -3111.6504
   4969765.44146   3836483.82842  23955420.1924   23955419.3884
     -4762.1454
   3783566.42246   2921325.87943  23890430.2314   23890425.7084
     -3681.6344
   3428178.29348   2646656.64543  23412069.1774   23412064.4274
     -3305.5174
  -1741210.03549  -1347715.44945  21808377.0754   21808374.1494
      1366.3524
 04  9 14 14 59 15.0010000  0  7G 1G11G14G15G19G22G25
  -1602168.16849  -1240304.04745  21899209.2554   21899206.4034
      1248.4204
  -1014910.41449   -786047.89145  21776260.2864   21776255.7434
       629.3294
   3181728.58249   2455347.74246  21549155.2004   21549151.5444
     -3116.0724
   5041238.23047   3892176.82842  23969021.3964   23969020.2904
     -4764.8534
   3838838.64546   2964395.09842  23900948.6614   23900943.4274
     -3684.8154
   3477799.46948   2685322.44143  23421511.9664   23421507.8374
     -3308.0784
  -1761599.54349  -1363603.37145  21804497.2004   21804494.5834
      1359.3014
 04  9 14 14 59 30.0010000  0  8G 1G11G14G15G19G22G25G20
  -1620809.53949  -1254829.80145  21895662.0364   21895659.3254
      1242.7584
  -1024228.06249   -793308.41045  21774486.9744   21774482.6924
       621.1774
   3228534.93449   2491820.21945  21558062.4584   21558058.6494
     -3120.4234
   5112750.53147   3947900.66042  23982630.2394   23982628.8724
     -4767.4874
   3894157.50047   3007500.66443  23911475.2784   23911470.5174
     -3687.9244
   3527458.35248   2724017.64843  23430961.7474   23430956.9624
     -3310.5924
  -1781883.75449  -1379409.24245  21800637.3644   21800634.4744
      1352.2814
    -87531.44556    -65759.14152  24331972.4114   24331969.1344

 04  9 14 14 59 45.0010000  0  8G 1G11G14G15G19G22G25G20
  -1639367.91849  -1269290.87145  21892130.1384   21892127.4664
      1237.2254
  -1033425.24249   -800475.05945  21772736.9354   21772732.6694
       613.1454
   3275404.26649   2528341.76245  21566981.1924   21566977.3564
     -3124.6224
   5184300.16447   4003653.56342  23996244.9974   23996243.7394
     -4769.9764
   3949520.52346   3050640.64143  23922010.2394   23922005.6574
     -3690.8684
   3577152.93048   2762740.63343  23440418.6464   23440414.2904
     -3312.9724
  -1802064.27349  -1395134.31645  21796796.9424   21796794.1264
      1345.3684
   -116958.51247    -88689.33242  24326373.3494   24326369.5794
      1961.8044
 04  9 14 15  0  0.0010000  0  8G 1G11G14G15G19G22G25G20
  -1657844.46949  -1283688.18445  21888614.2944   21888610.9624
      1231.7704
  -1042502.84849   -807548.52745  21771009.8174   21771005.4464
       605.1744
   3322335.28149   2564911.36345  21575912.0754   21575908.2594
     -3128.7344
   5255885.57447   4059434.32442  24009866.8334   24009866.5094
     -4772.3614
   4004926.16847   3093813.82843  23932553.7314   23932549.0014
     -3693.7104
   3626881.90248   2801490.43443  23449881.6224   23449877.4464
     -3315.2654
  -1822142.19949  -1410779.45345  21792976.6614   21792973.6264
      1338.5284
   -146382.14146   -111616.84442  24320774.1304   24320770.2044
      1961.5754
 04  9 14 15  0 15.0010000  0  8G 1G11G14G15G19G22G25G20
  -1676237.09049  -1298020.10545  21885114.2634   21885111.4664
      1226.1754
  -1051458.73049   -814527.15245  21769305.1854   21769301.1104
       597.0594
   3369329.66449   2601530.35245  21584854.6854   21584851.3254
     -3132.9594
   5327508.59447   4115244.38342  24023496.8644   24023495.3924
     -4774.8684
   4060376.03946   3137021.47742  23943105.8254   23943101.0174
     -3696.6584
   3676647.30148   2840268.63344  23459351.5214   23459347.3994
     -3317.6934
  -1842115.02749  -1426342.68745  21789175.6924   21789172.7744
      1331.5224
   -175800.21947   -134540.01242  24315176.0054   24315171.6534
      1961.2054
 04  9 14 15  0 30.0010000  0  8G 1G11G14G15G19G22G25G20
  -1694546.32849  -1312287.04745  21881629.9894   21881627.4584
      1220.6164
  -1060293.29749   -821411.23845  21767623.8644   21767619.6614
       588.9714
   3416386.57849   2638198.05945  21593809.2714   21593805.5754
     -3137.1284
   5399168.22347   4171083.03942  24037133.0914   24037131.2634
     -4777.3094
   4115869.04347   3180262.74242  23953665.9194   23953660.9974
     -3699.5344
   3726448.59048   2879074.78943  23468828.6304   23468824.2944
     -3320.0864
  -1861983.29749  -1441824.46145  21785394.7714   21785391.5954
      1324.5514
   -205213.25047   -157459.24242  24309578.3564   24309575.1064
      1960.8694
 04  9 14 15  0 45.0010000  0  8G 1G11G14G15G19G22G25G20
  -1712772.64149  -1326489.36345  21878162.1064   21878159.0094
      1215.0884
  -1069006.83649   -828201.02045  21765966.1384   21765961.4464
       580.9034
   3463505.28549   2674913.91445  21602775.8334   21602771.5754
     -3141.2474
   5470863.68847   4226949.57042  24050776.2244   24050775.4354
     -4779.6984
   4171404.46947   3223537.07043  23964233.4274   23964228.7434
     -3702.3624
   3776285.27048   2917908.52343  23478312.1854   23478307.4274
     -3322.4454
  -1881747.12549  -1457224.83245  21781633.7714   21781630.6814
      1317.5894
   -234621.67647   -180374.87942  24303981.8884   24303979.1654
      1960.5624
 04  9 14 15  1  0.0010000  0  8G 1G11G14G15G19G22G25G20
  -1730916.28549  -1340627.27345  21874709.1304   21874706.2744
      1209.5764
  -1077599.42249   -834896.56245  21764330.9894   21764326.4784
       572.8394
   3510685.24649   2711677.51246  21611753.6534   21611749.9234
     -3145.3314
   5542594.47746   4282843.61342  24064426.9584   24064425.5834
     -4782.0534
   4226981.63346   3266843.93042  23974809.7004   23974804.8564
     -3705.1444
   3826156.94148   2956769.54743  23487802.4974   23487797.6654
     -3324.7784
  -1901406.68049  -1472543.96145  21777892.9354   21777889.6694
      1310.6374
   -264025.75447   -203287.15642  24298387.1464   24298383.1654
      1960.2724
 04  9 14 15  1 15.0010000  0  8G 1G11G14G15G19G22G25G20
  -1748977.69949  -1354701.10545  21871272.4034   21871269.5364
      1204.0944
  -1086071.42249   -841498.12545  21762718.9424   21762714.1344
       564.8004
   3557925.71549   2748488.24645  21620743.8644   21620739.9424
     -3149.3654
   5614359.67246   4338764.47342  24078082.7394   24078081.8414
     -4784.3464
   4282599.49247   3310182.48443  23985393.6464   23985389.0954
     -3707.8574
   3876063.08648   2995657.41043  23497299.2164   23497294.4274
     -3327.0764
  -1920962.05949  -1487781.91045  21774171.3804   21774168.5404
      1303.6924
   -293425.88347   -226196.35242  24292792.5364   24292788.7124
      1960.0094
 04  9 14 15  1 30.0010000  0  8G 1G11G14G15G19G22G25G20
  -1766956.66449  -1368710.68745  21867851.1064   21867848.3174
      1198.5984
  -1094422.28149   -848005.30145  21761129.9034   21761125.1854
       556.7244
   3605226.70749   2785346.15645  21629744.1774   21629740.9934
     -3153.3994
   5686159.27346   4394712.18442  24091746.5284   24091744.4384
     -4786.6404
   4338257.85947   3353552.61743  23995985.1614   23995980.2244
     -3710.5584
   3926003.91048   3034572.30143  23506802.7784   23506798.2164
     -3329.3884
  -1940412.84849  -1502938.35945  21770469.8564   21770466.8104
      1296.7194
   -322821.75047   -249102.23842  24287198.4354   24287194.1774
      1959.7244
 04  9 14 15  1 45.0010000  0  8G 1G11G14G15G19G22G25G20
  -1784853.35249  -1382656.16445  21864445.4814   21864442.5874
      1193.1134
  -1102652.22749   -854418.25845  21759563.4584   21759559.0174
       548.6634
   3652587.57849   2822250.70745  21638757.2394   21638752.9274
     -3157.3914
   5757992.70745   4450686.27042  24105415.1064   24105413.9354
     -4788.8964
   4393956.12947   3396953.83642  24006584.1854   24006579.5134
     -3713.2184
   3975979.07448   3073513.93843  23516312.4974   23516308.0054
     -3331.6784
  -1959759.03549  -1518013.30545  21766788.3414   21766785.4624
      1289.7464
   -352213.59847   -272004.96942  24281605.9114   24281601.0754
      1959.4574
 04  9 14 15  2  0.0010000  0  8G 1G11G14G15G19G22G25G20
  -1802666.71949  -1396536.71145  21861055.5674   21861052.7674
      1187.5584
  -1110760.00449   -860736.02345  21758020.7634   21758016.1344
       540.5184
   3700009.08249   2859202.51645  21647781.0134   21647777.0954
     -3161.4344
   5829860.77045   4506687.24641  24119090.7944   24119090.1614
     -4791.2044
   4449694.94947   3440386.64842  24017190.9424   24017186.2124
     -3715.9214
   4025989.60948   3112483.12543  23525829.7244   23525824.7124
     -3334.0364
  -1978999.32449  -1533005.72745  21763127.2554   21763123.9194
      1282.6864
   -381600.39547   -294903.78142  24276013.8024   24276009.7204
      1959.1204
 04  9 14 15  2 15.0010000  0  8G 1G11G14G15G19G22G25G20
  -1820395.90249  -1410351.66445  21857681.8804   21857679.2004
      1181.9464
  -1118744.62149   -866957.80945  21756501.4744   21756496.8214
       532.3084
   3747491.82449   2896202.04345  21656816.9504   21656813.1774
     -3165.5164
   5901763.93446   4562715.62542  24132774.7314   24132772.6924
     -4793.5444
   4505474.69947   3483851.35543  24027805.2314   24027800.9544
     -3718.6504
   4076036.29748   3151480.52043  23535353.0364   23535348.2124
     -3336.4464
  -1998132.78949  -1547914.91845  21759486.3334   21759483.1494
      1275.5644
   -410981.20747   -317797.91042  24270422.3254   24270418.7714
      1958.7214
 04  9 14 15  2 30.0010000  0  8G 1G11G14G15G19G22G25G20
  -1838042.82449  -1424102.50845  21854323.4194   21854320.9114
      1176.4614
  -1126607.82449   -873084.99245  21755004.8494   21755000.4974
       524.2144
   3795033.72749   2933247.66845  21665863.5444   21665860.3134
     -3169.4604
   5973699.85546   4618769.55141  24146463.3494   24146462.0054
     -4795.7284
   4561293.11347   3527346.18843  24038427.4034   24038422.6034
     -3721.2284
   4126117.16448   3190504.54343  23544882.9744   23544878.5484
     -3338.7244
  -2017160.95349  -1562742.05945  21755865.2004   21755862.3214
      1268.5444
   -440357.97747   -340688.91042  24264831.9114   24264828.1614
      1958.4514
 04  9 14 15  2 45.0010000  0  8G 1G11G14G15G19G22G25G20
  -1855606.44149  -1437788.44545  21850981.1774   21850978.5874
      1170.9084
  -1134348.49249   -879116.69145  21753531.8334   21753527.6144
       516.0454
   3842635.38349   2970339.84845  21674921.9814   21674917.9384
     -3173.4444
   6045669.29746   4674849.58642  24160158.7634   24160157.5364
     -4797.9634
   4617150.64147   3570871.50442  24049056.4424   24049051.8924
     -3723.8354
   4176233.26248   3229556.00843  23554419.4974   23554415.4314
     -3341.0734
  -2036082.62149  -1577486.20745  21752264.6304   21752261.7084
      1261.4454
   -469729.59447   -363575.89542  24259243.4814   24259239.1574
      1958.1084
 04  9 14 15  3  0.0010000  0  8G 1G11G14G15G19G22G25G20
  -1873085.99249  -1451408.87945  21847654.9894   21847652.3134
      1165.3034
  -1141965.52749   -885052.05545  21752082.5754   21752078.1614
       507.8024
   3890297.46549   3007479.11745  21683991.6694   21683987.7124
     -3177.4724
   6117672.80946   4730956.13742  24173860.0054   24173859.6734
     -4800.2344
   4673047.69146   3614427.63342  24059693.2394   24059688.7044
     -3726.4704
   4226385.33648   3268635.49243  23563963.7864   23563959.3564
     -3343.4724
  -2054896.81249  -1592146.60945  21748684.6064   21748681.2864
      1254.2794
   -499095.18447   -386458.16442  24253655.0674   24253650.3724
      1957.7064
 04  9 14 15  3 15.0010000  0  8G 1G11G14G15G19G22G25G20
  -1890483.22349  -1464965.16045  21844344.7474   21844341.9314
      1159.8154
  -1149460.51649   -890892.31245  21750656.1854   21750651.9744
       499.6664
   3938017.77349   3044663.75845  21693072.9744   21693068.6964
     -3181.3544
   6189708.26246   4787087.59842  24187568.4664   24187567.9744
     -4802.3644
   4728982.21546   3658012.93042  24070337.0134   24070332.5914
     -3728.9684
   4276571.46548   3307741.53143  23573513.4894   23573508.8964
     -3345.7424
  -2073605.00449  -1606724.42245  21745124.5524   21745121.3294
      1247.2134
   -528456.50047   -409337.12542  24248067.6854   24248063.3564
      1957.4214
 04  9 14 15  3 30.0010000  0  8G 1G11G14G15G19G22G25G20
  -1907797.44549  -1478456.76645  21841049.9424   21841047.0174
      1154.2824
  -1156832.69149   -896636.87945  21749253.6064   21749249.2514
       491.4784
   3985796.78149   3081894.13745  21702165.0524   21702161.6104
     -3185.2674
   6261775.97746   4843244.18042  24201282.8644   24201281.7984
     -4804.5144
   4784954.41046   3701627.57042  24080988.4114   24080984.0484
     -3731.4804
   4326792.43448   3346874.71143  23583070.4504   23583066.1654
     -3348.0654
  -2092206.30149  -1621218.92645  21741584.6854   21741581.7004
      1240.0864
   -557812.76647   -432212.14542  24242481.5054   24242476.9584
      1957.0844
 04  9 14 15  3 45.0010000  0  8G 1G11G14G15G19G22G25G20
  -1925026.64549  -1491882.10945  21837771.2554   21837768.5794
      1148.6134
  -1164079.93449   -902284.09045  21747874.4584   21747869.9504
       483.1494
   4033636.20749   3119171.59045  21711268.5604   21711264.7434
     -3189.2954
   6333877.69546   4899427.28942  24215002.7554   24215002.6304
     -4806.7814
   4840965.79346   3745272.75442  24091647.4354   24091643.0134
     -3734.0924
   4377050.01648   3386036.42243  23592633.6534   23592630.3884
     -3350.5054
  -2110698.50849  -1635628.43045  21738065.6464   21738063.0634
      1232.8144
   -587161.96147   -455081.64142  24236896.2084   24236891.7864
      1956.6134
 04  9 14 15  4  0.0010000  0  7G 1G11G14G19G22G25G20
  -1942171.97349  -1505242.10945  21834508.6224   21834505.7204
      1143.0224
  -1171203.16049   -907834.67245  21746518.5284   21746514.5174
       474.8824
   4081534.66449   3156495.05945  21720382.8964   21720379.3134
     -3193.2304
   4897014.82447   3788947.30543  24102313.6304   24102308.7084
     -3736.6024
   4427343.07448   3425225.77342  23602204.3644   23602200.0564
     -3352.8714
  -2129082.67649  -1649953.74246  21734567.3964   21734564.5484
      1225.6114
   -616505.27747   -477946.57442  24231312.5284   24231307.7004
      1956.2214
 04  9 14 15  4 15.0010000  0  7G 1G11G14G19G22G25G20
  -1959234.35549  -1518537.46545  21831261.4894   21831258.9854
      1137.4924
  -1178203.31249   -913289.34045  21745186.5524   21745182.1224
       466.6774
   4129490.83649   3193863.48845  21729509.0674   21729505.1424
     -3197.0784
   4953100.05947   3832650.04743  24112985.5134   24112981.2434
     -3739.0164
   4477670.71948   3464442.09842  23611781.3724   23611777.3884
     -3355.1764
  -2147359.46549  -1664195.39545  21731089.5674   21731086.8214
      1218.4534
   -645843.39547   -500807.44142  24225729.3644   24225724.7594
      1955.8744
 04  9 14 15  4 30.0010000  0  7G 1G11G14G19G22G25G20
  -1976213.29749  -1531767.80945  21828030.3724   21828027.9704
      1131.9294
  -1185079.68049   -918647.55945  21743878.0834   21743873.7044
       458.4244
   4177504.91049   3231277.05145  21738645.7634   21738641.9154
     -3200.9384
   5009221.62947   3876381.10943  24123665.2474   24123660.8764
     -3741.4384
   4528033.34448   3503685.65642  23621365.1694   23621361.1854
     -3357.5084
  -2165528.00049  -1678352.69546  21727632.0674   21727629.4544
      1211.2364
   -675175.93446   -523663.95342  24220147.4194   24220143.3024
      1955.5034
 04  9 14 15  4 45.0010000  0  7G 1G11G14G19G22G25G20
  -1993107.40249  -1544932.05145  21824815.7084   21824812.9584
      1126.2744
  -1191830.62549   -923908.05145  21742593.7004   21742589.0874
       450.0634
   4225578.09849   3268736.66045  21747793.6534   21747790.1814
     -3204.8794
   5065380.50846   3920141.23443  24134352.0674   24134347.4504
     -3743.9254
   4578432.27748   3542957.53143  23630955.9274   23630951.3564
     -3359.9294
  -2183586.68749  -1692424.40645  21724195.6614   21724192.6384
      1203.9134
   -704501.43747   -546515.01242  24214567.1464   24214562.8884
      1955.0344
 04  9 14 15  5  0.0010000  0  7G 1G11G14G19G22G25G20
  -2009917.21549  -1558030.60245  21821617.1384   21821614.1034
      1120.6544
  -1198456.59849   -929071.15645  21741332.7004   21741328.2594
       441.7324
   4273709.64549   3306241.74245  21756952.7004   21756949.0324
     -3208.7704
   5121575.79346   3963929.72343  24145045.5994   24145041.3994
     -3746.3524
   4628866.91848   3582257.19943  23640553.4894   23640549.1654
     -3362.3094
  -2201535.97349  -1706410.84445  21720780.3104   21720777.0324
      1196.6194
   -733820.33247   -569360.92242  24208988.4744   24208983.9744
      1954.5934
 04  9 14 15  5 15.0010000  0  7G 1G11G14G19G22G25G20
  -2026643.48849  -1571064.06245  21818434.3964   21818431.5564
      1115.0854
  -1204958.14549   -934137.30145  21740095.4894   21740091.2784
       433.4364
   4321898.55149   3343791.52745  21766122.4894   21766118.6384
     -3212.5944
   5177806.27046   4007745.64142  24155745.6774   24155741.7824
     -3748.6984
   4679336.45748   3621584.09443  23650157.7864   23650152.8684
     -3364.6364
  -2219376.32048  -1720312.40246  21717384.7944   21717381.9354
      1189.3574
   -763133.35247   -592202.21942  24203410.1854   24203405.7984
      1954.2014
 04  9 14 15  5 30.0010000  0  7G 1G11G14G19G22G25G20
  -2043285.90248  -1584032.18445  21815267.1384   21815264.0054
      1109.4944
  -1211334.90649   -939106.21945  21738881.9974   21738877.9314
       425.1174
   4370144.66449   3381385.89545  21775303.8334   21775299.7204
     -3216.4084
   5234071.72747   4051588.81642  24166453.1854   24166448.2824
     -3751.0304
   4729841.04348   3660938.29343  23659767.9664   23659763.8174
     -3366.9724
  -2237107.37549  -1734128.80545  21714011.2084   21714007.9624
      1182.0704
   -792440.30547   -615038.80542  24197832.7474   24197829.2434
      1953.7974
 04  9 14 15  5 45.0010000  0  7G 1G11G14G19G22G25G20
  -2059845.16049  -1596935.50445  21812116.1924   21812113.3024
      1103.9514
  -1217587.39149   -943978.28945  21737692.3724   21737687.8604
       416.8324
   4418447.06349   3419024.12145  21784495.7164   21784491.5134
     -3220.1604
   5290371.04747   4095458.38342  24177166.7394   24177162.1734
     -3753.2884
   4780380.05548   3700319.28143  23669385.4814   23669381.4854
     -3369.2674
  -2254729.50449  -1747860.32845  21710657.6614   21710654.4274
      1174.8094
   -821741.71147   -637871.07442  24192257.2784   24192253.4154
      1953.4274
 04  9 14 15  6  0.0010000  0  7G 1G11G14G19G22G25G20
  -2076322.41849  -1609774.92245  21808980.1304   21808977.7674
      1098.4844
  -1223716.55549   -948754.27045  21736525.9664   21736521.6924
       408.6114
   4466804.37949   3456705.12945  21793697.4894   21793693.7744
     -3223.8214
   5346702.58247   4139353.06342  24187886.4664   24187881.4234
     -3755.4364
   4830952.23448   3739726.12943  23679009.0134   23679005.1614
     -3371.4794
  -2272243.57849  -1761507.65245  21707324.5674   21707321.5834
      1167.6054
   -851038.68047   -660699.87942  24186682.1694   24186678.0244
      1953.1314
 04  9 14 15  6 15.0010000  0  7G 1G11G14G19G22G25G20
  -2092718.10549  -1622550.79745  21805860.2474   21805857.8254
      1093.0464
  -1229722.66849   -953434.36745  21735383.0524   21735378.8564
       400.4084
   4515215.79349   3494428.29345  21802909.7084   21802906.3174
     -3227.4284
   5403065.57047   4183272.23842  24198611.3414   24198606.8804
     -3757.5334
   4881557.05548   3779158.43843  23688638.8964   23688634.0214
     -3373.6554
  -2289649.99249  -1775071.09046  21704012.5364   21704009.6464
      1160.4284
   -880331.63347   -683525.55142  24181108.1614   24181103.9194
      1952.8644
 04  9 14 15  6 30.0010000  0  7G 1G11G14G19G22G25G20
  -2109032.23849  -1635263.10245  21802756.2244   21802753.2084
      1087.6094
  -1235605.85249   -958018.67245  21734263.2714   21734259.2824
       392.2124
   4563680.96549   3532193.34845  21812132.7394   21812128.6494
     -3231.0114
   5459459.58647   4227215.58242  24209343.6304   24209338.1734
     -3759.6014
   4932194.45747   3818616.10943  23698274.5604   23698270.8884
     -3375.8274
  -2306948.48449  -1788550.42646  21700720.4354   21700717.7284
      1153.2334
   -909620.54347   -706348.08242  24175534.8254   24175530.6034
      1952.5944
 04  9 14 15  6 45.0010000  0  7G 1G11G14G19G22G25G20
  -2125264.18749  -1647911.37145  21799667.2004   21799664.2744
      1082.1304
  -1241365.16049   -962506.45745  21733167.4424   21733163.4624
       383.9544
   4612200.41849   3570000.71545  21821365.4664   21821361.4194
     -3234.6304
   5515884.75047   4271183.22343  24220080.5994   24220075.7164
     -3761.6784
   4982865.12948   3858099.70343  23707917.7714   23707913.1574
     -3378.0454
  -2324138.15649  -1801944.97345  21697449.5604   21697446.7004
      1145.9784
   -938904.85247   -729167.03542  24169962.0214   24169957.7314
      1952.2874
 04  9 14 15  7  0.0010000  0  7G 1G11G14G19G22G25G20
  -2141413.89849  -1660495.57045  21796594.1694   21796591.4114
      1076.6474
  -1247000.46549   -966897.61345  21732095.3494   21732091.3104
       375.6874
   4660773.86349   3607850.13345  21830608.6224   21830604.7164
     -3238.2304
   5572340.78547   4315174.89143  24230823.9664   24230819.5324
     -3763.7364
   5033568.96948   3897609.18043  23717565.8724   23717561.3884
     -3380.2564
  -2341218.68049  -1815254.46545  21694199.3644   21694196.1064
      1138.7024
   -968184.32447   -751982.21942  24164390.1464   24164386.3684
      1951.9654
 04  9 14 15  7 15.0010000  0  7G 1G11G14G19G22G25G20
  -2157482.29349  -1673016.40245  21793536.4034   21793533.5244
      1071.2264
  -1252512.55549   -971192.75445  21731046.1384   21731042.2084
       367.4734
   4709400.03949   3645740.64145  21839861.8804   21839858.5444
     -3241.7454
   5628826.24647   4359189.50443  24241572.6534   24241568.0794
     -3765.6974
   5084305.04348   3937143.72343  23727221.6694   23727216.5524
     -3382.4054
  -2358191.01249  -1828479.65246  21690969.4744   21690966.5794
      1131.4894
   -997459.75847   -774794.23842  24158819.2004   24158815.3104
      1951.6964
 04  9 14 15  7 30.0010000  0  7G 1G11G14G19G22G25G20
  -2173470.07848  -1685474.41845  21790493.7474   21790490.9814
      1065.8524
  -1257901.82849   -975392.19545  21730020.8494   21730016.1574
       359.2854
   4758078.05949   3683671.54745  21849125.0994   21849121.4704
     -3245.2014
   5685340.09847   4403226.22743  24252326.9034   24252322.7124
     -3767.5904
   5135072.59048   3976702.83243  23736881.7784   23736877.1534
     -3384.5034
  -2375055.39149  -1841620.71945  21687760.3104   21687757.1614
      1124.2924
  -1026731.90647   -797603.70742  24153248.5674   24153244.9314
      1951.4774
 04  9 14 15  7 45.0010000  0  7G 1G11G14G19G22G25G20
  -2189376.77748  -1697869.24245  21787467.2394   21787464.2004
      1060.4474
  -1263167.68749   -979495.46945  21729018.7864   21729014.5444
       351.0574
   4806808.09049   3721643.00045  21858398.1854   21858393.9624
     -3248.6694
   5741882.33247   4447285.06343  24263086.0604   24263082.4814
     -3769.4824
   5185872.00048   4016286.75443  23746548.9354   23746543.5284
     -3386.6274
  -2391811.29348  -1854677.25445  21684571.9664   21684568.6654
      1117.0604
  -1056000.16047   -820410.13742  24147679.1534   24147675.2394
      1951.2174
 04  9 14 15  8  0.0010000  0  7G 1G11G14G19G22G25G20
  -2205203.11748  -1710201.46545  21784455.3884   21784452.6344
      1055.0894
  -1268310.80149   -983503.09845  21728039.9584   21728035.4584
       342.8744
   4855589.28549   3759654.30945  21867680.9894   21867676.4814
     -3252.0804
   5798451.93847   4491365.23443  24273851.4194   24273846.6464
     -3771.3074
   5236702.53948   4055894.93443  23756221.2784   23756216.9624
     -3388.7034
  -2408459.05148  -1867649.52045  21681403.6854   21681400.8604
      1109.8514
  -1085265.20347   -843214.05142  24142109.7944   24142106.4704
      1951.0034
 04  9 14 15  8 15.0010000  0  7G 1G11G14G19G22G25G20
  -2220947.47349  -1722469.78945  21781459.2244   21781456.5994
      1049.6244
  -1273329.46549   -987413.74645  21727084.7554   21727080.5634
       334.5784
   4904422.73449   3797706.33245  21876973.6694   21876969.9814
     -3255.5634
   5855049.97347   4535467.56343  24284621.5524   24284617.1424
     -3773.2024
   5287565.75048   4095528.57043  23765900.1304   23765895.5484
     -3390.8814
  -2424997.02049  -1880536.24245  21678256.7004   21678253.7984
      1102.5314
  -1114525.50047   -866014.28142  24136542.7244   24136538.8294
      1950.6864
 04  9 14 15  8 30.0010000  0  7G 1G11G14G19G22G25G20
  -2236611.66849  -1734675.65245  21778478.5674   21778475.7744
      1044.2804
  -1278225.28949   -991228.68445  21726153.4744   21726148.7284
       326.3884
   4953306.49649   3835797.56645  21886276.0524   21886272.0834
     -3258.9174
   5911674.27047   4579590.35542  24295396.9744   24295392.5674
     -3774.9534
   5338459.85248   4135186.29743  23775585.0754   23775580.6734
     -3392.9404
  -2441426.73449  -1893338.60945  21675129.9354   21675127.3334
      1095.3144
  -1143782.72747   -888812.12142  24130974.6614   24130971.2044
      1950.4824
 04  9 14 15  8 45.0010000  0  7G 1G11G14G19G22G25G20
  -2252195.77349  -1746819.11745  21775512.9274   21775510.1104
      1038.9404
  -1282998.24249   -994947.87145  21725245.1064   21725240.6304
       318.1974
   5002240.09049   3873927.62545  21895587.5444   21895583.7824
     -3262.2404
   5968324.23847   4623733.16043  24306177.2714   24306172.8334
     -3776.6654
   5389384.62548   4174867.89143  23785275.5134   23785271.9854
     -3394.9854
  -2457748.03149  -1906056.50446  21672024.2244   21672021.2784
      1088.0864
  -1173036.93747   -911607.60942  24125408.3174   24125404.5324
      1950.2814
 04  9 14 15  9  0.0010000  0  7G 1G11G14G19G22G25G20
  -2267699.64149  -1758900.05545  21772562.8334   21772559.8564
      1033.5914
  -1287647.99649   -998571.06245  21724360.2944   21724355.9234
       309.9844
   5051223.54749   3912096.53945  21904908.4894   21904904.3024
     -3265.5644
   6024999.59447   4667895.73843  24316962.3564   24316957.8214
     -3778.3574
   5440340.14847   4214573.46143  23794971.8804   23794968.2634
     -3397.0354
  -2473960.68049  -1918689.73445  21668939.3024   21668936.0714
      1080.8434
  -1202287.93747   -934400.59442  24119841.3334   24119838.4974
      1950.0674
 04  9 14 15  9 15.0010000  0  7G 1G11G14G19G22G25G20
  -2283124.59449  -1770919.50445  21769627.3024   21769624.6964
      1028.3304
  -1292175.73849  -1002099.18045  21723498.4354   21723494.2244
       301.8494
   5100255.09449   3950302.93045  21914239.4584   21914235.3644
     -3268.7704
   6081698.69547   4712076.82042  24327751.6854   24327746.7314
     -3779.9404
   5491325.07848   4254301.93043  23804674.0914   23804670.4114
     -3398.9954
  -2490065.78949  -1931239.17245  21665874.7394   21665871.6694
      1073.6744
  -1231536.98447   -957192.06242  24114275.5754   24114272.1184
      1949.9364
 04  9 14 15  9 30.0010000  0  7G 1G11G14G19G22G25G20
  -2298469.68048  -1782876.71145  21766707.4974   21766704.5054
      1023.0064
  -1296580.50849  -1005531.46945  21722660.6854   21722655.8964
       293.6514
   5149335.50449   3988547.40245  21923578.7634   21923575.1964
     -3272.0274
   6138422.06647   4756276.80542  24338545.9974   24338541.2354
     -3781.5584
   5542340.39148   4294054.08243  23814382.3334   23814378.3494
     -3401.0214
  -2506062.24249  -1943703.93045  21662830.3104   21662827.2594
      1066.4304
  -1260783.06647   -979981.22742  24108710.7244   24108706.9424
      1949.7394
 04  9 14 15  9 45.0010000  0  7G 1G11G14G19G22G25G20
  -2313736.52047  -1794772.95345  21763802.3884   21763799.4384
      1017.7894
  -1300863.63349  -1008868.98045  21721845.4194   21721840.7714
       285.5424
   5198463.00449   4026828.55945  21932927.6694   21932924.4504
     -3275.1674
   6195167.65647   4800494.11342  24349343.8564   24349339.5324
     -3783.0394
   5593384.27348   4333828.48443  23824095.4504   23824091.9584
     -3402.9264
  -2521951.26648  -1956084.98046  21659806.9034   21659803.8334
      1059.2684
  -1290027.64147  -1002769.20342  24103145.4504   24103142.1304
      1949.6384
 04  9 14 15 10  0.0010000  0  7G 1G11G14G19G22G25G20
  -2328924.37948  -1806607.66045  21760911.9814   21760909.1964
      1012.5244
  -1305024.19549  -1012110.98045  21721053.5994   21721049.2554
       277.3714
   5247638.06349   4065146.77045  21942285.4274   21942281.3684
     -3278.3374
   6251935.75846   4844728.94142  24360146.7634   24360142.1534
     -3784.5404
   5644457.55148   4373625.80143  23833815.0754   23833810.2124
     -3404.8854
  -2537732.03548  -1968381.68046  21656803.9974   21656801.1534
      1052.0514
  -1319269.96147  -1025555.42242  24097581.1924   24097577.3374
      1949.4884
 04  9 14 15 10 15.0010000  0  7G 1G11G14G19G22G25G20
  -2344032.77048  -1818380.42645  21758037.1774   21758034.2744
      1007.2264
  -1309061.66849  -1015257.06245  21720285.3334   21720281.2314
       269.1654
   5296860.81649   4103502.14845  21951652.0994   21951647.9154
     -3281.5174
   6308726.40646   4888981.36342  24370954.0994   24370949.4664
     -3786.0434
   5695560.55548   4413446.30143  23843539.0524   23843534.6854
     -3406.8674
  -2553403.75449  -1980593.40245  21653821.3884   21653818.5444
      1044.7814
  -1348509.49247  -1048339.46542  24092016.7714   24092013.0014
      1949.3024
 04  9 14 15 10 30.0010000  0  7G 1G11G14G19G22G25G20
  -2359061.95347  -1830091.48045  21755177.3024   21755174.3374
      1001.9464
  -1312976.12549  -1018307.30145  21719540.5364   21719536.0174
       260.9644
   5346130.80549   4141894.34045  21961028.1304   21961024.0444
     -3284.6664
   6365538.96146   4933250.84042  24381764.9424   24381760.6884
     -3787.5044
   5746693.09848   4453289.77743  23853269.2004   23853265.1464
     -3408.8364
  -2568966.60247  -1992720.29345  21650860.0444   21650857.1734
      1037.5234
  -1377746.49247  -1071121.54342  24086453.1694   24086449.5014
      1949.1334
 04  9 14 15 10 45.0010000  0  7G 1G11G14G19G22G25G20
  -2374012.53947  -1841741.28545  21752332.2164   21752329.2244
       996.7064
  -1316767.98849  -1021262.00445  21718819.0834   21718814.0604
       252.7914
   5395447.16849   4180322.66845  21970412.2634   21970409.1064
     -3287.7584
   6422372.49646   4977536.67242  24392579.4814   24392575.7594
     -3788.9024
   5797854.47747   4493155.75842  23863004.9274   23863000.7904
     -3410.7594
  -2584420.95748  -2004762.64145  21647919.3724   21647915.9464
      1030.2904
  -1406981.39147  -1093901.97342  24080889.9194   24080886.3294
      1948.9934
 04  9 14 15 11  0.0010000  0  7G 1G11G14G19G22G25G20
  -2388883.79748  -1853329.28945  21749502.2864   21749499.4074
       991.4174
  -1320436.55949  -1024120.63745  21718120.8254   21718116.3804
       244.5714
   5444810.37949   4218787.48045  21979805.9274   21979802.3104
     -3290.8814
   6479227.25446   5021839.03542  24403398.6774   24403393.8764
     -3790.3174
   5849045.42647   4533044.74243  23872745.8964   23872742.6574
     -3412.7304
  -2599765.85948  -2016719.70346  21644999.2394   21644996.5564
      1022.9934
  -1436213.42247  -1116680.18742  24075327.3964   24075323.2354
      1948.8024
 04  9 14 15 11 15.0010000  0  7G 1G11G14G19G22G25G20
  -2403675.99649  -1864855.67245  21746687.4424   21746684.6184
       986.1474
  -1323981.84449  -1026883.19945  21717446.0914   21717441.7744
       236.3524
   5494219.77049   4257288.29345  21989208.4974   21989204.3254
     -3293.9594
   6536102.60946   5066157.46542  24414222.3024   24414217.7394
     -3791.6904
   5900265.55948   4572956.47342  23882492.5834   23882489.1734
     -3414.6764
  -2615001.37949  -2028591.53146  21642100.0754   21642096.9384
      1015.7014
  -1465442.77347  -1139456.30542  24069765.1774   24069760.9074
      1948.6234
 04  9 14 15 11 30.0010000  0  7G 1G11G14G19G22G25G20
  -2418388.71549  -1876320.13345  21743887.5914   21743884.6814
       980.8484
  -1327403.32049  -1029549.29345  21716795.1144   21716790.8104
       228.0984
   5543675.61349   4295825.30945  21998619.5914   21998614.9274
     -3297.0564
   6592998.44546   5110491.87142  24425049.5214   24425043.8884
     -3793.0564
   5951515.21947   4612891.21943  23892245.5994   23892242.3964
     -3416.6444
  -2630126.91849  -2040377.65246  21639221.5364   21639218.7044
      1008.3694
  -1494668.99647  -1162229.98842  24064203.8174   24064199.7714
      1948.4154
 04  9 14 15 11 45.0010000  0  7G 1G11G14G19G22G25G20
  -2433021.46148  -1887722.28145  21741103.3644   21741100.5874
       975.5164
  -1330700.32849  -1032118.39545  21716167.6224   21716163.3214
       219.8014
   5593178.14849   4334398.71545  22008039.1304   22008035.6424
     -3300.1694
   6649914.93846   5154842.35942  24435879.9744   24435874.6034
     -3794.4334
   6002794.89848   4652849.35942  23902004.4194   23902000.6964
     -3418.6454
  -2645141.73849  -2052077.51646  21636364.3104   21636361.2044
      1000.9884
  -1523891.52046  -1185000.79342  24058642.3804   24058639.0714
      1948.1684
 04  9 14 15 12  0.0010000  0  6G 1G11G14G22G25G20
  -2447573.41848  -1899061.46945  21738333.8884   21738331.0404
       970.1304
  -1333871.90249  -1034589.75445  21715564.3254   21715560.2164
       211.4384
   5642728.01249   4373008.96945  22017468.5134   22017465.0174
     -3303.3244
   6054105.43448   4692831.54343  23911767.9974   23911764.5954
     -3420.7024
  -2660044.78148  -2063690.27046  21633528.4974   21633525.7354
       993.5364
  -1553109.43746  -1207767.99642  24053082.6464   24053078.9854
      1947.8614
 04  9 14 15 12 15.0010000  0  6G 1G11G14G22G25G20
  -2462043.76648  -1910337.06245  21735580.3174   21735577.6224
       964.6904
  -1336917.18049  -1036962.70746  21714984.8334   21714980.3414
       203.0184
   5692325.58649   4411656.41045  22026906.8804   22026903.4234
     -3306.5054
   6105447.52048   4732838.31343  23921538.1304   23921534.2864
     -3422.8064
  -2674835.13748  -2075215.21945  21630713.8174   21630710.9464
       986.0244
  -1582322.00046  -1230531.03542  24047523.5754   24047519.7674
      1947.5044
 04  9 14 15 12 30.0010000  0  6G 1G11G14G22G25G20
  -2476432.46548  -1921549.03545  21732842.1924   21732839.4974
       959.2474
  -1339835.83649  -1039236.98846  21714429.3334   21714425.0014
       194.5774
   5741970.79349   4450340.98845  22036353.9974   22036350.1574
     -3309.6804
   6156821.25848   4772869.74643  23931314.2714   23931310.8454
     -3424.9164
  -2689512.46548  -2086652.09845  21627921.0134   21627917.5244
       978.4894
  -1611528.87546  -1253289.64142  24041965.7634   24041962.0674
      1947.1254
 04  9 14 15 12 45.0010000  0  6G 1G11G14G22G25G20
  -2490738.10548  -1932696.29345  21730119.9894   21730117.0244
       953.7094
  -1342626.48449  -1041411.53146  21713898.1774   21713893.9074
       186.0434
   5791664.82449   4489063.59845  22045810.2554   22045806.3064
     -3312.9354
   6208227.94947   4812926.85943  23941096.2554   23941093.4744
     -3427.1134
  -2704075.12948  -2097999.62945  21625149.7474   21625146.6184
       970.8444
  -1640728.66846  -1276042.73042  24036409.6464   24036405.0954
      1946.6534
 04  9 14 15 13  0.0010000  0  6G 1G11G14G22G25G20
  -2504960.66448  -1943778.81245  21727413.4034   21727410.7474
       948.1714
  -1345288.92249  -1043486.16845  21713391.7394   21713387.3564
       177.4964
   5841407.37149   4527824.01245  22055276.2474   22055271.9814
     -3316.1704
   6259667.52748   4853009.57843  23950885.7004   23950882.1614
     -3429.3054
  -2718522.96548  -2109257.68445  21622400.3174   21622397.3924
       963.1894
  -1669921.30546  -1298790.23043  24030853.8884   24030850.3884
      1946.1764
 04  9 14 15 13 15.0010000  0  6G 1G11G14G22G25G20
  -2519099.11349  -1954795.77745  21724723.0054   21724720.1144
       942.5634
  -1347822.07049  -1045460.05545  21712909.4424   21712905.2314
       168.8774
   5891199.25049   4566622.86345  22064751.1304   22064747.3134
     -3319.4594
   6311141.02348   4893118.74643  23960680.7784   23960676.9934
     -3431.5664
  -2732854.71549  -2120425.28145  21619673.1464   21619669.7744
       955.4504
  -1699105.67646  -1321531.31242  24025300.3724   24025296.8804
      1945.6254
 04  9 14 15 13 30.0010000  0  6G 1G11G14G22G25G20
  -2533153.16849  -1965746.99645  21722048.6224   21722046.2944
       936.9374
  -1350225.39549  -1047332.77345  21712452.4034   21712447.8964
       160.2224
   5941040.49249   4605460.17645  22074235.6304   22074231.7314
     -3322.7494
   6362648.74648   4933254.59042  23970482.0674   23970478.3414
     -3433.8484
  -2747070.05149  -2131502.16446  21616968.1304   21616965.0994
       947.6894
  -1728281.34445  -1344265.59442  24019748.4194   24019744.8064
      1945.0454
 04  9 14 15 13 45.0010000  0  6G 1G11G14G22G25G20
  -2547125.33649  -1976634.39845  21719389.7784   21719386.8644
       931.4784
  -1352501.18449  -1049106.12546  21712019.0284   21712015.0094
       151.7194
   5990928.34849   4644333.82445  22083728.9814   22083725.2784
     -3325.8574
   6414188.14548   4973415.11343  23980290.2394   23980286.2474
     -3435.9604
  -2761171.13749  -2142490.01646  21614284.3334   21614281.8564
       940.0724
  -1757450.81246  -1366995.03942  24014197.9894   24014193.9544
      1944.6314
 04  9 14 15 14  0.0010000  0  6G 1G11G14G22G25G20
  -2561015.24649  -1987457.70345  21716746.8644   21716743.7744
       925.9944
  -1354649.07049  -1050779.80946  21711610.5994   21711606.2004
       143.1924
   6040862.85249   4683243.80945  22093231.2244   22093227.0954
     -3328.9674
   6465759.43448   5013600.48043  23990103.4664   23990100.1184
     -3438.0864
  -2775157.46949  -2153388.44546  21611623.3254   21611620.5174
       932.4224
  -1786613.66046  -1389719.34042  24008648.0214   24008644.3724
      1944.1904
 04  9 14 15 14 15.0010000  0  6G 1G11G14G22G25G20
  -2574822.74249  -1998216.79345  21714119.0134   21714116.2554
       920.5004
  -1356668.74649  -1052353.59846  21711226.0834   21711221.8924
       134.6454
   6090844.01249   4722190.15645  22102742.3174   22102738.2744
     -3332.0774
   6517362.88748   5053810.89843  23999922.9034   23999920.3844
     -3440.2304
  -2789028.52749  -2164197.05546  21608983.6384   21608980.9074
       924.7374
  -1815769.63746  -1412438.28542  24003100.0364   24003096.0524
      1943.7324
 04  9 14 15 14 30.0010000  0  6G 1G11G14G22G25G20
  -2588544.32849  -2008908.93745  21711508.2784   21711504.9974
       914.7724
  -1358556.55549  -1053824.62145  21710866.6304   21710862.6034
       125.8544
   6140874.93449   4761175.27745  22112262.9974   22112259.4704
     -3335.3954
   6569001.85248   5094049.02343  24009749.8024   24009746.2784
     -3442.5984
  -2802780.85249  -2174913.14846  21606366.5364   21606364.1774
       916.8224
  -1844915.12946  -1435149.04742  23997553.9584   23997549.9384
      1943.0334
 04  9 14 15 14 45.0010000  0  6G 1G11G14G22G25G20
  -2602180.66849  -2019534.65245  21708913.4194   21708910.4894
       909.0894
  -1360313.05549  -1055193.32845  21710532.5754   21710528.3924
       117.1004
   6190954.83249   4800198.55545  22121792.7084   22121789.2744
     -3338.6604
   6620675.60547   5134314.23842  24019582.8724   24019579.8294
     -3444.9174
  -2816414.71149  -2185536.93746  21603772.1694   21603769.4464
       908.9244
  -1874050.75046  -1457852.14542  23992009.0994   23992005.8414
      1942.3754
 04  9 14 15 15  0.0010000  0  6G 1G11G14G22G25G20
  -2615730.93749  -2030093.31245  21706334.5444   21706331.7634
       903.3514
  -1361937.24249  -1056458.93745  21710223.6694   21710219.2314
       108.2794
   6241084.26649   4839260.43045  22131332.0994   22131328.2674
     -3341.9624
   6672384.94147   5174607.17643  24029423.6064   24029419.9894
     -3447.2894
  -2829929.22349  -2196067.72746  21601200.5914   21601197.8254
       900.9674
  -1903175.59847  -1480546.82442  23986467.3024   23986463.2904
      1941.6574
 04  9 14 15 15 15.0010000  0  6G 1G11G14G22G25G20
  -2629193.70349  -2040583.77745  21703772.5604   21703769.5524
       897.5184
  -1363427.61349  -1057620.27046  21709939.9354   21709935.5094
        99.3584
   6291264.49649   4878361.89145  22140880.7314   22140877.0954
     -3345.3494
   6724131.33248   5214929.00442  24039270.2554   24039266.2634
     -3449.7594
  -2843322.71149  -2206504.22346  21598651.9814   21598648.9074
       892.8994
  -1932288.08647  -1503231.88742  23980927.1534   23980923.0994
      1940.8334
 04  9 14 15 15 30.0010000  0  6G 1G11G14G22G25G20
  -2642568.66049  -2051005.82445  21701227.3724   21701224.6854
       891.6644
  -1364783.71149  -1058676.98046  21709681.7784   21709677.7514
        90.4074
   6341495.52349   4917502.94944  22150439.7474   22150435.6854
     -3348.7354
   6775915.07448   5255279.94142  24049124.7634   24049120.7354
     -3452.2494
  -2856594.60949  -2216845.95346  21596126.3564   21596123.3684
       884.7934
  -1961387.89147  -1525907.07042  23975390.0054   23975385.7354
      1939.9874
 04  9 14 15 15 45.0010000  0  6G 1G11G14G22G25G20
  -2655852.63349  -2061356.97345  21698699.9894   21698696.9974
       885.5984
  -1366002.26649  -1059626.51646  21709450.0444   21709445.8564
        81.2374
   6391780.29349   4956685.87545  22160008.3804   22160004.7904
     -3352.3184
   6827739.23848   5295662.35543  24058986.3644   24058982.8374
     -3454.9444
  -2869741.83649  -2227090.54346  21593624.4194   21593621.3604
       876.4824
  -1990471.85946  -1548569.91042  23969855.2784   23969851.6034
      1938.9314
 04  9 14 15 16  0.0010000  0  6G 1G11G14G22G25G20
  -2669045.33649  -2071637.00445  21696189.2864   21696186.3454
       879.5144
  -1367082.72349  -1060468.43446  21709244.1224   21709240.1814
        72.0304
   6442118.91049   4995910.75045  22169587.6064   22169584.1734
     -3355.9084
   6879604.13748   5336076.53142  24068856.0914   24068851.5754
     -3457.6604
  -2882763.62949  -2237237.39146  21591146.5364   21591143.5054
       868.1204
  -2019539.42247  -1571219.94942  23964323.4814   23964320.2004
      1937.8384
 04  9 14 15 16 15.0010000  0  6G 1G11G14G22G25G20
  -2682146.78948  -2081845.93045  21693695.7714   21693693.1264
       873.4304
  -1368025.19149  -1061202.83246  21709064.8564   21709060.8764
        62.8314
   6492511.01249   5035177.30145  22179177.3804   22179173.7394
     -3359.4734
   6931509.71148   5376522.38743  24078733.4114   24078730.1344
     -3460.3724
  -2895659.84049  -2247286.37546  21588692.1694   21588689.4544
       859.7474
  -2048590.52747  -1593857.18042  23958795.6464   23958791.9784
      1936.7404
 04  9 14 15 16 30.0010000  0  6G 1G11G14G22G25G20
  -2695156.55948  -2091983.41445  21691220.5994   21691217.5134
       867.3184
  -1368829.02349  -1061829.20345  21708911.7944   21708908.0404
        53.5894
   6542956.87949   5074485.75845  22188776.7394   22188772.8374
     -3363.0584
   6983456.29347   5417000.21943  24088618.4504   24088615.0674
     -3463.1054
  -2908429.84448  -2257237.02746  21586262.3104   21586259.6224
       851.3344
  -2077624.73847  -1616481.23842  23953271.2864   23953266.9074
      1935.6144
 04  9 14 15 16 45.0010000  0  6G 1G11G14G22G25G20
  -2708074.17247  -2102049.09045  21688762.1144   21688759.3254
       861.1744
  -1369493.59049  -1062347.05545  21708785.8174   21708781.6774
        44.3044
   6593456.77349   5113836.31644  22198386.8644   22198382.3924
     -3366.6604
   7035444.29348   5457510.27743  24098511.5674   24098508.6064
     -3465.8674
  -2921073.00048  -2267088.83246  21583856.5284   21583853.9424
       842.8774
  -2106641.38347  -1639091.61342  23947748.8174   23947745.2514
      1934.4434
 04  9 14 15 17  0.0010000  0  6G 1G11G14G22G25G20
  -2720897.31648  -2112041.14845  21686322.0754   21686319.1814
       854.8764
  -1370016.47749  -1062754.50445  21708686.0054   21708681.8884
        34.8594
   6644012.65249   5153230.49645  22208006.7784   22208003.1534
     -3370.3924
   7087476.06648   5498054.47343  24108413.1144   24108408.7594
     -3468.7854
  -2933586.82448  -2276839.85946  21581475.1464   21581472.1964
       834.2554
  -2135638.11347  -1661686.42742  23942231.0834   23942227.2004
      1933.1154
 04  9 14 15 17 15.0010000  0  6G 1G11G14G22G25G20
  -2733625.37148  -2121959.11745  21683899.9274   21683897.2204
       848.5374
  -1370396.94549  -1063050.98845  21708613.7314   21708609.5484
        25.3654
   6694624.96549   5192668.63345  22217638.4274   22217634.7124
     -3374.1544
   7139552.17248   5538633.21142  24118322.8174   24118319.1924
     -3471.7404
  -2945970.55948  -2286489.51646  21579118.4664   21579115.5874
       825.5824
  -2164614.25447  -1684265.28542  23936717.3964   23936713.6064
      1931.7434
 04  9 14 15 17 30.0010000  0  6G 1G11G14G22G25G20
  -2746256.21949  -2131801.34045  21681496.4034   21681493.6534
       842.0574
  -1370632.81249  -1063234.78945  21708568.6464   21708564.4074
        15.7244
   6745295.46949   5232152.12945  22227280.9274   22227277.2204
     -3378.0344
   7191674.59448   5579248.03542  24128241.7164   24128236.9934
     -3474.8284
  -2958221.82449  -2296035.95746  21576786.9354   21576784.0364
       816.7514
  -2193567.69547  -1706826.41042  23931207.5364   23931203.8454
      1930.2294
 04  9 14 15 17 45.0010000  0  6G 1G11G14G22G25G20
  -2758792.56249  -2141569.91845  21679111.1694   21679108.0174
       835.7564
  -1370726.62949  -1063307.90646  21708550.9194   21708546.7474
         6.2544
   6796021.29349   5271678.73845  22236933.1304   22236929.1304
     -3381.7224
   7243840.70348   5619896.90642  24138167.9814   24138164.4234
     -3477.7414
  -2970343.12149  -2305481.12146  21574480.5214   21574477.5794
       808.0864
  -2222500.98447  -1729371.82842  23925701.8104   23925698.3174
      1928.8864
 04  9 14 15 18  0.0010000  0  6G 1G11G14G22G25G20
  -2771233.00449  -2151263.77745  21676743.5284   21676740.6034
       829.3634
  -1370676.91049  -1063269.16446  21708560.7084   21708556.2244
        -3.3154
   6846803.76649   5311249.47744  22246596.7244   22246592.8174
     -3385.4984
   7296051.87548   5660580.89542  24148103.5214   24148099.8024
     -3480.7454
  -2982332.98049  -2314823.86746  21572199.0364   21572196.4664
       799.3244
  -2251412.59047  -1751900.35242  23920200.1694   23920196.4784
      1927.4404
 04  9 14 15 18 15.0010000  0  6G 1G11G14G22G25G20
  -2783575.80548  -2160881.54346  21674394.9584   21674392.0054
       822.8534
  -1370481.77749  -1063117.12545  21708597.6534   21708593.4854
       -13.0094
   6897644.21949   5350865.39844  22256271.7084   22256267.6104
     -3389.3644
   7348309.75047   5701301.25842  24158047.7084   24158044.1854
     -3483.8584
  -2994189.35948  -2324062.60546  21569942.6924   21569939.4584
       790.4254
  -2280300.64847  -1774410.53142  23914702.6534   23914699.2204
      1925.8714
 04  9 14 15 18 30.0010000  0  6G 1G11G14G22G25G20
  -2795819.93047  -2170422.41845  21672064.6384   21672061.9464
       816.2754
  -1370139.91849  -1062850.75045  21708662.3494   21708658.1774
       -22.7914
   6948543.44949   5390527.12945  22265957.5444   22265953.6494
     -3393.2824
   7400615.46547   5742058.93042  24168001.3414   24167996.9384
     -3487.0484
  -3005911.02748  -2333196.37146  21567712.1614   21567708.7514
       781.4454
  -2309164.07846  -1796901.50442  23909209.9664   23909206.1814
      1924.2294
 04  9 14 15 18 45.0010000  0  6G 1G11G14G22G25G20
  -2807966.82048  -2179887.52745  21669753.2474   21669750.4784
       809.7934
  -1369652.89549  -1062471.26245  21708755.5834   21708751.2124
       -32.4684
   6999499.82049   5430233.37545  22275654.0754   22275650.5834
     -3397.0914
   7452967.48448   5782852.68442  24177963.4584   24177959.4074
     -3490.1354
  -3017499.26648  -2342226.16846  21565506.9894   21565504.0014
       772.5494
  -2338004.24247  -1819374.37942  23903721.6694   23903718.3064
      1922.6784
 04  9 14 15 19  0.0010000  0  6G 1G11G14G22G25G20
  -2820016.35249  -2189276.77345  21667460.5834   21667457.4744
       803.3024
  -1369020.21549  -1061978.27045  21708875.9744   21708871.4974
       -42.1794
   7050513.31349   5469984.12544  22285361.4504   22285357.5834
     -3400.8994
   7505365.89547   5823682.57842  24187934.8804   24187930.6924
     -3493.2274
  -3028953.71549  -2351151.70746  21563327.4894   21563324.3884
       763.6304
  -2366820.80947  -1841828.85242  23898238.0524   23898234.3254
      1921.1044
 04  9 14 15 19 15.0010000  0  6G 1G11G14G22G25G20
  -2831967.78948  -2198589.58645  21665186.0604   21665183.3684
       796.7634
  -1368241.13349  -1061371.20745  21709024.1144   21709019.6424
       -51.9394
   7101584.37148   5509779.73444  22295079.8174   22295076.2634
     -3404.7374
   7557811.37947   5864549.13742  24197915.2084   24197910.3764
     -3496.3664
  -3040273.47748  -2359972.30546  21561173.1224   21561170.5214
       754.6514
  -2395612.94547  -1864264.29742  23892759.5284   23892755.6064
      1919.4764
 04  9 14 15 19 30.0010000  0  6G 1G11G14G22G25G20
  -2843820.57048  -2207825.52346  21662930.4664   21662927.7784
       790.1854
  -1367314.90649  -1060649.48045  21709200.2004   21709195.9504
       -61.7484
   7152713.28949   5549620.44144  22304809.4974   22304805.3844
     -3408.5954
   7610304.48848   5905452.84042  24207904.1694   24207899.9544
     -3499.5414
  -3051457.73048  -2368687.30146  21559044.8644   21559041.9544
       745.6174
  -2424380.02747  -1886680.19942  23887285.2004   23887281.0244
      1917.8054
 04  9 14 15 19 45.0010000  0  6G 1G11G14G22G25G20
  -2855575.30549  -2216985.05946  21660693.8884   21660690.9664
       783.6494
  -1366242.22749  -1059813.63345  21709404.3254   21709399.9384
       -71.5124
   7203899.35949   5589505.68445  22314549.6064   22314546.1964
     -3412.4054
   7662844.57047   5946393.10543  24217902.4664   24217899.2984
     -3502.6724
  -3062506.85949  -2377297.01246  21556942.3414   21556939.1384
       736.6094
  -2453122.50447  -1909076.93742  23881815.8804   23881811.9314
      1916.1654
 04  9 14 15 20  0.0010000  0  6G 1G11G14G22G25G20
  -2867231.85549  -2226068.07846  21658475.4894   21658472.8024
       777.1034
  -1365022.75449  -1058863.40646  21709636.3024   21709631.9584
       -81.2984
   7255142.46949   5629435.35545  22324301.0284   22324297.3334
     -3416.2074
   7715431.75447   5987370.08642  24227909.0134   24227906.1224
     -3505.8124
  -3073420.66049  -2385801.27046  21554865.6534   21554862.4274
       727.5874
  -2481840.14847  -1931454.32042  23876351.1384   23876347.1574
      1914.5104
 04  9 14 15 20 15.0010000  0  6G 1G11G14G22G25G20
  -2878789.67649  -2235074.18045  21656275.8104   21656273.3684
       770.5214
  -1363655.67649  -1057798.15245  21709896.5134   21709892.3374
       -91.1394
   7306442.96148   5669409.74245  22334062.8104   22334059.8134
     -3420.0334
   7768066.58247   6028384.17242  24237924.6534   24237922.1734
     -3508.9894
  -3084198.37149  -2394199.47746  21552814.6384   21552811.6424
       718.5144
  -2510532.46147  -1953811.98842  23870891.3104   23870887.0444
      1912.8214
 04  9 14 15 20 30.0010000  0  6G 1G11G14G22G25G20
  -2890249.24649  -2244003.71146  21654095.6614   21654092.6464
       763.9714
  -1362141.44149  -1056618.24246  21710184.9814   21710180.8134
      -100.9494
   7357800.08249   5709428.26644  22343835.9584   22343832.7084
     -3423.8084
   7820748.58247   6069435.00842  24247950.4894   24247947.4274
     -3512.1334
  -3094840.22349  -2402491.82446  21550789.4194   21550786.0054
       709.4574
  -2539199.69947  -1976150.09442  23865435.8174   23865431.9504
      1911.1494
 04  9 14 15 20 45.0010000  0  6G 1G11G14G22G25G20
  -2901609.66449  -2252855.98845  21651933.8254   21651931.2394
       757.3614
  -1360479.13349  -1055322.94546  21710500.9664   21710496.8374
      -110.8214
   7409214.49649   5749491.43045  22353620.0754   22353616.3254
     -3427.6284
   7873478.57047   6110523.25442  24257984.3724   24257981.4544
     -3515.3334
  -3105345.17649  -2410677.50046  21548790.7784   21548787.5634
       700.3304
  -2567840.85547  -1998467.89142  23859985.8564   23859981.6064
      1909.4104
 04  9 14 15 21  0.0010000  0  6G 1G11G14G22G25G20
  -2912871.41448  -2261631.37545  21649790.5444   21649788.1694
       750.7834
  -1358668.98049  -1053912.44946  21710845.9814   21710841.3024
      -120.6774
   7460685.55148   5789598.73444  22363414.7244   22363410.9314
     -3431.4044
   7926256.04747   6151648.50042  24268027.9274   24268024.5994
     -3518.4984
  -3115713.49248  -2418756.70746  21546817.5914   21546814.4274
       691.2214
  -2596456.25447  -2020765.60543  23854540.3024   23854536.6264
      1907.6934
 04  9 14 15 21 15.0010000  0  6G 1G11G14G22G25G20
  -2924035.66048  -2270330.78945  21647666.2944   21647663.5284
       744.2834
  -1356711.99649  -1052387.53545  21711217.9194   21711214.2044
      -130.4664
   7512211.85549   5829749.07445  22373219.8644   22373216.4274
     -3435.0874
   7979079.86348   6192809.86342  24278079.5754   24278076.2984
     -3521.5884
  -3125946.20748  -2426730.25046  21544870.0994   21544867.2394
       682.1814
  -2625046.98447  -2043044.10942  23849099.8724   23849095.9234
      1906.0494
 04  9 14 15 21 30.0010000  0  6G 1G11G14G22G25G20
  -2935101.78949  -2278953.75445  21645560.1144   21645557.5054
       737.7424
  -1354607.62149  -1050747.77045  21711618.1924   21711614.1034
      -140.2924
   7563793.64148   5869942.64844  22383035.7554   22383032.0134
     -3438.7864
   8031950.52347   6234007.74242  24288140.7244   24288138.1384
     -3524.7114
  -3136042.65249  -2434597.59846  21542948.8804   21542945.8454
       673.0964
  -2653612.32447  -2065302.82842  23843663.9814   23843659.8884
      1904.3564
 04  9 14 15 21 45.0010000  0  6G 1G11G14G22G25G20
  -2946069.48449  -2287500.01246  21643473.1534   21643470.5634
       731.1804
  -1352355.34849  -1048992.76646  21712047.0134   21712042.7354
      -150.1524
   7615431.11749   5910179.62944  22392862.0834   22392858.1694
     -3442.4984
   8084868.39847   6275242.37942  24298210.9664   24298207.8604
     -3527.8584
  -3146002.20749  -2442358.28546  21541053.7634   21541050.6574
       663.9704
  -2682151.97347  -2087541.51243  23838233.2864   23838229.2004
      1902.6434
 04  9 14 15 22  0.0010000  0  6G 1G11G14G22G25G20
  -2956939.46149  -2295970.12946  21641404.6464   21641402.0094
       724.6654
  -1349955.82849  -1047123.01645  21712503.7714   21712499.5404
      -159.9684
   7667123.29748   5950459.24244  22402698.6064   22402694.6264
     -3446.1454
   8137832.72347   6316513.25442  24308288.8024   24308286.5444
     -3530.9554
  -3155825.58249  -2450012.85546  21539184.3724   21539181.4584
       654.8924
  -2710666.41447  -2109760.55542  23832806.7474   23832802.8884
      1900.9634
 04  9 14 15 22 15.0010000  0  6G 1G11G14G22G25G20
  -2967713.30549  -2304365.32446  21639354.4744   21639352.0094
       718.2564
  -1347410.45349  -1045139.62546  21712988.0284   21712983.7434
      -169.6924
   7718868.52748   5990780.17644  22412545.3644   22412541.4034
     -3449.6824
   8190841.78147   6357818.94942  24318376.9274   24318373.6144
     -3533.9374
  -3165514.00449  -2457562.27346  21537340.7554   21537338.0364
       645.8954
  -2739157.12947  -2131961.12943  23827385.1384   23827381.7434
      1899.3814
 04  9 14 15 22 30.0010000  0  6G 1G11G14G22G25G20
  -2978391.17249  -2312685.75046  21637322.8254   21637319.9784
       711.8584
  -1344719.31649  -1043042.64145  21713499.8804   21713495.7164
      -179.4094
   7770666.42248   6031142.16044  22422402.1144   22422398.5794
     -3453.1934
   8243895.44947   6399159.43042  24328472.8024   24328469.5174
     -3536.9114
  -3175067.41849  -2465006.48846  21535522.9034   21535520.0954
       636.8944
  -2767624.14547  -2154143.21942  23821967.9354   23821964.5174
      1897.8014
 04  9 14 15 22 45.0010000  0  6G 1G11G14G22G25G20
  -2988973.13349  -2320931.43745  21635309.1854   21635306.3414
       705.4644
  -1341882.36349  -1040832.03945  21714040.0674   21714035.6774
      -189.1304
   7822516.63349   6071544.89844  22432269.0754   22432265.5244
     -3456.6814
   8296993.66447   6440534.60542  24338577.2474   24338573.9544
     -3539.8814
  -3184485.82849  -2472345.50046  21533730.5754   21533727.6224
       627.8944
  -2796067.45748  -2176306.83643  23816555.7084   23816552.2124
      1896.2214
 04  9 14 15 23  0.0010000  0  6G 1G11G14G22G25G20
  -2999459.84449  -2329102.89546  21633313.7554   21633310.6654
       699.1144
  -1338900.06649  -1038508.18045  21714607.7554   21714603.2864
      -198.8204
   7874418.42648   6111987.84044  22442145.5214   22442142.0994
     -3460.1204
   8350135.80147   6481944.01242  24348689.6144   24348686.1814
     -3542.8094
  -3193769.66849  -2479579.65646  21531963.7554   21531960.6854
       618.9234
  -2824487.57847  -2198452.38743  23811147.4584   23811143.4894
      1894.6754
 04  9 14 15 23 15.0010000  0  6G 1G11G14G22G25G20
  -3009850.27049  -2337199.34046  21631336.1064   21631333.4744
       692.6954
  -1335771.44149  -1036070.30146  21715202.7554   21715198.7634
      -208.5754
   7926372.45748   6152471.48444  22452031.9504   22452028.3994
     -3463.6024
   8403322.89847   6523388.43842  24358810.5754   24358808.0834
     -3545.8074
  -3202917.82049  -2486708.08646  21530222.9354   21530220.1774
       609.8774
  -2852883.39147  -2220578.98843  23805743.5914   23805740.2824
      1893.0544
 04  9 14 15 23 30.0010000  0  6G 1G11G14G22G25G20
  -3020146.86349  -2345222.65646  21629376.7394   21629374.2434
       686.4404
  -1332498.80149  -1033520.19945  21715825.8024   21715821.4504
      -218.1764
   7978376.10548   6192993.78944  22461928.2864   22461924.1264
     -3466.9104
   8456552.37148   6564865.86743  24368940.6774   24368937.3294
     -3548.6324
  -3211932.39849  -2493732.43046  21528507.6534   21528505.0524
       600.9724
  -2881257.17647  -2242688.43443  23800344.8254   23800341.0444
      1891.5864
 04  9 14 15 23 45.0010000  0  6G 1G11G14G22G25G20
  -3030350.19149  -2353173.30946  21627435.1774   21627432.5174
       680.2224
  -1329082.48449  -1030858.14145  21716475.7554   21716471.7044
      -227.7544
   8030428.61748   6233554.17244  22471833.1384   22471829.7354
     -3470.1674
   8509823.62548   6606375.89142  24379077.7004   24379074.2984
     -3551.4174
  -3220813.86349  -2500653.05146  21526817.5134   21526814.3924
       592.0984
  -2909609.44548  -2264781.12543  23794949.4814   23794945.8454
      1890.1514
 04  9 14 15 24  0.0010000  0  6G 1G11G14G22G25G20
  -3040459.22349  -2361050.48446  21625511.4504   21625508.8064
       673.9354
  -1325521.44549  -1028083.31646  21717153.4034   21717149.0324
      -237.4034
   8082530.82848   6274153.28944  22481748.2084   22481744.9274
     -3473.4814
   8563137.73447   6647919.28943  24389222.7554   24389219.9234
     -3554.2744
  -3229560.96949  -2507468.98046  21525153.1224   21525150.0214
       583.1404
  -2937938.94548  -2286856.06243  23789558.4584   23789554.9384
      1888.6334
 04  9 14 15 24 15.0010000  0  6G 1G11G14G22G25G20
  -3050473.47749  -2368853.79345  21623605.8804   21623603.0094
       667.6174
  -1321815.07849  -1025195.25445  21717858.5914   21717854.5874
      -247.0914
   8134683.08248   6314791.38344  22491672.2784   22491668.9934
     -3476.8174
   8616495.17647   6689496.44543  24399376.8644   24399373.5174
     -3557.1634
  -3238172.97749  -2514179.63346  21523514.2714   21523511.2314
       574.1344
  -2966245.06247  -2308912.77343  23784171.4974   23784167.9114
      1887.0744
 04  9 14 15 24 30.0010000  0  6G 1G11G14G22G25G20
  -3060393.47349  -2376583.66046  21621718.0754   21621715.5994
       661.3334
  -1317963.64149  -1022194.14146  21718591.3414   21718587.3334
      -256.7624
   8186884.48048   6355467.77044  22501605.9504   22501602.6574
     -3480.0934
   8669895.27747   6731106.88343  24409538.3564   24409535.1344
     -3560.0074
  -3246650.42249  -2520785.43746  21521901.1924   21521897.7284
       565.1634
  -2994528.27047  -2330951.63343  23778789.5444   23778785.7594
      1885.5474
 04  9 14 15 24 45.0010000  0  6G 1G11G14G22G25G20
  -3070219.54749  -2384240.34446  21619848.3334   21619845.7044
       655.0724
  -1313967.57449  -1019080.32846  21719351.9114   21719347.8454
      -266.4044
   8239134.56348   6396182.10244  22511548.5754   22511544.7004
     -3483.3394
   8723337.73447   6772750.27043  24419708.6384   24419705.2594
     -3562.8304
  -3254993.32049  -2527286.39546  21520313.3804   21520310.5364
       556.1934
  -3022788.84847  -2352972.85942  23773411.8494   23773408.1384
      1884.0394
 04  9 14 15 25  0.0010000  0  6G 1G11G14G22G25G20
  -3079951.86349  -2391823.96546  21617996.0754   21617993.6884
       648.8214
  -1309826.92649  -1015853.85946  21720140.1774   21720135.8104
      -276.0434
   8291432.88748   6436934.03544  22521500.4194   22521497.6144
     -3486.5554
   8776822.30148   6814426.50043  24429886.2944   24429882.8884
     -3565.6384
  -3263201.72749  -2533682.55146  21518751.2944   21518748.6424
       547.2274
  -3051026.80547  -2374976.47742  23768038.4664   23768034.6304
      1882.5304
 04  9 14 15 25 15.0010000  0  6G 1G11G14G22G25G20
  -3089591.74649  -2399335.56646  21616161.8414   21616159.4194
       642.6594
  -1305542.92249  -1012515.68746  21720955.0754   21720951.0174
      -285.6004
   8343778.06648   6477722.46544  22531462.1144   22531458.5634
     -3489.6794
   8830347.86747   6856134.68442  24440071.6304   24440068.6034
     -3568.3714
  -3271276.72349  -2539974.74646  21517214.6304   21517211.6574
       538.3334
  -3079243.32448  -2396963.37942  23762668.8414   23762665.3134
      1881.1014
 04  9 14 15 25 30.0010000  0  6G 1G11G14G22G25G20
  -3099139.14149  -2406775.09446  21614345.0604   21614342.1774
       636.4934
  -1301115.28549  -1009065.59046  21721797.5604   21721793.8844
      -295.1764
   8396169.88748   6518547.23444  22541431.5914   22541427.9974
     -3492.7884
   8883914.31347   6897874.73442  24450264.4664   24450262.1104
     -3571.0964
  -3279218.22349  -2546162.92246  21515703.4894   21515700.4234
       529.4334
  -3107438.21547  -2418933.43043  23757303.6064   23757299.8764
      1879.6594
 04  9 14 15 25 45.0010000  0  6G 1G11G14G22G25G20
  -3108592.30548  -2414141.19546  21612546.1774   21612543.4784
       630.2114
  -1296542.12549  -1005502.09846  21722668.1924   21722664.2434
      -304.8774
   8448609.84048   6559409.50844  22551410.2784   22551407.4424
     -3495.9974
   8937523.47347   6939648.05142  24460465.9034   24460463.7824
     -3573.9444
  -3287024.14849  -2552245.46146  21514218.1854   21514215.0914
       520.3954
  -3135609.56248  -2440885.13742  23751942.7714   23751938.9664
      1878.0904
 04  9 14 15 26  0.0020000  0  6G 1G11G14G22G25G20
  -3117951.67248  -2421434.20346  21610765.3614   21610762.6314
       623.9584
  -1291822.98849  -1001824.85246  21723566.1504   21723562.3264
      -314.6094
   8501101.43848   6600312.02744  22561399.7054   22561396.0534
     -3499.4404
   8991178.99248   6981457.46542  24470676.9554   24470673.3894
     -3577.0354
  -3294694.66849  -2558222.48846  21512758.4714   21512755.7214
       511.3684
  -3163758.98448  -2462819.75043  23746586.0804   23746582.3344
      1876.6284
 04  9 14 15 26 15.0020000  0  6G 1G11G14G22G25G20
  -3127218.34049  -2428654.99246  21609001.9474   21608999.1504
       617.7784
  -1286960.69949   -998036.07046  21724491.3224   21724487.5454
      -324.1534
   8553635.24248   6641247.45344  22571396.3934   22571392.2874
     -3502.2544
   9044871.29348   7023295.57842  24480894.2294   24480891.0144
     -3579.4874
  -3302231.03149  -2564094.98046  21511324.4164   21511321.4474
       502.4244
  -3191884.86748  -2484736.01243  23741233.9634   23741230.0684
      1875.0594
 04  9 14 15 26 30.0020000  0  6G 1G11G14G22G25G20
  -3136390.91049  -2435802.44946  21607256.3854   21607253.3694
       611.5054
  -1281952.86749   -994133.87946  21725444.4864   21725440.7564
      -333.8554
   8606216.64848   6682219.95744  22581402.1664   22581398.5804
     -3505.4274
   9098606.19148   7065166.87142  24491119.8224   24491116.3934
     -3582.3274
  -3309631.35549  -2569861.46146  21509916.2054   21509913.1584
       493.3554
  -3219986.90648  -2506633.72343  23735886.3304   23735882.3424
      1873.4694
 04  9 14 15 26 45.0020000  0  6G 1G11G14G22G25G20
  -3145470.61748  -2442877.54346  21605528.5024   21605525.8774
       605.3144
  -1276800.57048   -990119.10546  21726424.4474   21726421.1544
      -343.4864
   8658843.99648   6723228.26644  22591416.8464   22591413.6194
     -3508.4904
   9152382.20747   7107070.21542  24501353.2214   24501349.2954
     -3585.0684
  -3316896.90249  -2575522.93046  21508533.4554   21508530.5844
       484.3704
  -3248066.30948  -2528513.77742  23730542.9324   23730539.1354
      1871.9604
 04  9 14 15 27  0.0020000  0  6G 1G11G14G22G25G20
  -3154457.57049  -2449880.36346  21603818.3694   21603815.6934
       599.1304
  -1271503.88349   -985991.83246  21727432.7214   21727428.6704
      -353.1124
   8711517.05948   6764272.18444  22601440.5724   22601436.9714
     -3511.5374
   9206199.23446   7149005.51642  24511593.9634   24511589.8114
     -3587.8024
  -3324027.60549  -2581079.31646  21507176.5964   21507173.5494
       475.3804
  -3276122.97748  -2550376.12943  23725204.4394   23725200.0334
      1870.4454
 04  9 14 15 27 15.0020000  0  6G 1G11G14G22G25G20
  -3163351.58648  -2456810.76646  21602125.8694   21602123.2254
       592.9344
  -1266062.39548   -981751.72346  21728468.2604   21728464.3424
      -362.7664
   8764235.86748   6805351.75444  22611472.5884   22611468.5414
     -3514.5874
   9260057.56347   7190973.00842  24521842.9244   24521838.8894
     -3590.5554
  -3331023.07849  -2586530.33246  21505845.5104   21505842.7954
       466.3654
  -3304156.56648  -2572220.48443  23719869.5104   23719865.5184
      1868.9064
 04  9 14 15 27 30.0020000  0  6G 1G11G14G22G25G20
  -3172153.70749  -2463669.56646  21600450.9164   21600448.2214
       586.8084
  -1260477.04748   -977399.50846  21729530.9244   21729527.3934
      -372.3574
   8816999.19148   6846466.01644  22621512.8074   22621509.3264
     -3517.5554
   9313956.04347   7232971.74242  24532099.5184   24532096.6504
     -3593.2324
  -3337884.28549  -2591876.71546  21504539.6114   21504536.6154
       457.4144
  -3332168.05548  -2594047.62943  23714539.1194   23714534.9394
      1867.4334
 04  9 14 15 27 45.0020000  0  6G 1G11G14G22G25G20
  -3180863.52749  -2470456.43746  21598793.3934   21598790.3144
       580.6554
  -1254747.48848   -972934.92246  21730621.2994   21730617.6004
      -381.9714
   8869807.18048   6887615.08244  22631561.9554   22631558.4474
     -3520.5334
   9367895.03947   7275002.06642  24542364.2054   24542360.1934
     -3595.9334
  -3344610.52349  -2597117.93046  21503259.6974   21503256.9434
       448.4164
  -3360156.94948  -2615857.17243  23709212.7914   23709209.2874
      1865.9264
 04  9 14 15 28  0.0020000  0  6G 1G11G14G22G25G20
  -3189479.64148  -2477170.29746  21597154.0254   21597151.4004
       574.4084
  -1248872.18748   -968356.77746  21731739.1504   21731735.2714
      -391.6874
   8922661.09848   6928799.93044  22641619.6974   22641616.0644
     -3523.5954
   9421875.98047   7317065.09042  24552636.1194   24552632.9004
     -3598.7294
  -3351200.16849  -2602252.71946  21502005.6504   21502003.1114
       439.3104
  -3388121.68748  -2637647.87943  23703890.7524   23703887.4864
      1864.3164
 04  9 14 15 28 15.0020000  0  6G 1G11G14G22G25G20
  -3198002.82848  -2483811.74246  21595531.8694   21595529.2524
       568.2134
  -1242851.79348   -963665.57446  21732885.1194   21732881.4044
      -401.3604
   8975559.94948   6970019.80544  22651686.3694   22651682.4944
     -3526.5904
   9475898.08646   7359160.17242  24562915.8384   24562912.8074
     -3601.4744
  -3357653.94949  -2607281.63346  21500777.4714   21500774.7564
       430.2524
  -3416062.84448  -2659420.21943  23698574.5254   23698570.7054
      1862.7444
 04  9 14 15 28 30.0020000  0  6G 1G11G14G22G25G20
  -3206430.48848  -2490378.74646  21593928.2994   21593925.4674
       561.8444
  -1236683.68448   -958859.26246  21734058.8384   21734054.8814
      -411.2074
   9028506.09048   7011276.52044  22661761.5024   22661757.9284
     -3529.7434
   9529963.89846   7401289.30942  24573204.7054   24573201.2754
     -3604.3874
  -3363969.21949  -2612202.62946  21499576.1974   21499572.8264
       421.0184
  -3443977.73848  -2681172.09443  23693262.4474   23693258.6114
      1860.9934
 04  9 14 15 28 45.0020000  0  6G 1G11G14G22G25G20
  -3214763.15249  -2496871.73046  21592342.6584   21592339.8734
       555.5114
  -1230368.13749   -953938.06646  21735260.8694   21735256.8694
      -421.0364
   9081498.88348   7052569.57444  22671846.0574   22671842.2874
     -3532.8534
   9584072.88746   7443452.08242  24583500.6974   24583497.8934
     -3607.2664
  -3370146.07449  -2617015.77046  21498400.5884   21498397.6744
       411.7904
  -3471866.69948  -2702903.75443  23687955.3774   23687951.3614
      1859.2644
 04  9 14 15 29  0.0020000  0  6G 1G11G14G22G25G20
  -3222999.12548  -2503289.37546  21590775.3224   21590772.7524
       549.0654
  -1223903.43048   -948900.64546  21736490.9244   21736486.8854
      -430.9804
   9134539.84448   7093900.17644  22681939.1354   22681935.5334
     -3536.0644
   9638226.79746   7485649.89542  24593806.6504   24593803.3304
     -3610.2614
  -3376182.75049  -2621719.66046  21497251.9244   21497249.0724
       402.4454
  -3499727.87148  -2724613.75843  23682653.6504   23682650.2564
      1857.4114
 04  9 14 15 29 15.0020000  0  6G 1G11G14G22G25G20
  -3231137.39149  -2509630.88346  21589226.6974   21589224.2054
       542.5514
  -1217288.51249   -943746.17246  21737749.5884   21737745.3854
      -440.9954
   9187629.84048   7135268.98044  22692041.8614   22692038.3264
     -3539.3334
   9692426.64146   7527883.49642  24604120.6274   24604117.9004
     -3613.3234
  -3382078.12149  -2626313.45346  21496129.7994   21496126.8034
       393.0254
  -3527560.15248  -2746301.25043  23677357.4554   23677353.6274
      1855.4854
 04  9 14 15 29 30.0020000  0  6G 1G11G14G22G25G20
  -3239177.71949  -2515896.07446  21587696.6194   21587694.1044
       536.0224
  -1210523.08249   -938474.41446  21739036.9244   21739033.0614
      -451.0294
   9240768.79748   7176675.95344  22702153.9944   22702150.0684
     -3542.5974
   9746672.55946   7570152.98842  24614442.7684   24614440.0684
     -3616.3954
  -3387831.80549  -2630796.83246  21495035.0184   21495032.1784
       383.5794
  -3555363.09448  -2767965.89543  23672066.3544   23672063.2014
      1853.5294
 04  9 14 15 29 45.0020000  0  6G 1G11G14G22G25G20
  -3247119.52749  -2522084.49646  21586185.2684   21586182.8814
       529.4544
  -1203606.34849   -933084.75845  21740353.1744   21740349.2094
      -461.1164
   9293957.14148   7218121.39844  22712275.0964   22712271.8304
     -3545.8904
   9800965.13745   7612458.84442  24624774.3854   24624771.6584
     -3619.5054
  -3393443.07049  -2635169.24646  21493967.2444   21493964.1044
       374.0844
  -3583136.11348  -2789607.19942  23666781.6114   23666777.6864
      1851.5354
 04  9 14 15 30  0.0020000  0  6G 1G11G14G22G25G20
  -3254964.15649  -2528197.19546  21584692.6044   21584690.1004
       522.9754
  -1196539.70349   -927578.28946  21741698.2054   21741694.0724
      -471.1104
   9347193.34448   7259604.13344  22722405.9634   22722402.3774
     -3549.0804
   9855303.02746   7654799.99642  24635114.7914   24635111.4824
     -3622.5264
  -3398913.07449  -2639431.58246  21492926.3854   21492923.2914
       364.6674
  -3610880.42648  -2811226.16043  23661501.9474   23661498.6004
      1849.6214
 04  9 14 15 30 15.0020000  0  6G 1G11G14G22G25G20
  -3262709.61349  -2534232.60946  21583218.7994   21583216.1074
       516.3644
  -1189320.96149   -921953.30946  21743071.8074   21743067.9794
      -481.2494
   9400479.29348   7301125.63344  22732545.6114   22732542.3774
     -3552.3974
   9909688.14546   7697177.96542  24645464.2684   24645460.1544
     -3625.6744
  -3404239.61749  -2643582.13346  21491912.6894   21491909.4554
       355.1034
  -3638593.69548  -2832820.91443  23656228.0574   23656224.7134
      1847.5514
 04  9 14 15 30 30.0020000  0  6G 1G11G14G22G25G20
  -3270357.14149  -2540191.72346  21581763.4634   21581761.0964
       509.8354
  -1181951.34049   -916210.75846  21744473.8304   21744470.0644
      -491.3084
   9453813.50448   7342684.74644  22742695.0024   22742691.7994
     -3555.6144
   9964119.35546   7739591.85942  24655822.2214   24655818.1624
     -3628.7474
  -3409423.85549  -2647621.79746  21490926.3074   21490923.1664
       345.6164
  -3666277.16848  -2854392.45743  23650960.6044   23650956.6274
      1845.5654
 04  9 14 15 30 45.0020000  0  6G 1G11G14G22G25G20
  -3277907.89549  -2546075.43046  21580326.4634   21580323.9434
       503.3844
  -1174431.87149   -910351.43746  21745905.1974   21745901.0064
      -501.2984
   9507194.58248   7384280.37144  22752853.2134   22752849.6074
     -3558.7394
  10018595.47747   7782040.72742  24666188.1504   24666184.9554
     -3631.7414
  -3414466.89549  -2651551.43446  21489966.5494   21489963.5574
       336.2034
  -3693931.79348  -2875941.52343  23645697.5254   23645694.2054
      1843.6424
 04  9 14 15 31  0.0020000  0  6G 1G11G14G22G25G20
  -3285361.09449  -2551883.11746  21578908.2834   21578905.8614
       496.8804
  -1166761.62949   -904374.63346  21747364.5884   21747360.7644
      -511.3494
   9560623.25848   7425913.09444  22763020.0724   22763016.5534
     -3561.9124
  10073117.27347   7824525.16442  24676564.4164   24676560.5104
     -3634.7864
  -3419367.73449  -2655370.26246  21489034.0494   21489030.7214
       326.7234
  -3721556.56648  -2897467.32043  23640441.0414   23640437.3894
      1841.6524
 04  9 14 15 31 15.0020000  0  6G 1G11G14G22G25G20
  -3292720.52749  -2557617.73846  21577507.6114   21577505.2914
       490.6294
  -1158944.35949   -898283.26646  21748852.3774   21748847.9674
      -521.1514
   9614095.53948   7467579.78944  22773195.4944   22773192.0684
     -3564.8194
  10127680.80147   7867042.18442  24686947.1664   24686943.2604
     -3637.5684
  -3424130.05949  -2659081.16446  21488127.6274   21488124.6004
       317.4884
  -3749155.32048  -2918972.85943  23635189.2604   23635185.6314
      1839.9174
 04  9 14 15 31 30.0020000  0  6G 1G11G14G22G25G20
  -3299986.07048  -2563279.19946  21576125.0414   21576122.5724
       484.3704
  -1150979.82048   -892077.13746  21750367.7914   21750363.6274
      -530.9694
   9667611.35247   7509280.41044  22783379.1584   22783375.9514
     -3567.7214
  10182286.30546   7909591.89142  24697338.5254   24697335.1234
     -3640.3674
  -3428753.40249  -2662683.75446  21487247.7914   21487244.5534
       308.2234
  -3776727.57048  -2940457.71943  23629942.3304   23629938.6974
      1838.1504
 04  9 14 15 31 45.0020000  0  6G 1G11G14G22G25G20
  -3307156.57049  -2568866.60246  21574760.5644   21574757.8464
       478.0334
  -1142866.85548   -885755.35246  21751911.4004   21751907.7294
      -540.8644
   9721171.75447   7551015.75844  22793571.7294   22793568.2644
     -3570.6934
  10236934.89547   7952175.14142  24707737.4084   24707734.8694
     -3643.2394
  -3433236.57449  -2666177.12946  21486394.9944   21486391.8144
       298.8784
  -3804272.10948  -2961921.00443  23624700.8224   23624697.1584
      1836.3034
 04  9 14 15 32  0.0020000  0  6G 1G11G14G22G25G20
  -3314233.72349  -2574381.26646  21573413.7754   21573411.0104
       471.8104
  -1134607.09049   -879319.17246  21753483.5334   21753479.5724
      -550.6514
   9774774.81648   7592784.36744  22803771.9474   22803768.4754
     -3573.5374
  10291624.87947   7994790.65642  24718144.4714   24718141.4904
     -3645.9994
  -3437580.88749  -2669562.30546  21485568.0574   21485564.9824
       289.6214
  -3831790.45748  -2983363.88343  23619464.4394   23619460.3614
      1834.5574
 04  9 14 15 32 15.0020000  0  6G 1G11G14G22G25G20
  -3321218.28149  -2579823.77746  21572084.6434   21572082.1894
       465.6374
  -1126201.16048   -872769.10946  21755083.2754   21755079.0614
      -560.3954
   9828419.46547   7634585.37944  22813979.6274   22813976.4394
     -3576.3104
  10346355.41846   8037437.77342  24728558.6114   24728556.4204
     -3648.7034
  -3441787.17249  -2672839.93446  21484767.5334   21484764.5184
       280.4194
  -3859283.37148  -3004786.93743  23614232.6434   23614228.7054
      1832.8614
 04  9 14 15 32 30.0020000  0  6G 1G11G14G22G25G20
  -3328112.06648  -2585195.55546  21570772.7914   21570770.2954
       459.5864
  -1117650.89548   -866106.58246  21756709.9084   21756706.1274
      -570.0184
   9882103.80547   7676417.30144  22824196.1744   22824192.3894
     -3578.9564
  10401124.75847   8080115.09842  24738981.8074   24738979.1974
     -3651.2894
  -3445856.96949  -2676011.20346  21483993.3074   21483989.9004
       271.3204
  -3886752.40648  -3026191.37543  23609005.0964   23609001.6824
      1831.2694
 04  9 14 15 32 45.0020000  0  6G 1G11G14G22G25G20
  -3334915.47348  -2590496.91046  21569478.4474   21569475.5684
       453.5604
  -1108956.52049   -859331.74646  21758364.5254   21758360.8854
      -579.6254
   9935827.27348   7718279.74644  22834419.1824   22834415.7684
     -3581.5654
  10455932.41447   8122822.30542  24749411.2684   24749409.0924
     -3653.8444
  -3449790.58649  -2679076.35246  21483244.4714   21483241.5184
       262.2414
  -3914197.66848  -3047577.30543  23603782.5804   23603779.3424
      1829.6844
 04  9 14 15 33  0.0020000  0  5G 1G11G14G25G20
  -3341628.44548  -2595727.80146  21568200.9324   21568197.9124
       447.5324
  -1100117.93748   -852444.55146  21760046.4944   21760042.5184
      -589.2394
   9989589.75848   7760172.56644  22844650.0804   22844646.6974
     -3584.1664
  -3453587.84449  -2682035.25046  21482522.0104   21482519.1354
       253.1514
  -3941619.00848  -3068944.57843  23598564.6354   23598561.1114
      1828.0894
 04  9 14 15 33 15.0020000  0  5G 1G11G14G25G20
  -3348251.41449  -2600888.54746  21566940.8384   21566937.8574
       441.5314
  -1091135.44148   -845445.21146  21761755.8614   21761752.0374
      -598.8334
  10043390.68048   7802095.34444  22854887.8934   22854884.6004
     -3586.7284
  -3457249.02049  -2684888.10546  21481825.2754   21481822.4004
       244.0784
  -3969016.71548  -3090293.43743  23593351.1114   23593347.3544
      1826.5144
 04  9 14 15 33 30.0020000  0  5G 1G11G14G25G20
  -3354785.97749  -2605980.42246  21565697.0574   21565694.5724
       435.6384
  -1082010.55549   -838334.91846  21763492.0964   21763488.5884
      -608.3264
  10097228.25448   7844046.69144  22865132.6894   22865129.5844
     -3589.1724
  -3460775.61349  -2687636.09446  21481154.2994   21481151.4364
       235.1064
  -3996392.28148  -3111625.05543  23588141.5104   23588137.6464
      1825.0384
 04  9 14 15 33 45.0020000  0  5G 1G11G14G25G20
  -3361231.14849  -2611002.62146  21564470.4944   21564468.0214
       429.6784
  -1072742.14148   -831112.78546  21765255.9864   21765252.2604
      -617.8944
  10151103.45747   7886027.35544  22875384.8304   22875381.4634
     -3591.6804
  -3464166.37549  -2690278.24646  21480508.9004   21480506.0294
       226.0514
  -4023744.43448  -3132938.42643  23582936.4794   23582933.1114
      1823.4774
 04  9 14 15 34  0.0020000  0  5G 1G11G14G25G20
  -3367587.15249  -2615955.35546  21563261.1194   21563258.2014
       423.7344
  -1063330.35548   -823778.93746  21767046.7754   21767042.9824
      -627.4524
  10205015.78948   7928036.94544  22885644.1894   22885640.7444
     -3594.1554
  -3467421.41849  -2692814.62946  21479889.7134   21479886.4394
       217.0034
  -4051073.26248  -3154233.61343  23577736.1114   23577732.4824
      1821.9224
 04  9 14 15 34 15.0020000  0  5G 1G11G14G25G20
  -3373853.83649  -2620838.48446  21562068.3544   21562065.9394
       417.7794
  -1053775.29348   -816333.44146  21768865.3614   21768861.4794
      -637.0044
  10258965.10548   7970075.35544  22895910.3464   22895906.8774
     -3596.6214
  -3470540.43449  -2695245.02746  21479296.0804   21479292.8964
       207.9344
  -4078378.62148  -3175510.52343  23572539.8144   23572536.4434
      1820.3574
 04  9 14 15 34 30.0020000  0  5G 1G11G14G25G20
  -3380031.62149  -2625652.34046  21560893.2294   21560890.4984
       411.8524
  -1044076.98049   -808776.32446  21770710.5964   21770706.5294
      -646.5544
  10312950.90248   8012142.20344  22906183.7994   22906180.3734
     -3599.0534
  -3473523.82849  -2697569.74646  21478728.3774   21478725.3694
       198.8934
  -4105660.62148  -3196769.22343  23567348.4554   23567344.7294
      1818.8004
 04  9 14 15 34 45.0020000  0  5G 1G11G14G25G20
  -3386123.71949  -2630399.42246  21559733.8224   21559730.8734
       406.1404
  -1034238.60548   -801110.06646  21772583.2214   21772578.9044
      -655.8924
  10366969.89848   8054234.90244  22916462.9244   22916460.0414
     -3601.2664
  -3476374.53549  -2699791.07446  21478185.6044   21478182.4124
       190.0474
  -4132922.35548  -3218012.12943  23562160.5104   23562156.7484
      1817.4494
 04  9 14 15 35  0.0020000  0  5G 1G11G14G25G20
  -3392129.92649  -2635079.58246  21558590.7914   21558587.9004
       400.4144
  -1024259.88349   -793334.44546  21774481.8934   21774477.7604
      -665.2484
  10421021.99248   8096353.39844  22926748.8224   22926745.6434
     -3603.4734
  -3479092.32849  -2701908.83246  21477668.5574   21477665.8224
       181.1864
  -4160163.57048  -3239239.05143  23556976.9474   23556973.2054
      1816.0814
 04  9 14 15 35 15.0020000  0  5G 1G11G14G25G20
  -3398052.05949  -2639694.23046  21557463.8854   21557461.3774
       394.8094
  -1014142.65249   -785450.90246  21776407.2054   21776403.4284
      -674.4824
  10475105.21548   8138496.16044  22937040.6584   22937037.0144
     -3605.5484
  -3481678.75849  -2703924.21946  21477176.2834   21477173.2364
       172.4294
  -4187385.74648  -3260451.13343  23551796.7214   23551792.6354
      1814.8124
 04  9 14 15 35 30.0020000  0  5G 1G11G14G25G20
  -3403888.87549  -2644242.39546  21556353.1114   21556350.3464
       389.1214
  -1003885.50449   -777458.32446  21778358.9944   21778355.3814
      -683.8104
  10529220.76248   8180664.11344  22947338.3614   22947335.1664
     -3607.7034
  -3484132.33249  -2705836.07846  21476709.5104   21476706.6274
       163.5724
  -4214587.41048  -3281647.24243  23546620.1044   23546616.2684
      1813.4444
 04  9 14 15 35 45.0020000  0  5G 1G11G14G25G20
  -3409640.30149  -2648724.02746  21555259.1194   21555255.9674
       383.4284
   -993488.31249   -769356.63346  21780337.5644   21780333.6504
      -693.1464
  10583368.48448   8222857.13344  22957642.4554   22957639.0764
     -3609.8484
  -3486452.89549  -2707644.30146  21476268.1974   21476264.7444
       154.7044
  -4241768.37548  -3302827.21543  23541447.7444   23541444.3934
      1812.0644
 04  9 14 15 36  0.0020000  0  5G 1G11G14G25G20
  -3415308.37149  -2653140.69946  21554180.1274   21554177.6504
       377.8714
   -982953.03149   -761147.32846  21782342.3934   21782338.7294
      -702.3524
  10637546.19548   8265073.51244  22967951.9084   22967948.6154
     -3611.8474
  -3488642.34049  -2709350.36346  21475850.9714   21475848.2484
       145.9634
  -4268930.59448  -3323992.58643  23536279.4794   23536275.6544
      1810.8154
 04  9 14 15 36 15.0020000  0  5G 1G11G14G25G20
  -3420893.58649  -2657492.81246  21553117.4794   21553114.3304
       372.3484
   -972280.16449   -752830.81646  21784373.4164   21784369.3304
      -711.5244
  10691753.16848   8307312.69944  22978267.9554   22978264.1154
     -3613.7984
  -3490701.12949  -2710954.61346  21475459.3614   21475456.4904
       137.2534
  -4296074.37548  -3345143.57843  23531114.0254   23531110.2324
      1809.5854
 04  9 14 15 36 30.0020000  0  5G 1G11G14G25G20
  -3426396.48449  -2661780.78146  21552069.9244   21552067.2214
       366.8604
   -961470.14549   -744407.43446  21786430.4554   21786426.6154
      -720.6684
  10745988.73848   8349574.17244  22988587.8384   22988584.6464
     -3615.7054
  -3492629.72349  -2712457.40646  21475092.4244   21475089.3304
       128.5734
  -4323200.06248  -3366280.47343  23525952.1044   23525948.5764
      1808.3794
 04  9 14 15 36 45.0020000  0  5G 1G11G14G25G20
  -3431816.34449  -2666004.04746  21551038.8144   21551036.0804
       361.3244
   -950522.18449   -735876.55946  21788513.6584   21788509.7524
      -729.8644
  10800253.57448   8391858.44144  22998914.2834   22998910.9514
     -3617.6564
  -3494427.14849  -2713857.99246  21474750.3074   21474747.4674
       119.8284
  -4350306.86348  -3387402.66843  23520793.7914   23520789.5724
      1807.1204
 04  9 14 15 37  0.0020000  0  5G 1G11G14G25G20
  -3437153.53949  -2670162.89846  21550023.0804   21550020.1974
       355.8134
   -939436.60949   -727238.46546  21790623.3224   21790619.4244
      -739.0384
  10854547.04348   8434165.03144  23009246.1354   23009242.8544
     -3619.5654
  -3496093.72749  -2715156.61746  21474433.4794   21474430.5184
       111.1054
  -4377394.88348  -3408510.21943  23515638.9474   23515635.2564
      1805.8684
 04  9 14 15 37 15.0020000  0  5G 1G11G14G25G20
  -3442409.97749  -2674258.81646  21549022.4714   21549020.1744
       350.4294
   -928215.25049   -718494.55946  21792758.7054   21792755.0334
      -748.0914
  10908867.10248   8476492.32844  23019582.4474   23019579.5804
     -3621.3374
  -3497631.20749  -2716354.65246  21474140.8384   21474137.9434
       102.4994
  -4404465.82048  -3429604.45743  23510487.9864   23510483.9864
      1804.7294
 04  9 14 15 37 30.0020000  0  6G 1G11G14G23G25G20
  -3447585.72749  -2678291.86346  21548037.9634   21548034.9864
       345.0504
   -916858.12149   -709644.85945  21794919.7754   21794916.2364
      -757.1424
  10963213.51648   8518840.16844  23029924.6824   23029921.3344
     -3623.0944
    -88559.28157    -61365.93052  24728659.0724   24728653.3504

  -3499039.48849  -2717452.00846  21473872.5964   21473869.6704
        93.8854
  -4431519.64548  -3450685.35543  23505339.4474   23505335.8964
      1803.5884
 04  9 14 15 37 45.0020000  0  6G 1G11G14G23G25G20
  -3452680.25849  -2682261.62546  21547068.3854   21547065.6234
       339.6354
   -905364.65649   -700688.93046  21797106.7524   21797102.8504
      -766.2314
  11017586.58248   8561208.78144  23040271.5334   23040268.2794
     -3624.8714
   -118599.11347    -84773.60242  24722942.5334   24722937.4824
      2002.6554
  -3500317.87149  -2718448.14146  21473629.7364   21473626.6434
        85.2264
  -4458555.67648  -3471752.40243  23500194.6824   23500191.1274
      1802.4024
 04  9 14 15 38  0.0020000  0  6G 1G11G14G23G25G20
  -3457693.10549  -2686167.73846  21546114.4244   21546111.7714
       334.1904
   -893734.17249   -691626.21946  21799320.5724   21799316.5534
      -775.3664
  11071986.74248   8603598.50444  23050623.1044   23050619.8964
     -3626.6774
   -148604.27747   -108154.25842  24717232.9004   24717227.7644
      2000.3444
  -3501465.85949  -2719342.66846  21473410.9394   21473407.8934
        76.5334
  -4485573.20348  -3492805.02043  23495053.8694   23495049.7954
      1801.1684
 04  9 14 15 38 15.0020000  0  6G 1G11G14G23G25G20
  -3462626.51649  -2690011.95746  21545175.5964   21545172.9324
       328.8944
   -881968.96549   -682458.53946  21801559.1504   21801555.4754
      -784.3474
  11126411.68048   8646007.52044  23060980.2914   23060976.8934
     -3628.3294
   -178576.81247   -131509.48442  24711529.7134   24711524.4474
      1998.1694
  -3502485.42649  -2720137.13746  21473216.9004   21473213.5764
        67.9714
  -4512574.16048  -3513844.72743  23489915.3614   23489911.8184
      1800.0644
 04  9 14 15 38 30.0020000  0  6G 1G11G14G23G25G20
  -3467480.57049  -2693794.34046  21544252.1274   21544249.2834
       323.6044
   -870069.01649   -673185.85546  21803823.6894   21803819.5614
      -793.3304
  11180861.10248   8688435.63344  23071341.7604   23071338.1584
     -3629.9614
   -208516.80147   -154839.36342  24705832.5104   24705826.4714
      1995.9994
  -3503376.48849  -2720831.46146  21473047.4864   21473044.3464
        59.4044
  -4539558.41848  -3534871.42243  23484780.8224   23484777.0494
      1798.9514
 04  9 14 15 38 45.0020000  0  6G 1G11G14G23G25G20
  -3472255.40249  -2697514.97746  21543343.4864   21543340.6314
       318.3224
   -858034.46549   -663808.29346  21806113.5574   21806109.7404
      -802.3034
  11235334.59048   8730882.49244  23081707.5884   23081704.0574
     -3631.5664
   -238424.42247   -178143.99642  24700140.2604   24700135.5884
      1993.8414
  -3504139.09049  -2721425.68446  21472902.4714   21472899.2324
        50.8404
  -4566526.19548  -3555885.27043  23479648.7134   23479644.8074
      1797.8524
 04  9 14 15 39  0.0020000  0  6G 1G11G14G23G25G20
  -3476950.08249  -2701173.16846  21542449.8854   21542447.2874
       312.9794
   -845864.30149   -654325.05946  21808429.5574   21808425.3654
      -811.3444
  11289833.16448   8773348.89544  23092078.7054   23092075.0254
     -3633.2384
   -268298.48845   -201422.47742  24694455.5644   24694450.7134
      1991.6044
  -3504772.27049  -2721919.08246  21472782.0884   21472778.8464
        42.2124
  -4593476.27748  -3576885.33643  23474519.9554   23474516.8964
      1796.6724
 04  9 14 15 39 15.0020000  0  6G 1G11G14G23G25G20
  -3481564.79749  -2704769.03946  21541571.7684   21541568.9124
       307.6484
   -833558.72749   -644736.31246  21810771.1824   21810767.3854
      -820.3724
  11344356.37548   8815834.51244  23102453.9004   23102450.5684
     -3634.8814
   -298139.07846   -224674.89142  24688777.0334   24688772.3304
      1989.3734
  -3505276.06649  -2722311.63346  21472685.8694   21472683.0614
        33.5864
  -4620408.65648  -3597871.60243  23469395.3614   23469391.5724
      1795.4924
 04  9 14 15 39 30.0020000  0  6G 1G11G14G23G25G20
  -3486097.52349  -2708301.03546  21540709.0414   21540706.5884
       302.1824
   -821115.78549   -635040.52746  21813139.1044   21813135.0024
      -829.5294
  11398906.04748   8858340.73044  23112834.1354   23112830.2874
     -3636.6454
   -327944.02346   -247899.52342  24683105.9794   24683100.8544
      1986.9964
  -3505648.32449  -2722601.69546  21472615.0644   21472612.0064
        24.8174
  -4647321.16848  -3618842.39543  23464273.6584   23464270.5764
      1794.1674
 04  9 14 15 39 45.0020000  0  6G 1G11G14G23G25G20
  -3490548.03149  -2711768.96546  21539862.5804   21539859.7754
       296.7014
   -808534.75849   -625237.13346  21815533.1354   21815529.1824
      -838.7354
  11453482.19548   8900867.59044  23123219.5494   23123216.0844
     -3638.4104
   -357712.98846   -271096.12542  24677440.8384   24677435.5684
      1984.5984
  -3505888.62149  -2722788.93446  21472569.2294   21472566.3544
        16.0204
  -4674213.32448  -3639797.31643  23459156.2524   23459152.9364
      1792.8104
 04  9 14 15 40  0.0020000  0  6G 1G11G14G23G25G20
  -3494917.53149  -2715173.76246  21539030.8464   21539028.2604
       291.3004
   -795817.03949   -615327.23446  21817953.4634   21817949.6824
      -847.8484
  11508083.59448   8943414.11744  23133610.1194   23133606.2214
     -3640.0934
   -387447.02345   -294265.50442  24671782.2754   24671777.4634
      1982.2694
  -3505998.07449  -2722874.21146  21472548.7994   21472545.6744
         7.2974
  -4701086.22348  -3660737.23843  23454042.5414   23454039.1394
      1791.5274
 04  9 14 15 40 15.0020000  0  6G 1G11G14G23G25G20
  -3499205.89849  -2718515.34446  21538214.9394   21538212.3934
       285.8914
   -782962.47749   -605310.69946  21820399.5644   21820395.6624
      -856.9714
  11562710.27348   8985980.34044  23144005.0334   23144001.8504
     -3641.7794
   -417145.99246   -317407.56242  24666130.1044   24666125.9474
      1979.9314
  -3505976.52049  -2722857.40646  21472552.5574   21472549.4674
        -1.4374
  -4727939.57048  -3681661.91443  23448932.7054   23448929.2054
      1790.2234
 04  9 14 15 40 30.0020000  0  6G 1G11G14G23G25G20
  -3503413.16849  -2721793.73046  21537414.1274   21537411.4904
       280.4854
   -769970.93449   -595187.43046  21822871.9394   21822867.6974
      -866.1034
  11617361.94948   9028566.05544  23154404.8464   23154401.8034
     -3643.4454
   -446809.79345   -340522.21142  24660486.1434   24660481.3144
      1977.5874
  -3505823.84049  -2722738.43446  21472581.7054   21472578.7214
       -10.1794
  -4754773.10948  -3702571.16843  23443826.5254   23443822.8544
      1788.9034
 04  9 14 15 40 45.0020000  0  6G 1G11G14G23G25G20
  -3507539.56249  -2725009.10546  21536629.0804   21536626.7994
       275.0934
   -756842.71949   -584957.66046  21825369.7524   21825365.9164
      -875.2144
  11672038.29748   9071170.98043  23164809.1744   23164806.1234
     -3645.0904
   -476438.53146   -363609.54742  24654848.4004   24654843.4714
      1975.2494
  -3505540.09449  -2722517.33246  21472636.0964   21472633.0254
       -18.9164
  -4781587.02048  -3723465.12543  23438724.4004   23438720.4394
      1787.5944
 04  9 14 15 41  0.0020000  0  6G 1G11G14G23G25G20
  -3511585.18049  -2728161.53146  21535859.3384   21535856.4434
       269.7084
   -743577.80149   -574621.37146  21827893.9794   21827889.8034
      -884.3284
  11726739.00048   9113794.89543  23175218.5884   23175215.4204
     -3646.7144
   -506032.18445   -386669.53142  24649216.9634   24649211.6464
      1972.9104
  -3505125.18749  -2722194.02746  21472714.5334   21472711.6664
       -27.6604
  -4808381.09048  -3744343.62143  23433625.2604   23433621.4204
      1786.2714
 04  9 14 15 41 15.0020000  0  6G 1G11G14G23G25G20
  -3515549.79749  -2731250.83646  21535104.7684   21535102.3734
       264.3084
   -730176.00849   -564178.43046  21830444.1504   21830440.1784
      -893.4534
  11781464.24248   9156437.92643  23185632.8694   23185629.2834
     -3648.3494
   -535590.43746   -409701.94542  24643591.1434   24643586.6464
      1970.5504
  -3504578.80949  -2721768.27046  21472818.5574   21472815.4984
       -36.4254
  -4835154.90248  -3765206.33643  23428529.9634   23428526.0884
      1784.9214
 04  9 14 15 41 30.0020000  0  6G 1G11G14G23G25G20
  -3519432.19949  -2734276.09046  21534365.7524   21534363.2604
       258.8274
   -716636.16449   -553627.91046  21833021.0334   21833016.9674
      -902.6564
  11836215.09048   9199100.91044  23196051.0964   23196048.1464
     -3650.0574
   -565111.95746   -432705.70742  24637973.5254   24637969.0064
      1968.1014
  -3503899.57849  -2721238.99246  21472947.7444   21472944.9324
       -45.2824
  -4861907.12548  -3786052.22343  23423439.4164   23423435.9474
      1783.4824
 04  9 14 15 41 45.0020000  0  6G 1G11G14G23G25G20
  -3523233.52049  -2737238.15246  21533642.6274   21533640.1584
       253.4214
   -702959.09849   -542970.46546  21835623.5024   21835619.6394
      -911.8044
  11890990.22348   9241782.82443  23206474.9394   23206471.1074
     -3651.6764
   -594597.64145   -455681.55142  24632362.8144   24632358.1464
      1965.7124
  -3503088.70749  -2720607.13346  21473102.0334   21473099.1314
       -54.0584
  -4888638.64148  -3806881.97343  23418352.5964   23418348.9594
      1782.1014
 04  9 14 15 42  0.0020000  0  6G 1G11G14G23G25G20
  -3526953.58649  -2740136.90246  21532934.9244   21532932.1504
       248.0044
   -689144.60949   -532205.94146  21838252.4944   21838248.6464
      -920.9664
  11945789.70348   9284483.69544  23216902.9004   23216899.2214
     -3653.2994
   -624047.35546   -478629.38342  24626759.2914   24626754.6504
      1963.3144
  -3502145.83649  -2719872.43046  21473281.8464   21473278.7994
       -62.8584
  -4915349.05148  -3827695.27743  23413270.0024   23413266.2484
      1780.6944
 04  9 14 15 42 15.0020000  0  6G 1G11G14G23G25G20
  -3530593.27049  -2742973.01646  21532241.7914   21532239.2094
       242.6464
   -675193.64149   -521335.06646  21840907.3544   21840903.2794
      -930.0654
  12000612.53148   9327202.76644  23227335.5024   23227331.8894
     -3654.8554
   -653461.73146   -501549.72342  24621161.7524   24621157.1004
      1960.9584
  -3501071.59449  -2719035.34446  21473486.3144   21473482.8344
       -71.6164
  -4942039.05548  -3848492.68743  23408190.9474   23408187.0024
      1779.3344
 04  9 14 15 42 30.0020000  0  6G 1G11G14G23G25G20
  -3534151.36349  -2745745.55946  21531565.1664   21531562.4394
       237.2064
   -661105.00049   -510356.91446  21843588.1434   21843584.2684
      -939.2434
  12055459.72748   9369940.82043  23237772.5254   23237768.8384
     -3656.4804
   -682839.62546   -524441.53542  24615571.1044   24615566.4984
      1958.5264
  -3499864.66049  -2718094.87146  21473715.7524   21473712.8654
       -80.4624
  -4968707.34048  -3869273.15643  23403116.2444   23403112.6504
      1777.8864
 04  9 14 15 42 45.0020000  0  6G 1G11G14G23G25G20
  -3537628.65649  -2748455.12946  21530903.5104   21530900.4434
       231.8204
   -646879.30949   -499271.96946  21846295.2444   21846291.7404
      -948.3794
  12110330.47348   9412697.23044  23248214.0024   23248210.4514
     -3658.0504
   -712181.55547   -547305.37142  24609987.4864   24609982.3544
      1956.1294
  -3498525.76649  -2717051.57046  21473970.6274   21473967.2324
       -89.2604
  -4995354.47348  -3890037.16443  23398045.4554   23398041.6894
      1776.4764
 04  9 14 15 43  0.0020000  0  6G 1G11G14G23G25G20
  -3541025.14549  -2751101.75046  21530256.9474   21530254.2444
       226.4334
   -632516.55549   -488080.22746  21849028.3934   21849024.7214
      -957.5174
  12165224.57048   9455471.84844  23258659.9244   23258656.6434
     -3659.6074
   -741487.49247   -570141.18042  24604410.9004   24604405.9754
      1953.7294
  -3497054.71949  -2715905.29346  21474250.8224   21474247.2444
       -98.0704
  -5021980.31648  -3910784.56643  23392978.5104   23392974.8224
      1775.0564
 04  9 14 15 43 15.0020000  0  6G 1G11G14G23G25G20
  -3544341.08249  -2753685.59046  21529626.2054   21529623.4714
       221.0634
   -618016.77049   -476781.71146  21851787.6824   21851783.4944
      -966.6524
  12220141.66848   9498264.37544  23269110.0724   23269106.8544
     -3661.1404
   -770757.50047   -592948.96542  24598840.6354   24598835.8344
      1951.3344
  -3495451.74249  -2714656.21146  21474555.2684   21474552.4434
      -106.8654
  -5048584.75848  -3931515.30143  23387916.0414   23387912.1044
      1773.6294
 04  9 14 15 43 30.0020000  0  6G 1G11G14G23G25G20
  -3547576.19149  -2756206.45346  21529010.2054   21529007.5064
       215.6744
   -603379.85949   -465376.33246  21854572.9944   21854569.1704
      -975.7944
  12275081.85248   9541074.89543  23279564.9474   23279561.8114
     -3662.6794
   -799991.27047   -615728.54342  24593278.3384   24593272.9904
      1948.9184
  -3493716.41449  -2713304.00046  21474885.6744   21474882.7014
      -115.6894
  -5075167.41848  -3952229.06244  23382857.7444   23382853.6664
      1772.1774
 04  9 14 15 43 45.0020000  0  6G 1G11G14G23G25G20
  -3550730.34449  -2758664.23446  21528410.1274   21528407.5614
       210.2774
   -588605.68449   -453863.99646  21857384.5724   21857380.6974
      -984.9454
  12330045.22748   9583903.46944  23290024.3464   23290021.1394
     -3664.2254
   -829188.54347   -638479.65642  24587721.9634   24587717.0414
      1946.4854
  -3491848.44549  -2711848.43046  21475240.9794   21475238.0494
      -124.5314
  -5101727.89548  -3972925.53944  23377802.9794   23377799.4044
      1770.6984
 04  9 14 15 44  0.0020000  0  6G 1G11G14G23G25G20
  -3553803.06249  -2761058.55546  21527825.2684   21527822.7604
       204.8484
   -573693.66049   -442244.25046  21860222.2134   21860218.0884
      -994.1354
  12385032.11348   9626750.37944  23300487.5884   23300484.7444
     -3665.7924
   -858348.69947   -661201.85542  24582173.1584   24582168.1894
      1944.0104
  -3489847.33249  -2710289.11746  21475621.7364   21475618.9084
      -133.4084
  -5128265.50848  -3993604.19543  23372753.4004   23372749.6544
      1769.1744
 04  9 14 15 44 15.0020000  0  6G 1G11G14G23G25G20
  -3556792.64549  -2763388.09446  21527256.5334   21527253.8504
       199.3054
   -558641.91049   -430515.62946  21863086.6114   21863082.7054
     -1003.4504
  12440044.00848   9669616.77044  23310956.3464   23310952.7834
     -3667.4604
   -887469.86747   -683893.68442  24576631.9164   24576625.3184
      1941.4114
  -3487711.16049  -2708624.56646  21476028.5414   21476025.2054
      -142.4114
  -5154778.35548  -4014263.55543  23367708.1584   23367704.4084
      1767.5234
 04  9 14 15 44 30.0020000  0  6G 1G11G14G23G25G20
  -3559699.92249  -2765653.50846  21526703.0414   21526700.3614
       193.8184
   -543451.31649   -418678.80546  21865977.0644   21865973.4124
     -1012.7064
  12495080.03948   9712501.98443  23321429.5644   23321426.5214
     -3669.0694
   -916552.77047   -706555.69542  24571097.1824   24571091.3344
      1938.8604
  -3485440.73849  -2706855.40646  21476460.4794   21476457.5534
      -151.3614
  -5181267.12948  -4034904.16043  23362667.3694   23362663.8774
      1765.9184
 04  9 14 15 44 45.0020000  0  6G 1G11G14G23G25G20
  -3562526.79349  -2767856.25846  21526165.0414   21526162.4004
       188.4584
   -528123.66049   -406735.19146  21868893.9164   21868889.9474
     -1021.8444
  12550138.18048   9755404.41044  23331906.1744   23331903.4714
     -3670.5434
   -945599.11747   -729189.21142  24565570.2834   24565564.3144
      1936.4234
  -3483037.83249  -2704983.00446  21476917.7914   21476914.7364
      -160.1944
  -5207733.46148  -4055527.28544  23357631.0024   23357627.3304
      1764.4224
 04  9 14 15 45  0.0020000  0  6G 1G11G14G23G25G20
  -3565271.84449  -2769995.26646  21525643.0104   21525640.2874
       183.0034
   -512657.60949   -394683.73446  21871837.2134   21871832.7794
     -1031.0704
  12605219.73048   9798325.07843  23342388.4394   23342385.3034
     -3672.1034
   -974607.55146   -751793.19942  24560050.0964   24560044.5964
      1933.8964
  -3480500.94949  -2703006.20746  21477400.5414   21477397.2404
      -169.1264
  -5234175.87148  -4076131.75844  23352598.7834   23352595.8224
      1762.8274
 04  9 14 15 45 15.0020000  0  6G 1G11G14G23G25G20
  -3567933.75849  -2772069.48046  21525136.5494   21525133.6974
       177.4614
   -497051.84849   -382523.41846  21874806.7294   21874802.5684
     -1040.3844
  12660325.82048   9841264.86743  23352874.7524   23352871.4084
     -3673.7394
  -1003576.55946   -774366.44142  24554536.8614   24554532.2644
      1931.2674
  -3477828.54749  -2700923.81246  21477908.7134   21477905.7644
      -178.1604
  -5260592.71948  -4096716.30543  23347572.2214   23347568.4904
      1761.1234
 04  9 14 15 45 30.0020000  0  6G 1G11G14G23G25G20
  -3570512.80149  -2774079.12946  21524645.5334   21524642.7834
       171.9364
   -481306.72349   -370254.49246  21877802.8384   21877798.7834
     -1049.6754
  12715456.09448   9884223.50843  23363365.9554   23363362.2404
     -3675.3524
  -1032506.46147   -796909.20742  24549031.8144   24549026.8544
      1928.6604
  -3475021.00049  -2698736.10946  21478443.3774   21478439.7714
      -187.1704
  -5286984.19547  -4117281.09443  23342550.2054   23342546.9124
      1759.4324
 04  9 14 15 45 45.0020000  0  6G 1G11G14G23G25G20
  -3573009.98449  -2776024.97746  21524170.1584   21524167.9794
       166.4794
   -465423.04749   -357877.61746  21880825.1044   21880821.4284
     -1058.9124
  12770609.39548   9927200.09843  23373860.4474   23373857.8224
     -3676.8874
  -1061397.95746   -819422.06642  24543533.9394   24543528.5374
      1926.1004
  -3472079.05149  -2696443.67646  21479003.3074   21478999.7604
      -196.1304
  -5313350.98447  -4137826.64844  23337532.7054   23337529.3934
      1757.7864
 04  9 14 15 46  0.0020000  0  6G 1G11G14G23G25G20
  -3575424.24249  -2777906.21546  21523710.8384   21523708.5844
       160.9514
   -449399.73049   -345391.92646  21883874.3544   21883870.5724
     -1068.2214
  12825786.59048   9970195.29343  23384360.6664   23384357.6154
     -3678.4804
  -1090249.93746   -841904.13742  24538043.0334   24538038.5644
      1923.4654
  -3469001.52749  -2694045.59046  21479588.6824   21479585.6624
      -205.1684
  -5339691.78948  -4158351.94544  23332520.3774   23332516.8344
      1756.0544
 04  9 14 15 46 15.0020000  0  6G 1G11G14G23G25G20
  -3577756.99649  -2779723.94546  21523266.8934   21523264.5064
       155.5174
   -433238.16449   -332798.50846  21886949.7054   21886946.1004
     -1077.4384
  12880986.32448  10013208.03943  23394865.2054   23394862.1044
     -3679.9824
  -1119063.65247   -864356.37542  24532560.5574   24532555.1464
      1920.9144
  -3465789.74649  -2691542.89546  21480199.9864   21480196.9634
      -214.1194
  -5366007.82848  -4178857.95344  23327512.6894   23327508.8694
      1754.4034
 04  9 14 15 46 30.0020000  0  6G 1G11G14G23G25G20
  -3580007.47749  -2781477.56246  21522838.9004   21522836.3384
       150.0324
   -416937.52049   -320096.72346  21890051.8384   21890047.8304
     -1086.7104
  12936209.15648  10056238.80543  23405373.2684   23405370.4124
     -3681.5224
  -1147838.19146   -886778.08243  24527084.7914   24527079.7054
      1918.3034
  -3462442.91849  -2688934.97346  21480836.9164   21480833.8464
      -223.1224
  -5392298.16448  -4199343.92644  23322509.4164   23322505.6584
      1752.6894
 04  9 14 15 46 45.0020000  0  6G 1G11G14G23G25G20
  -3582174.87949  -2783166.44546  21522426.2364   21522424.1584
       144.4934
   -400497.05149   -307285.97746  21893180.3074   21893176.6194
     -1096.0314
  12991455.71948  10099288.04343  23415886.4324   23415883.7754
     -3683.1044
  -1176572.76646   -909168.66042  24521617.1274   24521612.0494
      1915.6384
  -3458960.15649  -2686221.12546  21481499.5804   21481496.5614
      -232.1844
  -5418561.76247  -4219809.06244  23317511.6504   23317508.4474
      1750.9074
 04  9 14 15 47  0.0020000  0  6G 1G11G14G23G25G20
  -3584261.49249  -2784792.37546  21522029.0494   21522026.5844
       139.1084
   -383919.03549   -294368.04746  21896335.1584   21896331.2254
     -1105.2014
  13046723.71548  10142354.00043  23426403.8774   23426400.5644
     -3684.5334
  -1205269.40646   -931529.67642  24516155.7914   24516151.1824
      1913.1094
  -3455343.55949  -2683402.99246  21482187.9474   21482184.6744
      -241.1074
  -5444800.68748  -4240254.98444  23312518.6274   23312515.1394
      1749.2624
 04  9 14 15 47 15.0020000  0  6G 1G11G14G23G25G20
  -3586265.84049  -2786354.20746  21521647.7684   21521645.0804
       133.6234
   -367201.90649   -281341.72746  21899516.5104   21899512.4594
     -1114.4754
  13102014.37148  10185437.61343  23436925.2524   23436921.9324
     -3686.0444
  -1233926.59047   -953859.94942  24510703.0644   24510697.1784
      1910.4794
  -3451591.50849  -2680479.31246  21482901.6274   21482898.6114
      -250.1374
  -5471013.33648  -4260680.41443  23307530.6194   23307527.3264
      1747.5104
 04  9 14 15 47 30.0020000  0  6G 1G11G14G23G25G20
  -3588189.24649  -2787852.96146  21521281.8854   21521279.2564
       128.2274
   -350346.94149   -268208.00046  21902723.6584   21902719.7174
     -1123.6644
  13157326.38748  10228537.86743  23447450.5964   23447447.4824
     -3687.4684
  -1262545.56246   -976160.44142  24505257.0184   24505252.1154
      1907.9324
  -3447705.35549  -2677451.14146  21483641.1584   21483638.0884
      -259.0774
  -5497200.77748  -4281086.21544  23302547.6894   23302543.9124
      1745.8294
 04  9 14 15 47 45.0020000  0  6G 1G11G14G23G25G20
  -3590031.53149  -2789288.50446  21520931.1974   21520928.4594
       122.8194
   -333353.96549   -254966.72345  21905957.3854   21905953.5024
     -1132.8654
  13212659.77348  10271654.77743  23457979.8774   23457977.2404
     -3688.8924
  -1291125.94946   -998430.85942  24499818.3224   24499813.5184
      1905.3594
  -3443684.73449  -2674318.18446  21484406.2834   21484403.3734
      -268.0414
  -5523362.55548  -4301472.02043  23297569.0184   23297564.9514
      1744.1184
 04  9 14 15 48  0.0020000  0  6G 1G11G14G23G25G20
  -3591792.58249  -2790660.75046  21520596.0184   21520593.5254
       117.4034
   -316222.69949   -241617.70346  21909217.4794   21909213.4904
     -1142.0844
  13268014.58648  10314788.35943  23468513.9714   23468510.8544
     -3690.3214
  -1319667.49646  -1020671.02742  24494386.7134   24494381.8934
      1902.7704
  -3439529.37149  -2671080.23446  21485197.0104   21485193.7754
      -277.0244
  -5549498.38348  -4321837.59044  23292595.2444   23292591.5454
      1742.3894
 04  9 14 15 48 15.0020000  0  6G 1G11G14G23G25G20
  -3593472.85949  -2791970.05946  21520276.6504   21520273.7214
       112.0184
   -298953.72749   -228161.37546  21912503.1114   21912499.4514
     -1151.2654
  13323390.25448  10357938.21543  23479051.6974   23479048.4794
     -3691.7114
  -1348170.58246  -1042881.19942  24488962.5104   24488958.1584
      1900.2064
  -3435239.69949  -2667737.63346  21486013.0184   21486010.4904
      -285.9784
  -5575608.39847  -4342183.06244  23287626.9474   23287622.9394
      1740.6684
 04  9 14 15 48 30.0020000  0  6G 1G11G14G23G25G20
  -3595072.11349  -2793216.22346  21519972.2834   21519969.5064
       106.6174
   -281546.84449   -214597.57846  21915815.9634   21915811.9244
     -1160.4594
  13378786.88748  10401104.40643  23489593.1434   23489590.3574
     -3693.1094
  -1376634.85247  -1065061.14842  24483546.2994   24483541.6394
      1897.6184
  -3430815.45349  -2664290.15646  21486855.2444   21486852.4754
      -294.9504
  -5601692.21148  -4362508.09844  23282663.0574   23282659.2874
      1738.9214
 04  9 14 15 48 45.0020000  0  6G 1G11G14G23G25G20
  -3596589.09049  -2794398.28546  21519683.3934   21519680.6584
       101.1324
   -264000.63749   -200925.21946  21919154.9714   21919150.8654
     -1169.7474
  13434205.59448  10444287.78543  23500139.6894   23500136.0144
     -3694.5804
  -1405058.87547  -1087209.74642  24478137.7444   24478132.5494
      1894.9354
  -3426255.27049  -2660736.75446  21487723.0184   21487720.3654
      -304.0124
  -5627748.43747  -4382811.65643  23277704.8464   23277701.1314
      1737.0824
 04  9 14 15 49  0.0020000  0  6G 1G11G14G23G25G20
  -3598024.40649  -2795516.70746  21519410.4004   21519407.4824
        95.6884
   -246315.68049   -187144.74645  21922520.2214   21922516.3424
     -1178.9974
  13489645.64548  10487487.82043  23510689.0574   23510685.7644
     -3696.0034
  -1433443.28147  -1109327.46142  24472736.1274   24472731.0144
      1892.2944
  -3421559.64149  -2657077.82446  21488616.6194   21488613.5184
      -313.0424
  -5653777.40248  -4403093.96944  23272751.0644   23272747.8074
      1735.2644
 04  9 14 15 49 15.0020000  0  6G 1G11G14G23G25G20
  -3599378.33649  -2796571.72346  21519152.5804   21519149.8464
        90.2624
   -228492.39549   -173256.48045  21925911.9394   21925907.7404
     -1188.2194
  13545106.54348  10530704.09443  23521243.1354   23521239.2524
     -3697.3934
  -1461788.24647  -1131414.43042  24467342.3934   24467337.1744
      1889.6644
  -3416728.81249  -2653313.54346  21489535.7604   21489532.7324
      -322.0554
  -5679779.26247  -4423355.15644  23267803.3464   23267800.0374
      1733.4574
 04  9 14 15 49 30.0020000  0  6G 1G11G14G23G25G20
  -3600651.97749  -2797564.17246  21518910.5414   21518907.6784
        84.9094
   -210531.84849   -159261.26246  21929329.3774   21929325.9204
     -1197.3704
  13600587.15248  10573935.71543  23531800.8464   23531797.4674
     -3698.7074
  -1490094.63347  -1153471.34442  24461955.4714   24461950.9984
      1887.0924
  -3411763.66849  -2649444.59046  21490480.4794   21490477.6864
      -331.0104
  -5705754.87947  -4443595.88744  23262860.4794   23262856.8574
      1731.7084
 04  9 14 15 49 45.0020000  0  6G 1G11G14G23G25G20
  -3601844.01249  -2798493.02346  21518683.7754   21518680.3114
        79.4694
   -192432.61749   -145157.97746  21932773.7754   21932770.1824
     -1206.6154
  13656088.69148  10617183.66443  23542362.1194   23542358.6974
     -3700.1034
  -1518361.05947  -1175497.12943  24456576.5334   24456571.9394
      1884.4284
  -3406662.82449  -2645469.91046  21491451.3464   21491447.9554
      -340.0564
  -5731702.60248  -4463814.89844  23257923.1824   23257919.2714
      1729.8484
 04  9 14 15 50  0.0020000  0  6G 1G11G14G23G25G20
  -3602954.46149  -2799358.30946  21518471.9634   21518469.3544
        74.0304
   -174194.68449   -130946.61346  21936244.4084   21936240.3894
     -1215.8624
  13711611.11348  10660447.84843  23552927.6114   23552925.1354
     -3701.4954
  -1546587.43447  -1197491.69942  24451205.5334   24451200.3694
      1881.7584
  -3401426.26249  -2641389.46146  21492447.7444   21492444.4284
      -349.1044
  -5757622.25448  -4484012.02744  23252990.4554   23252987.1074
      1727.9774
 04  9 14 15 50 15.0020000  0  6G 1G11G14G23G25G20
  -3603983.34449  -2800160.03146  21518276.4084   21518273.8074
        68.5924
   -155818.19549   -116627.28146  21939741.2994   21939737.5644
     -1225.0994
  13767154.27748  10703728.21543  23563497.8224   23563494.0294
     -3702.8784
  -1574773.67247  -1219454.99243  24445841.3144   24445836.8114
      1879.0834
  -3396053.90249  -2637203.20346  21493470.0574   21493467.0724
      -358.1574
  -5783513.62948  -4504187.11744  23248064.1664   23248060.0494
      1726.0924
 04  9 14 15 50 30.0020000  0  6G 1G11G14G23G25G20
  -3604929.03149  -2800896.93446  21518096.5494   21518093.7914
        63.0464
   -137301.41849   -102198.64146  21943265.0724   21943260.9124
     -1234.4524
  13822719.68848  10747025.94143  23574071.3224   23574068.1784
     -3704.3614
  -1602917.96947  -1241385.60243  24440485.8774   24440481.1744
      1876.2864
  -3390544.08249  -2632909.83246  21494518.7214   21494515.4244
      -367.3214
  -5809374.88748  -4524338.75444  23243142.6274   23243138.5024
      1724.0844
 04  9 14 15 50 45.0020000  0  6G 1G11G14G23G25G20
  -3605795.05149  -2801571.75046  21517931.3304   21517928.8034
        57.7354
   -118647.91049    -87663.45745  21946814.4004   21946810.6934
     -1243.5674
  13878303.73848  10790338.16843  23584648.7444   23584645.3144
     -3705.6034
  -1631023.70347  -1263286.16043  24435137.8074   24435132.4754
      1873.7164
  -3384900.21149  -2628511.99646  21495592.5334   21495589.6004
      -376.2584
  -5835209.27748  -4544469.44144  23238226.1584   23238222.4794
      1722.2934
 04  9 14 15 51  0.0020000  0  6G 1G11G14G23G25G20
  -3606580.45749  -2802183.75446  21517782.3464   21517779.4904
        52.3604
    -99856.63749    -73020.91446  21950390.4004   21950386.6114
     -1252.7524
  13933907.24248  10833665.55943  23595229.2444   23595226.3264
     -3706.9004
  -1659089.91447  -1285155.93443  24429796.7444   24429791.8424
      1871.0814
  -3379121.33649  -2624008.97746  21496692.4864   21496689.2324
      -385.2584
  -5861015.78548  -4564578.41444  23233315.5334   23233312.0184
      1720.4344
 04  9 14 15 51 15.0020000  0  6G 1G11G14G23G25G20
  -3607283.66449  -2802731.70746  21517648.3224   21517645.5684
        46.8804
    -80925.94549    -58269.73445  21953992.6664   21953989.1504
     -1262.0464
  13989531.69948  10877009.24643  23605814.5804   23605811.1274
     -3708.2974
  -1687114.78147  -1306993.48442  24424463.7754   24424458.7214
      1868.3244
  -3373205.73449  -2619399.41846  21497817.9794   21497814.8814
      -394.3734
  -5886792.41448  -4584664.09444  23228410.5254   23228406.7094
      1718.4424
 04  9 14 15 51 30.0020000  0  6G 1G11G14G23G25G20
  -3607903.18449  -2803214.44946  21517530.2914   21517528.0614
        41.3014
    -61854.39149    -43408.80146  21957621.8614   21957618.1354
     -1271.4374
  14045178.38348  10920370.28943  23616403.7684   23616400.2754
     -3709.7794
  -1715096.72747  -1328797.58643  24419138.5254   24419133.4674
      1865.4634
  -3367151.68049  -2614681.96946  21498969.9554   21498966.8464
      -403.6044
  -5912537.51648  -4604725.21144  23223511.2524   23223507.7994
      1716.3404
 04  9 14 15 51 45.0020000  0  6G 1G11G14G23G25G20
  -3608441.44149  -2803633.87546  21517428.0884   21517425.1234
        35.8844
    -42644.31649    -28439.92246  21961277.5724   21961273.5534
     -1280.6724
  14100844.96548  10963746.83243  23626997.0574   23626993.3894
     -3711.1054
  -1743038.12147  -1350570.09843  24413822.0254   24413816.8774
      1862.7604
  -3360961.48849  -2609858.43046  21500148.1894   21500144.7954
      -412.6794
  -5938253.31248  -4624763.48844  23218617.9794   23218614.3034
      1714.3864
 04  9 14 15 52  0.0020000  0  6G 1G11G14G23G25G20
  -3608897.72749  -2803989.41446  21517341.1664   21517338.2254
        30.4194
    -23295.17649    -13362.67645  21964959.6274   21964955.8424
     -1289.9434
  14156531.93048  11007139.25043  23637593.5884   23637590.7564
     -3712.4644
  -1770938.12147  -1372310.35943  24408512.7444   24408508.2714
      1860.0004
  -3354634.43049  -2604928.25446  21501351.8934   21501348.8384
      -421.8044
  -5963938.80148  -4644778.15644  23213729.8074   23213726.4864
      1712.3664
 04  9 14 15 52 15.0020000  0  6G 1G11G14G23G25G20
  -3609271.59049  -2804280.73446  21517269.9634   21517267.1584
        24.9244
     -3806.52349      1823.27346  21968668.4164   21968664.4794
     -1299.2434
  14212239.64548  11050547.84043  23648194.6664   23648191.4324
     -3713.8484
  -1798796.08647  -1394017.85943  24403211.6974   24403206.8184
      1857.1984
  -3348170.07049  -2599891.08646  21502582.0414   21502579.1744
      -430.9574
  -5989593.42248  -4664768.76244  23208847.8854   23208844.4004
      1710.3084
 04  9 14 15 52 30.0020000  0  6G 1G11G14G23G25G20
  -3609563.87549  -2804508.48846  21517214.0964   21517211.3894
        19.4864
     15820.90249     17117.35546  21972403.4714   21972399.2914
     -1308.4954
  14267967.29348  11093971.94943  23658799.2444   23658796.4634
     -3715.1774
  -1826612.75847  -1415693.17243  24397918.0494   24397913.2994
      1854.4454
  -3341569.16449  -2594747.51646  21503838.2914   21503835.4634
      -440.0604
  -6015217.68048  -4684735.71944  23203971.7994   23203967.9124
      1708.2844
 04  9 14 15 52 45.0030000  0  6G 1G11G14G23G25G20
  -3609774.34849  -2804672.49646  21517174.3664   21517171.6554
        14.0324
     35588.73849     32520.85246  21976165.2574   21976161.0194
     -1317.8564
  14323718.69148  11137414.59043  23669408.4444   23669405.3974
     -3716.7604
  -1854389.59447  -1437337.45342  24392633.3124   24392627.6554
      1851.7894
  -3334830.73849  -2589496.78546  21505120.4834   21505117.3234
      -449.2284
  -6040812.83648  -4704679.98844  23199101.1474   23199097.6554
      1706.3444
 04  9 14 15 53  0.0030000  0  6G 1G11G14G23G25G20
  -3609903.60949  -2804773.21946  21517150.0304   21517146.9954
         8.6174
     55493.59449     48031.11746  21979952.7414   21979948.8904
     -1326.9904
  14379485.55548  11180869.26243  23680020.5774   23680016.8974
     -3717.7914
  -1882123.54747  -1458948.32043  24387355.2964   24387350.0894
      1848.9304
  -3327956.41049  -2584140.16846  21506428.5694   21506425.7654
      -458.2894
  -6066375.84848  -4724599.21544  23194236.6474   23194233.3944
      1704.2014
 04  9 14 15 53 15.0030000  0  6G 1G11G14G23G25G20
  -3609952.30149  -2804811.15646  21517140.5074   21517137.8744
         3.2464
     75536.11749     63648.65646  21983766.6474   21983762.8194
     -1336.1684
  14435270.95748  11224338.40643  23690636.2804   23690632.4914
     -3719.0274
  -1909816.83647  -1480527.48443  24382084.7104   24382080.4994
      1846.2194
  -3320946.31649  -2578677.75046  21507762.4524   21507759.6904
      -467.3404
  -6091908.80948  -4744495.02044  23189377.6474   23189374.7264
      1702.1974
 04  9 14 15 53 30.0030000  0  6G 1G11G14G23G25G20
  -3609918.85249  -2804785.09446  21517146.5304   21517144.1554
        -2.2304
     95717.99649     79374.78146  21987607.2024   21987603.4954
     -1345.4594
  14491076.44148  11267823.18443  23701255.6014   23701251.9254
     -3720.3664
  -1937467.81247  -1502073.67643  24376823.2184   24376818.2144
      1843.3984
  -3313798.78549  -2573108.23846  21509122.7184   21509119.7144
      -476.5024
  -6117409.99648  -4764366.07844  23184525.2884   23184521.5114
      1700.0794
 04  9 14 15 53 45.0030000  0  6G 1G11G14G23G25G20
  -3609804.85549  -2804696.25846  21517168.4834   21517165.8704
        -7.6004
    116037.53549     95208.18046  21991473.7964   21991470.1594
     -1354.6364
  14546900.13348  11311322.15643  23711878.2724   23711875.4524
     -3721.5794
  -1965078.05547  -1523588.15243  24371569.5464   24371564.1554
      1840.6834
  -3306515.30949  -2567432.79346  21510508.6874   21510505.6364
      -485.5654
  -6142880.85248  -4784213.49244  23179678.1324   23179674.8084
      1698.0574
 04  9 14 15 54  0.0030000  0  6G 1G11G14G23G25G20
  -3609609.97349  -2804544.40646  21517205.5154   21517202.8234
       -12.9924
    136495.08249    111149.11746  21995366.7414   21995363.0734
     -1363.8364
  14602742.39848  11354835.57443  23722504.9524   23722501.6204
     -3722.8184
  -1992647.01647  -1545070.44942  24366322.9994   24366317.8544
      1837.9314
  -3299095.61749  -2561651.20746  21511920.5624   21511917.8004
      -494.6464
  -6168320.62948  -4804036.69544  23174837.2264   23174833.8624
      1695.9854
 04  9 14 15 54 15.0030000  0  6G 1G11G14G23G25G20
  -3609334.04349  -2804329.39846  21517258.2884   21517255.4684
       -18.3954
    157090.82849    127197.74246  21999286.0694   21999282.6164
     -1373.0504
  14658603.17648  11398363.44143  23733134.2574   23733131.2884
     -3724.0524
  -2020174.41447  -1566520.36342  24361084.1404   24361079.7454
      1835.1604
  -3291539.31649  -2555763.17646  21513358.3974   21513355.5154
      -503.7534
  -6193729.03948  -4823835.45344  23170002.3124   23169998.3624
      1693.8944
 04  9 14 15 54 30.0030000  0  6G 1G11G14G23G25G20
  -3608976.55949  -2804050.83246  21517325.7334   21517323.2374
       -23.8324
    177825.43849    143354.56346  22003231.8434   22003228.0694
     -1382.3074
  14714483.06648  11441906.18043  23743768.6474   23743765.0224
     -3725.3264
  -2047659.60547  -1587937.37942  24355854.0624   24355849.3474
      1832.3464
  -3283845.85549  -2549768.27346  21514822.5074   21514819.5694
      -512.8974
  -6219105.31248  -4843609.17244  23165173.5544   23165169.5544
      1691.7524
 04  9 14 15 54 45.0030000  0  6G 1G11G14G23G25G20
  -3608537.43449  -2803708.65646  21517409.6634   21517406.8124
       -29.2754
    198698.85249    159619.55146  22007203.8514   22007200.2144
     -1391.5614
  14770382.06348  11485463.81643  23754405.9374   23754402.2494
     -3726.6004
  -2075102.27347  -1609321.26642  24350632.0774   24350627.4054
      1829.5114
  -3276015.12949  -2543666.40246  21516312.7104   21516309.6594
      -522.0484
  -6244449.07048  -4863357.55144  23160350.5074   23160346.8664
      1689.5844
 04  9 14 15 55  0.0030000  0  6G 1G11G14G23G25G20
  -3608017.46949  -2803303.48846  21517508.4134   21517505.9054
       -34.6644
    219710.20749    175992.02746  22011202.1404   22011198.4134
     -1400.7574
  14826299.22748  11529035.62143  23765045.9214   23765043.1364
     -3727.8114
  -2102503.18047  -1630672.60943  24345417.8824   24345412.7694
      1826.7274
  -3268047.91049  -2537458.17646  21517828.5774   21517825.9604
      -531.1484
  -6269760.78148  -4883080.95744  23155534.0934   23155530.2374
      1687.4474
 04  9 14 15 55 15.0030000  0  6G 1G11G14G23G25G20
  -3607417.11349  -2802835.68046  21517622.8044   21517620.3394
       -40.0244
    240859.12549    192471.68845  22015226.5464   22015223.1124
     -1409.9284
  14882234.07048  11572621.19143  23775690.6164   23775687.4914
     -3728.9904
  -2129862.79747  -1651991.77043  24340211.6554   24340206.2844
      1823.9744
  -3259944.37149  -2531143.73446  21519370.7264   21519367.6204
      -540.2364
  -6295040.79748  -4902779.66844  23150722.8584   23150719.4374
      1685.3344
 04  9 14 15 55 30.0030000  0  6G 1G11G14G23G25G20
  -3606736.16049  -2802305.06246  21517752.9054   21517749.9404
       -45.3974
    262145.84049    209058.72746  22019277.3274   22019273.8904
     -1419.1144
  14938186.72348  11616220.64143  23786337.9374   23786334.8004
     -3730.1774
  -2157180.67248  -1673278.41043  24335013.2414   24335007.7294
      1821.1924
  -3251704.18049  -2524722.78946  21520938.6714   21520935.6204
      -549.3464
  -6320288.51248  -4922453.20344  23145918.7024   23145915.3394
      1683.1814
 04  9 14 15 55 45.0030000  0  6G 1G11G14G23G25G20
  -3605974.13349  -2801711.28146  21517897.5384   21517894.8194
       -50.8024
    283570.75849    225753.45346  22023354.4444   22023350.6444
     -1428.3284
  14994157.56648  11659834.25443  23796988.7414   23796985.6714
     -3731.3904
  -2184456.23847  -1694532.08243  24329822.7574   24329817.9214
      1818.3714
  -3243326.97349  -2518195.09046  21522533.1794   21522529.8784
      -558.4804
  -6345503.33248  -4942101.12144  23141120.2024   23141116.9484
      1680.9884
 04  9 14 15 56  0.0030000  0  6G 1G11G14G23G25G20
  -3605130.52349  -2801053.91446  21518057.8974   21518055.4054
       -56.2414
    305134.32849    242556.23046  22027457.7414   22027454.0114
     -1437.5714
  15050146.96148  11703462.34843  23807643.1714   23807640.2844
     -3732.6264
  -2211688.87547  -1715752.30543  24324640.0384   24324635.6124
      1815.5094
  -3234812.38749  -2511560.34846  21524153.1084   21524150.3474
      -567.6394
  -6370684.55148  -4961722.84444  23136328.7804   23136325.3084
      1678.7484
 04  9 14 15 56 15.0030000  0  6G 1G11G14G23G25G20
  -3604208.08649  -2800335.12546  21518233.6554   21518230.6904
       -61.4964
    326833.86349    259464.94946  22031587.0624   22031583.1474
     -1446.6364
  15106152.08248  11747102.66843  23818300.6244   23818297.9254
     -3733.6754
  -2238881.14147  -1736941.05942  24319465.8274   24319461.1834
      1812.8184
  -3226162.85949  -2504820.45347  21525799.3194   21525796.4214
      -576.6354
  -6395834.59848  -4981320.27744  23131542.8514   23131538.8314
      1676.6704
 04  9 14 15 56 30.0030000  0  6G 1G11G14G23G25G20
  -3603206.37149  -2799554.57046  21518424.4604   21518421.6284
       -66.7814
    348670.04749    276480.14145  22035742.5774   22035738.6794
     -1455.7464
  15162173.33248  11790755.57043  23828961.4604   23828958.1014
     -3734.7504
  -2266032.44147  -1758097.89543  24314298.8194   24314293.8744
      1810.0874
  -3217377.90649  -2497975.03546  21527470.9294   21527468.0344
      -585.6644
  -6420952.82448  -5000892.91844  23126762.7724   23126759.4724
      1674.5484
 04  9 14 15 56 45.0030000  0  6G 1G11G14G23G25G20
  -3602123.96949  -2798711.13746  21518630.0694   21518627.2534
       -72.1604
    370643.84049    293602.57045  22039923.8904   22039919.9644
     -1464.9204
  15218211.96948  11834422.02043  23839624.9294   23839621.9484
     -3735.9094
  -2293141.37147  -1779221.73842  24309140.5304   24309135.5934
      1807.2624
  -3208456.03949  -2491022.92247  21529168.7964   21529165.6204
      -594.7914
  -6446037.55148  -5020439.45744  23121989.1944   23121985.9524
      1672.3154
 04  9 14 15 57  0.0030000  0  6G 1G11G14G23G25G20
  -3600960.28949  -2797804.37146  21518851.3274   21518848.6874
       -77.5794
    392756.03549    310832.84045  22044131.9054   22044128.3944
     -1474.1464
  15274268.48848  11878102.41443  23850291.8974   23850289.4724
     -3737.1014
  -2320207.22347  -1800312.00442  24303989.9214   24303984.8274
      1804.3904
  -3199396.62149  -2483963.62946  21530892.6474   21530889.3274
      -603.9614
  -6471087.95348  -5039959.24244  23117222.6164   23117218.8904
      1670.0274
 04  9 14 15 57 15.0030000  0  6G 1G11G14G23G25G20
  -3599716.15249  -2796834.90646  21519088.1474   21519085.6084
       -82.9424
    415005.61749    328170.16845  22048365.7724   22048361.7264
     -1483.3054
  15330342.05548  11921796.07043  23860962.8354   23860959.6244
     -3738.2384
  -2347230.64547  -1821369.20743  24298847.3974   24298843.1634
      1801.5614
  -3190200.46149  -2476797.78546  21532642.7884   21532639.5774
      -613.0774
  -6496104.58248  -5059452.71944  23112462.1244   23112458.6044
      1667.7754
 04  9 14 15 57 30.0030000  0  6G 1G11G14G23G25G20
  -3598391.91849  -2795803.03946  21519340.2804   21519337.8084
       -88.2824
    437392.32849    345614.34845  22052625.8584   22052621.8084
     -1492.4474
  15386432.24248  11965502.69543  23871636.2884   23871632.9294
     -3739.3464
  -2374211.88747  -1842393.52743  24293713.3904   24293708.1904
      1798.7494
  -3180867.85949  -2469525.62146  21534418.8824   21534415.2724
      -622.1734
  -6521087.56648  -5078919.97744  23107707.9294   23107704.2884
      1665.5324
 04  9 14 15 57 45.0030000  0  6G 1G11G14G23G25G20
  -3596988.29749  -2794709.30546  21519607.2964   21519604.5854
       -93.5754
    459915.42249    363164.79745  22056911.9444   22056907.7964
     -1501.5404
  15442538.19548  12009221.59443  23882313.2024   23882310.0584
     -3740.3974
  -2401151.49248  -1863385.41443  24288586.7334   24288581.9994
      1795.9744
  -3171399.55549  -2462147.71546  21536220.1944   21536217.2844
      -631.2204
  -6546037.43048  -5098361.42644  23102960.5074   23102956.5224
      1663.3244
 04  9 14 15 58  0.0030000  0  6G 1G11G14G23G25G20
  -3595505.82849  -2793554.12946  21519889.4604   21519886.7374
       -98.8314
    482574.31649    380821.07045  22061223.9134   22061219.8744
     -1510.5934
  15498659.29748  12052952.30143  23892992.3974   23892989.5424
     -3741.4074
  -2428049.98447  -1884345.26643  24283468.2104   24283463.3944
      1793.2334
  -3161795.83249  -2454664.28947  21538047.9684   21538044.6554
      -640.2484
  -6570954.44548  -5117777.28544  23098218.8354   23098214.8944
      1661.1344
 04  9 14 15 58 15.0030000  0  6G 1G11G14G23G25G20
  -3593945.12949  -2792337.99247  21520186.6714   21520183.7884
      -104.0474
    505368.44149    398582.71546  22065561.3664   22065557.1634
     -1519.6084
  15554794.91848  12096694.30943  23903675.0544   23903672.1904
     -3742.3754
  -2454907.81248  -1905273.42243  24278357.7264   24278352.5264
      1790.5224
  -3152057.32449  -2447075.84447  21539900.9054   21539897.8624
      -649.2344
  -6595838.91848  -5137167.77344  23093482.6874   23093479.8784
      1658.9654
 04  9 14 15 58 30.0030000  0  6G 1G11G14G23G25G20
  -3592306.14849  -2791060.86746  21520498.4764   21520495.5734
      -109.2654
    528297.90249    416449.82045  22069924.4524   22069921.0464
     -1528.6314
  15610945.06648  12140447.65643  23914359.6014   23914357.0154
     -3743.3434
  -2481724.77748  -1926169.74643  24273254.3274   24273249.6904
      1787.7984
  -3142183.93749  -2439382.28947  21541779.8274   21541776.7654
      -658.2264
  -6620690.52748  -5156532.66444  23088754.2184   23088750.4684
      1656.7744
 04  9 14 15 58 45.0030000  0  6G 1G11G14G23G25G20
  -3590588.10549  -2789722.12946  21520825.4604   21520822.6014
      -114.5364
    551363.41449    434422.93445  22074313.6244   22074310.0074
     -1537.7014
  15667110.35248  12184212.78143  23925047.5154   23925044.7534
     -3744.3524
  -2508499.94548  -1947033.50043  24268159.1634   24268153.9564
      1785.0114
  -3132174.92649  -2431583.06646  21543684.3584   21543681.3544
      -667.2674
  -6645508.28948  -5175871.18044  23084031.3044   23084027.6904
      1654.5174
 04  9 14 15 59  0.0030000  0  6G 1G11G14G23G25G20
  -3588792.08249  -2788322.62146  21521167.1634   21521164.5854
      -119.7354
    574563.79749    452501.14545  22078728.6324   22078724.8314
     -1546.6924
  15723289.68047  12227988.86743  23935737.7804   23935734.9644
     -3745.2894
  -2535234.35248  -1967865.49643  24263071.8514   24263066.4014
      1782.2944
  -3122031.12949  -2423678.80546  21545614.5624   21545611.5624
      -676.2534
  -6670292.95748  -5195183.90244  23079315.0224   23079311.6364
      1652.3114
 04  9 14 15 59 15.0030000  0  6G 1G11G14G23G25G20
  -3586917.74249  -2786862.09846  21521523.6794   21521521.2764
      -124.9564
    597899.41849    470684.73046  22083169.5384   22083165.7184
     -1555.7084
  15779483.28947  12271776.08243  23946431.2884   23946428.6594
     -3746.2414
  -2561927.37948  -1988665.24643  24257992.1794   24257987.2964
      1779.5354
  -3111752.17649  -2415669.22747  21547570.9214   21547567.8944
      -685.2644
  -6695043.90648  -5214470.35944  23074605.0934   23074601.7374
      1650.0634
 04  9 14 15 59 30.0030000  0  6G 1G11G14G23G25G20
  -3584965.23849  -2785340.66446  21521895.3194   21521892.5854
      -130.1674
    621370.07049    488973.53946  22087635.4914   22087631.8394
     -1564.7104
  15835690.82047  12315574.14142  23957126.9994   23957124.0464
     -3747.1694
  -2588579.12548  -2009432.82043  24252920.7104   24252915.2024
      1776.7834
  -3101338.12549  -2407554.37546  21549552.6014   21549549.5654
      -694.2704
  -6719761.23448  -5233730.60944  23069901.5694   23069898.3044
      1647.8224
 04  9 14 15 59 45.0030000  0  6G 1G11G14G23G25G20
  -3582935.16849  -2783758.78547  21522281.3044   21522278.8744
      -135.3384
    644975.08249    507367.04346  22092127.5384   22092123.8004
     -1573.6674
  15891911.81647  12359382.68843  23967825.7884   23967823.1674
     -3748.0664
  -2615190.12948  -2030168.66043  24247856.6874   24247851.3514
      1774.0674
  -3090789.78149  -2399334.87946  21551559.6474   21551556.7264
      -703.2234
  -6744445.24248  -5252964.91044  23065204.3904   23065200.6514
      1645.6014
 04  9 14 16  0  0.0030000  0  6G 1G11G14G23G25G20
  -3580825.91049  -2782115.21146  21522683.2184   21522680.1834
      -140.6174
    668716.10949    525866.53145  22096645.0384   22096641.3944
     -1582.7354
  15948147.80547  12403202.92242  23978527.0384   23978524.0464
     -3749.0664
  -2641758.65648  -2050871.39143  24242800.8124   24242795.8044
      1771.2354
  -3080105.36349  -2391009.35246  21553593.4134   21553590.0464
      -712.2954
  -6769093.99248  -5272171.72744  23060513.8514   23060510.1014
      1643.2504
 04  9 14 16  0 15.0030000  0  6G 1G11G14G23G25G20
  -3578638.23849  -2780410.52346  21523099.1554   21523096.6754
      -145.8454
    692592.38349    544471.41045  22101188.7884   22101184.9724
     -1591.7524
  16004397.85547  12447034.11343  23989231.1324   23989227.9834
     -3750.0034
  -2668285.42248  -2071541.58243  24237752.7184   24237747.5974
      1768.4514
  -3069285.51249  -2382578.30546  21555651.7654   21555648.9334
      -721.3234
  -6793707.93448  -5291351.41444  23055829.8514   23055826.3864
      1640.9294
 04  9 14 16  0 30.0030000  0  6G 1G11G14G23G25G20
  -3576372.34849  -2778644.89146  21523530.4604   21523527.8544
      -151.0594
    716603.69949    563181.52045  22105758.0854   22105754.4134
     -1600.7544
  16060661.83647  12490876.15243  23999937.9524   23999935.2884
     -3750.9324
  -2694770.37547  -2092179.19943  24232712.9994   24232707.9724
      1765.6644
  -3058330.39149  -2374041.84047  21557736.4134   21557733.4994
      -730.3414
  -6818287.06248  -5310503.98044  23051152.5854   23051149.3124
      1638.6094
 04  9 14 16  0 45.0030000  0  6G 1G11G14G23G25G20
  -3574028.36749  -2776818.41046  21523976.4054   21523973.5424
      -156.2654
    740749.78149    581996.64545  22110353.1164   22110349.3314
     -1609.7394
  16116939.44546  12534728.79742  24010646.7574   24010645.0694
     -3751.8414
  -2721213.51647  -2112784.22343  24227681.3904   24227676.0814
      1762.8764
  -3047240.22749  -2365400.15646  21559846.9994   21559843.7964
      -739.3444
  -6842831.26648  -5329629.33644  23046481.7654   23046478.3154
      1636.2804
 04  9 14 16  1  0.0030000  0  6G 1G11G14G23G25G20
  -3571607.99249  -2774932.39846  21524437.1474   21524434.4404
      -161.3584
    765028.88749    600915.41445  22114973.1874   22114969.3354
     -1618.6074
  16173228.95747  12578590.72743  24021358.0624   24021355.9404
     -3752.6344
  -2747616.47748  -2133357.94543  24222657.0074   24222652.0194
      1760.1974
  -3036016.60249  -2356654.46546  21561982.8664   21561979.8784
      -748.2424
  -6867341.97348  -5348728.58644  23041817.6474   23041814.2964
      1634.0474
 04  9 14 16  1 15.0030000  0  6G 1G11G14G23G25G20
  -3569108.90649  -2772985.06246  21524912.6874   21524909.7264
      -166.6064
    789443.39149    619939.69145  22119618.9444   22119615.2374
     -1627.6344
  16229532.48046  12622463.58242  24032072.6714   24032069.7724
     -3753.5684
  -2773976.89847  -2153898.51643  24217640.6634   24217635.5224
      1757.3614
  -3024657.24249  -2347803.01646  21564144.5384   21564141.4564
      -757.2914
  -6891816.69549  -5367799.80144  23037160.6944   23037157.4294
      1631.6484
 04  9 14 16  1 30.0030000  0  6G 1G11G14G23G25G20
  -3566532.71549  -2770977.63746  21525402.8044   21525399.8584
      -171.7464
    813991.62549    639068.17645  22124290.5384   22124286.8434
     -1636.5494
  16285848.48446  12666346.16842  24042788.9994   24042786.6204
     -3754.4004
  -2800296.14148  -2174406.99243  24212632.0624   24212627.4954
      1754.6164
  -3013163.63749  -2338846.96546  21566331.6794   21566328.5114
      -766.2404
  -6916256.77049  -5386844.00844  23032509.4834   23032506.0894
      1629.3384
 04  9 14 16  1 45.0030000  0  6G 1G11G14G23G25G20
  -3563875.08249  -2768906.74646  21525908.5304   21525905.7654
      -177.1764
    838677.92649    658304.24246  22128987.9914   22128984.4054
     -1645.7534
  16342181.07446  12710241.65242  24053509.4524   24053506.5154
     -3755.5064
  -2826569.89547  -2194880.02743  24207632.4994   24207627.5224
      1751.5844
  -3001531.31249  -2329782.80947  21568545.0544   21568542.4334
      -775.4884
  -6940657.51649  -5405857.58244  23027866.6014   23027862.7724
      1626.7164
 04  9 14 16  2  0.0030000  0  6G 1G11G14G23G25G20
  -3561138.35949  -2766774.23446  21526429.4444   21526426.6594
      -182.4484
    863499.84049    677645.98845  22133711.5544   22133708.1594
     -1654.7944
  16398527.99647  12754148.32842  24064231.8974   24064228.1944
     -3756.4614
  -2852800.22348  -2215319.23443  24202640.9054   24202636.1594
      1748.6894
  -2989762.60249  -2320612.38347  21570784.5384   21570781.8194
      -784.5814
  -6965020.99649  -5424842.10244  23023230.1634   23023226.8904
      1624.2324
 04  9 14 16  2 15.0030000  0  6G 1G11G14G23G25G20
  -3558323.63349  -2764580.93746  21526964.7334   21526962.2884
      -187.6484
    888456.31649    697092.57845  22138460.3514   22138456.7414
     -1663.7654
  16454888.02747  12798065.25442  24074956.3584   24074953.4994
     -3757.3354
  -2878988.10548  -2235725.35943  24197657.7724   24197652.4954
      1745.8594
  -2977858.53149  -2311336.47747  21573050.2654   21573047.0974
      -793.6054
  -6989348.05149  -5443798.25844  23018600.7804   23018597.5344
      1621.8044
 04  9 14 16  2 30.0030000  0  6G 1G11G14G23G25G20
  -3555429.81249  -2762326.01246  21527515.6714   21527512.8084
      -192.9214
    913548.46149    716644.89545  22143235.5154   22143231.7334
     -1672.8104
  16511262.35947  12841993.27742  24085684.4054   24085681.3704
     -3758.2894
  -2905132.37547  -2256097.48843  24192682.5624   24192677.5854
      1742.9514
  -2965817.99249  -2301954.23447  21575341.3124   21575338.0584
      -802.7034
  -7013637.37149  -5462725.00044  23013979.0694   23013975.1944
      1619.2884
 04  9 14 16  2 45.0030000  0  6G 1G11G14G23G25G20
  -3552455.93449  -2760008.69546  21528081.8584   21528079.0584
      -198.2594
    938777.12149    736303.58245  22148036.2884   22148032.5974
     -1681.9114
  16567651.79747  12885933.07442  24096414.4914   24096412.2844
     -3759.2964
  -2931231.93047  -2276434.78543  24187715.9294   24187710.5194
      1739.9704
  -2953640.03949  -2292464.91447  21577658.5544   21577655.6284
      -811.8644
  -7037887.64849  -5481621.32044  23009364.4294   23009360.6944
      1616.6854
 04  9 14 16  3  0.0030000  0  6G 1G11G14G23G25G20
  -3549402.25849  -2757629.21147  21528662.6874   21528659.9724
      -203.5784
    964141.95349    756068.37945  22152863.1014   22152859.2764
     -1690.9894
  16624056.05547  12929884.40243  24107148.5774   24107145.8044
     -3760.2844
  -2957286.85547  -2296737.30943  24182757.6474   24182752.6204
      1736.9954
  -2941324.87549  -2282868.68046  21580001.9684   21579999.0694
      -821.0114
  -7062098.98449  -5500487.29344  23004756.8744   23004753.2374
      1614.0894
 04  9 14 16  3 15.0030000  0  6G 1G11G14G23G25G20
  -3546270.78149  -2755189.09046  21529258.7184   21529255.9334
      -208.7654
    989640.99249    775937.75046  22157715.4374   22157711.7494
     -1699.9364
  16680473.07047  12973845.68443  24117884.4054   24117881.4484
     -3761.1344
  -2983299.06647  -2317006.55943  24177807.8044   24177802.2924
      1734.1474
  -2928874.46149  -2273167.04746  21582371.2024   21582368.3544
      -830.0284
  -7086272.98048  -5519324.17644  23000156.3514   23000153.0694
      1611.6004
 04  9 14 16  3 30.0030000  0  6G 1G11G14G23G25G20
  -3543058.80149  -2752686.24646  21529869.8124   21529867.3314
      -214.1324
   1015276.93449    795913.80145  22162593.5304   22162590.0034
     -1709.0634
  16736905.41047  13017818.90643  24128623.1554   24128620.3044
     -3762.1564
  -3009265.78548  -2337240.35243  24172866.2104   24172861.2534
      1731.1154
  -2916286.19549  -2263358.00847  21584766.8274   21584763.7964
      -839.2184
  -7110406.81649  -5538129.76644  22995564.2024   22995560.5584
      1608.9224
 04  9 14 16  3 45.0030000  0  6G 1G11G14G23G25G20
  -3539767.10949  -2750121.28546  21530496.2494   21530493.4174
      -219.4464
   1041048.98449    815995.91445  22167498.0694   22167494.2654
     -1718.1374
  16793352.25847  13061803.45742  24139364.7184   24139361.5154
     -3763.1234
  -3035187.54347  -2357439.10943  24167933.7104   24167928.8004
      1728.1174
  -2903560.60549  -2253441.96947  21587188.1164   21587185.2184
      -848.3734
  -7134500.87948  -5556904.35544  22990979.1324   22990975.6474
      1606.2714
 04  9 14 16  4  0.0030000  0  6G 1G11G14G23G25G20
  -3536395.22749  -2747493.84846  21531137.9764   21531135.0624
      -224.7924
   1066957.38749    836184.27345  22172428.3044   22172424.7064
     -1727.2274
  16849814.05947  13105799.64543  24150109.3124   24150105.7804
     -3764.1204
  -3061063.85547  -2377602.44543  24163009.5464   24163003.8824
      1725.0884
  -2890697.19949  -2243418.53147  21589636.1244   21589633.4374
      -857.5604
  -7158554.37149  -5575647.34044  22986401.8584   22986398.3154
      1603.5664
 04  9 14 16  4 15.0030000  0  6G 1G11G14G23G25G20
  -3532942.91449  -2744803.72346  21531794.8584   21531791.8194
      -230.1544
   1093002.34849    856479.03146  22177384.3274   22177380.8864
     -1736.3314
  16906290.87147  13149807.52743  24160856.7104   24160853.2294
     -3765.1214
  -3086894.30547  -2397730.05943  24158093.8274   24158089.0544
      1722.0304
  -2877695.71549  -2233287.50847  21592110.4444   21592107.2224
      -866.7664
  -7182566.92249  -5594358.42244  22981832.8824   22981829.0304
      1600.8374
 04  9 14 16  4 30.0030000  0  6G 1G11G14G23G25G20
  -3529410.08249  -2742050.86746  21532467.3904   21532464.3314
      -235.5224
   1119184.02349    876880.33245  22182366.7494   22182363.0814
     -1745.4454
  16962782.85947  13193827.25043  24171606.2264   24171603.2264
     -3766.1334
  -3112678.73047  -2417821.80143  24153187.4294   24153182.1244
      1718.9624
  -2864556.19949  -2223048.91446  21594610.5154   21594607.6444
      -875.9684
  -7206538.18048  -5613037.32444  22977270.6404   22977267.1754
      1598.0844
 04  9 14 16  4 45.0030000  0  6G 1G11G14G23G25G20
  -3525796.90649  -2739235.40246  21533154.5544   21533151.7104
      -240.8784
   1145502.17649    897387.97345  22187374.9134   22187371.2804
     -1754.5434
  17019289.75847  13237858.55543  24182359.3274   24182356.2454
     -3767.1274
  -3138417.26247  -2437877.78543  24148289.2414   24148284.6754
      1715.9024
  -2851278.77049  -2212702.85947  21597137.1244   21597134.5114
      -885.1624
  -7230468.06648  -5631683.99644  22972717.1874   22972713.8584
      1595.3264
 04  9 14 16  5  0.0030000  0  6G 1G11G14G23G25G20
  -3522103.01649  -2736357.04346  21533857.2964   21533854.9214
      -246.2594
   1171957.02049    918002.12945  22192408.8434   22192405.4134
     -1763.6564
  17075811.86347  13281901.74243  24193115.1244   24193112.2574
     -3768.1404
  -3164109.33247  -2457897.54343  24143400.4684   24143395.7534
      1712.8054
  -2837863.06249  -2202249.06247  21599690.2184   21599687.1674
      -894.3804
  -7254355.93049  -5650297.91444  22968171.3664   22968168.0224
      1592.5244
 04  9 14 16  5 15.0030000  0  6G 1G11G14G23G25G20
  -3518328.85949  -2733416.13346  21534575.8974   21534573.0934
      -251.6104
   1198548.19149    938722.51645  22197469.2024   22197465.7064
     -1772.7454
  17132348.74647  13325956.43843  24203873.7884   24203871.3944
     -3769.1264
  -3189755.26647  -2477881.37943  24138520.5384   24138515.1754
      1709.7294
  -2824309.43449  -2191687.78946  21602269.1474   21602266.1794
      -903.5754
  -7278201.84448  -5668879.14844  22963633.7964   22963630.3044
      1589.7284
 04  9 14 16  5 30.0030000  0  6G 1G11G14G23G25G20
  -3514474.16449  -2730412.47746  21535309.3434   21535306.2844
      -256.9804
   1225275.80149    959549.21146  22202555.4374   22202551.9684
     -1781.8414
  17188900.45747  13370022.66443  24214635.1404   24214632.6044
     -3770.1144
  -3215354.61747  -2497828.91443  24133648.9054   24133643.7184
      1706.6234
  -2810617.48449  -2181018.73846  21604874.7494   21604871.6474
      -912.7974
  -7302005.38348  -5687427.36344  22959103.9604   22959100.6164
      1586.9034
 04  9 14 16  5 45.0030000  0  6G 1G11G14G23G25G20
  -3510538.74249  -2727345.90646  21536057.9214   21536055.4794
      -262.3614
   1252140.00049    980482.35546  22207667.4294   22207663.6044
     -1790.9474
  17245467.20347  13414100.63743  24225399.6634   24225396.8544
     -3771.1164
  -3240907.14147  -2517739.96543  24128786.3514   24128781.6084
      1703.5024
  -2796787.03949  -2170241.76247  21607506.5624   21607503.4134
      -922.0304
  -7325766.04348  -5705942.15644  22954582.4134   22954579.1594
      1584.0444
 04  9 14 16  6  0.0030000  0  6G 1G11G14G23G25G20
  -3506523.37549  -2724217.05146  21536822.4374   21536819.5224
      -267.6914
   1279139.97349   1001521.28146  22212805.3904   22212801.5734
     -1799.9984
  17302048.24647  13458189.74643  24236166.2184   24236163.9014
     -3772.0704
  -3266413.47747  -2537615.01643  24123932.3434   24123927.5304
      1700.4224
  -2782819.01649  -2159357.59047  21610164.6404   21610161.6674
      -931.2024
  -7349484.26648  -5724423.89844  22950069.0934   22950065.4914
      1581.2154
 04  9 14 16  6 15.0030000  0  6G 1G11G14G23G25G20
  -3502427.17649  -2721025.19946  21537602.0304   21537599.0344
      -273.0804
   1306276.55949   1022666.66446  22217969.1634   22217965.6714
     -1809.1064
  17358644.37946  13502290.59443  24246936.3584   24246934.3784
     -3773.0764
  -3291872.64847  -2557453.31243  24119088.2724   24119082.7334
      1697.2784
  -2768712.46549  -2148365.46547  21612849.0624   21612845.9684
      -940.4374
  -7373159.00449  -5742871.74644  22945564.1324   22945560.8474
      1578.3164
 04  9 14 16  6 30.0030000  0  6G 1G11G14G23G25G20
  -3498250.29349  -2717770.48446  21538396.6794   21538393.6634
      -278.4594
   1333549.66049   1043918.42245  22223159.0304   22223155.4254
     -1818.2074
  17415255.40247  13546403.06342  24257708.7804   24257706.1204
     -3774.0684
  -3317284.66047  -2577254.87143  24114252.2654   24114246.5264
      1694.1344
  -2754467.32449  -2137265.35547  21615559.8824   21615557.0624
      -949.6764
  -7396790.03548  -5761285.53144  22941067.0624   22941063.9294
      1575.4024
 04  9 14 16  6 45.0030000  0  6G 1G11G14G23G25G20
  -3493993.38749  -2714453.41046  21539206.4994   21539203.9994
      -283.7944
   1360958.48049   1065275.93845  22228374.7724   22228370.9374
     -1827.2554
  17471880.53947  13590526.52343  24268484.2334   24268481.8824
     -3775.0094
  -3342649.97347  -2597020.03543  24109425.1634   24109420.0384
      1691.0214
  -2740084.27349  -2126057.78147  21618296.8514   21618293.7964
      -958.8704
  -7420377.73449  -5779665.55944  22936578.6874   22936575.3624
      1572.5134
 04  9 14 16  7  0.0030000  0  6G 1G11G14G23G25G20
  -3489657.62949  -2711074.90246  21540031.6874   21540029.1124
      -289.0514
   1388501.80949   1086738.26645  22233616.3274   22233612.1284
     -1836.2224
  17528518.63746  13634660.08242  24279261.5544   24279259.5694
     -3775.8734
  -3367969.64847  -2616749.62943  24104607.5854   24104602.2064
      1687.9784
  -2725564.46949  -2114743.63747  21621059.7414   21621057.2024
      -967.9874
  -7443922.94949  -5798012.47344  22932097.8904   22932094.7884
      1569.6814
 04  9 14 16  7 15.0030000  0  6G 1G11G14G23G25G20
  -3485243.26649  -2707635.13747  21540871.8124   21540868.9644
      -294.2914
   1416179.31649   1108305.14145  22238883.1014   22238879.1554
     -1845.1674
  17585169.40647  13678803.51242  24290042.2024   24290039.6554
     -3776.7184
  -3393243.87947  -2636443.82843  24099798.0694   24099792.6794
      1684.9494
  -2710908.11749  -2103323.10547  21623848.9524   21623845.7224
      -977.0904
  -7467425.77048  -5816326.35944  22927625.4684   22927622.2414
      1566.8554
 04  9 14 16  7 30.0030000  0  6G 1G11G14G23G25G20
  -3480749.16849  -2704133.24647  21541726.8904   21541724.0974
      -299.6074
   1443992.03949   1129977.39145  22244175.7804   22244171.8784
     -1854.1824
  17641833.92647  13722957.65643  24300825.4834   24300822.9644
     -3777.6354
  -3418471.53547  -2656101.72343  24094997.1404   24094991.5974
      1681.8444
  -2696114.26649  -2091795.41847  21626664.2024   21626661.1044
      -986.2574
  -7490884.85548  -5834606.16844  22923161.7104   22923158.2844
      1563.9394
 04  9 14 16  7 45.0030000  0  6G 1G11G14G23G25G20
  -3476177.32449  -2700570.76647  21542596.8974   21542594.2724
      -304.7904
   1471937.98049   1151753.43845  22249493.3434   22249489.6634
     -1863.0634
  17698510.12547  13767120.93442  24311610.2494   24311607.9444
     -3778.4134
  -3443654.21947  -2675724.57043  24090205.1244   24090199.6904
      1678.8464
  -2681184.91049  -2080162.14847  21629504.6404   21629501.7924
      -995.2904
  -7514301.96148  -5852853.26244  22918705.4294   22918702.1364
      1561.1404
 04  9 14 16  8  0.0030000  0  6G 1G11G14G23G25G20
  -3471526.80549  -2696946.98046  21543482.0154   21543479.3004
      -310.0354
   1500017.94549   1173633.91845  22254836.9994   22254833.2294
     -1871.9984
  17755198.80547  13811293.87942  24322397.6014   24322396.1904
     -3779.2454
  -3468791.07047  -2695311.72343  24085421.5694   24085416.0974
      1675.7904
  -2666118.95349  -2068422.44947  21632371.8044   21632368.9914
     -1004.3974
  -7537675.74648  -5871066.59844  22914257.4524   22914254.0624
      1558.2524
 04  9 14 16  8 15.0030000  0  6G 1G11G14G23G25G20
  -3466798.24649  -2693262.38746  21544381.7184   21544379.0114
      -315.2374
   1528231.19549   1195618.27045  22260205.7414   22260202.0384
     -1880.8834
  17811899.25047  13855476.03142  24333187.3904   24333185.4134
     -3780.0304
  -3493882.59847  -2714863.53943  24080646.6944   24080641.6204
      1672.7684
  -2650916.96149  -2056576.73446  21635264.8584   21635261.6444
     -1013.4664
  -7561006.57848  -5889246.46544  22909818.0154   22909814.5114
      1555.3894
 04  9 14 16  8 30.0030000  0  6G 1G11G14G23G25G20
  -3461990.71549  -2689516.26246  21545296.7104   21545293.7144
      -320.5024
   1556578.61349   1217707.15645  22265600.1874   22265596.7264
     -1889.8284
  17868612.58247  13899668.19142  24343979.9684   24343977.4994
     -3780.8894
  -3518927.68447  -2734379.16443  24075880.7654   24075875.6404
      1669.6724
  -2635578.13349  -2044624.39546  21638183.6554   21638180.6834
     -1022.5894
  -7584293.16049  -5907391.85544  22905386.6014   22905383.1874
      1552.4394
 04  9 14 16  8 45.0030000  0  6G 1G11G14G23G25G20
  -3457104.91849  -2685709.14847  21546226.6324   21546223.7924
      -325.7204
   1585059.46149   1239900.02045  22271019.8664   22271016.2654
     -1898.7234
  17925337.91047  13943869.74242  24354774.0154   24354771.6124
     -3781.6894
  -3543926.94948  -2753859.10243  24071123.5774   24071118.2334
      1666.6184
  -2620103.04749  -2032565.87947  21641128.4834   21641125.3744
     -1031.6724
  -7607536.05548  -5925503.19944  22900963.5934   22900960.4254
      1549.5264
 04  9 14 16  9  0.0030000  0  6G 1G11G14G23G25G20
  -3452139.42649  -2681839.93047  21547171.3194   21547168.4294
      -331.0334
   1613675.18449   1262197.97345  22276465.3194   22276461.8434
     -1907.7154
  17982076.59047  13988081.66042  24365571.5464   24365569.0934
     -3782.5794
  -3568878.81647  -2773302.09843  24066375.5074   24066369.9834
      1663.4584
  -2604490.42249  -2020400.19147  21644099.2494   21644096.5544
     -1040.8424
  -7630733.52749  -5943579.14844  22896549.0854   22896545.7614
      1546.4984
 04  9 14 16  9 15.0030000  0  6G 1G11G14G23G25G20
  -3447097.50849  -2677911.16046  21548130.6014   21548127.6444
      -336.1284
   1642422.27349   1284598.29345  22281935.7414   22281931.8194
     -1916.4734
  18038825.38747  14032301.46542  24376370.1164   24376367.8124
     -3783.2534
  -3593786.47747  -2792710.66043  24061635.5154   24061630.1244
      1660.5114
  -2588743.40249  -2008129.78546  21647095.9834   21647093.2224
     -1049.8014
  -7653888.58648  -5961622.05544  22892142.8274   22892139.3434
      1543.6714
 04  9 14 16  9 30.0030000  0  6G 1G11G14G23G25G20
  -3441977.89149  -2673921.84447  21549104.8664   21549102.1674
      -341.3084
   1671301.97349   1307101.94145  22287431.0854   22287427.1284
     -1925.3134
  18095585.55947  14076530.16842  24387171.2184   24387168.9874
     -3784.0114
  -3618648.37947  -2812083.54743  24056904.5074   24056899.2654
      1657.4604
  -2572860.64149  -1995753.60547  21650118.5154   21650115.5694
     -1058.8514
  -7676999.58249  -5979630.61744  22887745.0464   22887741.7804
      1540.7334
 04  9 14 16  9 45.0030000  0  6G 1G11G14G23G25G20
  -3436780.72749  -2669872.10247  21550093.9134   21550091.1044
      -346.4784
   1700314.26249   1329708.91845  22292952.2494   22292948.3084
     -1934.1534
  18152356.91047  14120767.55142  24397975.3974   24397972.4914
     -3784.7574
  -3643464.62547  -2831420.87543  24052182.1014   24052176.6674
      1654.4164
  -2556842.47349  -1983271.91846  21653166.6794   21653163.5624
     -1067.8784
  -7700066.47349  -5997604.80945  22883355.4914   22883352.7224
      1537.7934
 04  9 14 16 10  0.0030000  0  6G 1G11G14G23G25G20
  -3431505.12549  -2665761.24646  21551097.9764   21551095.5264
      -351.7074
   1729459.95349   1352419.83645  22298498.2964   22298494.7964
     -1943.0464
  18209140.17247  14165014.23442  24408780.4294   24408777.7454
     -3785.5514
  -3668234.30547  -2850721.90643  24047468.6244   24047462.9134
      1651.3124
  -2540688.05549  -1970684.05947  21656240.4374   21656237.4724
     -1076.9614
  -7723088.00849  -6015543.66445  22878974.9444   22878971.4684
      1534.7694
 04  9 14 16 10 15.0030000  0  6G 1G11G14G23G25G20
  -3426152.34849  -2661590.24646  21552116.4374   21552113.9334
      -356.8524
   1758737.50449   1375233.50445  22304069.8584   22304066.3084
     -1951.8374
  18265934.12147  14209269.23442  24419587.6944   24419585.6164
     -3786.2634
  -3692958.61747  -2869987.59444  24042763.6874   24042758.4134
      1648.2874
  -2524398.41049  -1957990.82046  21659340.3354   21659337.3274
     -1085.9764
  -7746065.18448  -6033447.95744  22874602.2884   22874598.8744
      1531.8124
 04  9 14 16 10 30.0030000  0  6G 1G11G14G23G25G20
  -3420721.78149  -2657358.63747  21553149.8664   21553147.2264
      -362.0384
   1788147.63349   1398150.48445  22309666.1874   22309662.6444
     -1960.6754
  18322739.38347  14253533.07042  24430397.6554   24430394.8624
     -3787.0174
  -3717636.58247  -2889217.16043  24038067.5224   24038062.2064
      1645.1984
  -2507972.92649  -1945191.73046  21662465.7884   21662463.0624
     -1095.0324
  -7768997.05549  -6051316.94144  22870238.6634   22870235.3514
      1528.7914
 04  9 14 16 10 45.0030000  0  6G 1G11G14G23G25G20
  -3415213.77749  -2653066.68446  21554197.9834   21554194.7844
      -367.2004
   1817689.81649   1421170.36345  22315288.1324   22315284.4914
     -1969.4794
  18379555.45348  14297805.28542  24441209.2104   24441207.1794
     -3787.7384
  -3742268.57847  -2908410.89843  24033380.1554   24033375.1014
      1642.1334
  -2491412.05149  -1932287.14846  21665617.3824   21665614.3004
     -1104.0584
  -7791883.81249  -6069150.77044  22865883.3824   22865879.6364
      1525.7844
 04  9 14 16 11  0.0030000  0  6G 1G11G14G23G25G20
  -3409628.09049  -2648714.20346  21555260.7494   21555258.0344
      -372.3794
   1847364.26249   1444293.29745  22320934.6014   22320931.2844
     -1978.2964
  18436382.70747  14342086.26642  24452022.9054   24452020.5464
     -3788.4844
  -3766854.11346  -2927568.43743  24028701.5074   24028696.9054
      1639.0364
  -2474715.40249  -1919276.77347  21668794.5774   21668791.3864
     -1113.1104
  -7814724.77349  -6086948.92244  22861536.8194   22861533.4014
      1522.7314
 04  9 14 16 11 15.0030000  0  6G 1G11G14G23G25G20
  -3403965.19149  -2644301.55146  21556338.5384   21556335.9404
      -377.5274
   1877170.38749   1467518.83245  22326606.7264   22326603.2614
     -1987.0754
  18493220.60248  14386375.50442  24462839.8434   24462837.1944
     -3789.1934
  -3791393.56647  -2946690.07843  24024031.9214   24024026.9994
      1635.9644
  -2457883.52749  -1906161.02047  21671997.8124   21671994.7104
     -1122.1254
  -7837520.15249  -6104711.55545  22857199.1794   22857195.8004
      1519.6924
 04  9 14 16 11 30.0030000  0  6G 1G11G14G23G25G20
  -3398225.99649  -2639829.45346  21557430.6084   21557427.8974
      -382.6134
   1907107.13749   1490846.16845  22332303.7414   22332300.3784
     -1995.7834
  18550068.08647  14430672.21942  24473656.9134   24473654.4874
     -3789.8324
  -3815887.85946  -2965776.51643  24019371.0224   24019365.8154
      1632.9534
  -2440917.32049  -1892940.59446  21675226.4374   21675223.5344
     -1131.0804
  -7860270.58649  -6122439.15645  22852869.6404   22852866.4374
      1516.6964
 04  9 14 16 11 45.0030000  0  6G 1G11G14G23G25G20
  -3392409.87149  -2635297.40646  21558537.2184   21558534.3194
      -387.7424
   1937175.20749   1514275.82845  22338025.5624   22338022.1474
     -2004.5384
  18606925.65248  14474976.82042  24484476.6794   24484473.8744
     -3790.5044
  -3840336.16447  -2984827.12143  24014719.0934   24014713.4994
      1629.8874
  -2423816.13749  -1879614.98447  21678480.4834   21678477.5734
     -1140.0794
  -7882975.17649  -6140131.03944  22848549.4834   22848545.8274
      1513.6394
 04  9 14 16 12  0.0030000  0  6G 1G11G14G23G25G20
  -3386517.63349  -2630706.05146  21559658.5694   21559655.8394
      -392.8164
   1967373.62149   1537807.04345  22343771.8434   22343768.1984
     -2013.2284
  18663792.59448  14519288.69542  24495298.1634   24495295.3154
     -3791.1294
  -3864739.24647  -3003842.49643  24010074.6554   24010069.6674
      1626.8724
  -2406580.81249  -1866184.86347  21681760.1164   21681757.2574
     -1149.0224
  -7905634.41449  -6157787.58644  22844237.0694   22844234.0854
      1510.6164
 04  9 14 16 12 15.0030000  0  6G 1G11G14G23G25G20
  -3380549.13349  -2626055.27346  21560794.2964   21560791.3084
      -397.9004
   1997702.49649   1561439.92645  22349543.3744   22349539.6364
     -2021.9254
  18720669.15248  14563608.05542  24506121.2264   24506118.2764
     -3791.7714
  -3889096.71547  -3022822.32044  24005439.6794   24005434.7264
      1623.8314
  -2389211.30549  -1852650.17647  21685065.3664   21685062.7924
     -1157.9674
  -7928247.95749  -6175408.52345  22839934.1554   22839930.9484
      1507.5704
 04  9 14 16 12 30.0030000  0  6G 1G11G14G23G25G20
  -3374503.60249  -2621344.47346  21561944.7414   21561941.9174
      -403.0354
   2028162.46949   1585174.97345  22355339.6714   22355335.9914
     -2030.6654
  18777555.83248  14607935.32442  24516946.9524   24516943.5654
     -3792.4454
  -3913407.71547  -3041765.93743  24000813.3354   24000808.3394
      1620.7334
  -2371706.82849  -1839010.32047  21688396.7024   21688393.6014
     -1166.9654
  -7950814.75449  -6192993.03545  22835639.8124   22835636.5654
      1504.4534
 04  9 14 16 12 45.0030000  0  6G 1G11G14G23G25G20
  -3368380.38349  -2616573.12547  21563110.1084   21563107.3354
      -408.2154
   2058754.07049   1609012.57045  22361161.0384   22361157.2414
     -2039.4404
  18834453.44547  14652271.10242  24527773.4834   24527771.3354
     -3793.1744
  -3937671.42647  -3060672.72343  23996195.8354   23996190.5734
      1617.5814
  -2354066.71549  -1825264.77747  21691753.5544   21691750.2614
     -1176.0084
  -7973333.80548  -6210540.34845  22831354.4294   22831351.4954
      1501.2704
 04  9 14 16 13  0.0030000  0  6G 1G11G14G23G25G20
  -3362180.12149  -2611741.75446  21564290.2414   21564287.1754
      -413.3514
   2089476.60949   1632952.20745  22367007.3274   22367003.7654
     -2048.1694
  18891361.18847  14696614.79742  24538602.6554   24538600.0344
     -3793.8494
  -3961888.47747  -3079543.13343  23991588.1404   23991582.5424
      1614.4704
  -2336291.60949  -1811414.04346  21695136.1794   21695133.1794
     -1185.0074
  -7995805.49248  -6228050.74245  22827078.2574   22827074.9874
      1498.1134
 04  9 14 16 13 15.0030000  0  6G 1G11G14G23G25G20
  -3355904.29349  -2606851.48847  21565484.2024   21565481.1284
      -418.3894
   2120328.53549   1656992.66045  22372878.1164   22372874.7574
     -2056.7954
  18948277.46548  14740965.10542  24549433.3434   24549431.4644
     -3794.4184
  -3986060.21547  -3098378.24243  23986987.7804   23986983.1714
      1611.4494
  -2318382.92649  -1797459.22347  21698543.8974   21698540.7884
     -1193.9124
  -8018230.96549  -6245525.13345  22822811.1634   22822807.4874
      1495.0324
 04  9 14 16 13 30.0030000  0  6G 1G11G14G23G25G20
  -3349552.55149  -2601902.08246  21566692.7024   21566690.0194
      -423.4494
   2151310.10549   1681134.13745  22378773.7414   22378770.2884
     -2065.4384
  19005202.73447  14785322.41042  24560265.6404   24560263.6404
     -3795.0184
  -4010186.14147  -3117177.65643  23982397.3434   23982392.1474
      1608.3954
  -2300340.34049  -1783400.05547  21701977.0074   21701973.8514
     -1202.8394
  -8040609.67249  -6262963.08645  22818552.6084   22818549.1284
      1491.9144
 04  9 14 16 13 45.0030000  0  6G 1G11G14G23G25G20
  -3343125.16049  -2596893.72747  21567915.6014   21567912.7104
      -428.4934
   2182420.94149   1705376.33645  22384693.8904   22384690.5424
     -2074.0564
  19062136.69948  14829686.54742  24571100.6404   24571097.7224
     -3795.5984
  -4034266.39547  -3135941.46543  23977814.5934   23977809.2964
      1605.3504
  -2282164.27049  -1769236.88347  21705435.8974   21705432.6044
     -1211.7384
  -8062941.51249  -6280364.50845  22814302.9134   22814299.5264
      1488.7894
 04  9 14 16 14  0.0030000  0  6G 1G11G14G23G25G20
  -3336620.31649  -2591825.01646  21569153.8664   21569150.9484
      -433.6564
   2213662.86749   1729720.68045  22390639.1474   22390635.5194
     -2082.7954
  19119081.26247  14874058.88342  24581936.8124   24581933.8704
     -3796.3044
  -4058298.94147  -3154668.11743  23973241.2884   23973236.0074
      1602.1704
  -2263852.71149  -1754968.12147  21708920.6084   21708917.4174
     -1220.7714
  -8085224.15249  -6297727.60245  22810062.5224   22810059.2764
      1485.5094
 04  9 14 16 14 15.0030000  0  6G 1G11G14G23G25G20
  -3330039.20749  -2586696.88746  21570405.8664   21570403.5344
      -438.7414
   2245034.76649   1754166.31345  22396609.0304   22396605.3584
     -2091.4604
  19176035.04348  14918438.44542  24592774.7414   24592771.8314
     -3796.9194
  -4082284.91447  -3173358.46544  23968677.0224   23968671.9294
      1599.0654
  -2245407.09049  -1740594.91047  21712430.6244   21712427.4374
     -1229.7084
  -8107458.76648  -6315053.26645  22805831.5304   22805828.2844
      1482.3084
 04  9 14 16 14 30.0030000  0  6G 1G11G14G23G25G20
  -3323380.84449  -2581508.54747  21571672.8904   21571670.4294
      -443.8914
   2276537.30149   1778713.73845  22402604.0154   22402600.3514
     -2100.1694
  19232999.03547  14962825.93842  24603614.6474   24603612.3354
     -3797.5994
  -4106223.21547  -3192011.66043  23964121.9214   23964116.5464
      1595.8874
  -2226826.35949  -1726116.41047  21715966.4604   21715963.4054
     -1238.7154
  -8129644.00448  -6332340.45745  22801609.8824   22801606.6044
      1479.0164
 04  9 14 16 14 45.0030000  0  6G 1G11G14G23G25G20
  -3316645.07849  -2576259.89546  21572954.9214   21572952.1364
      -449.0514
   2308170.47749   1803362.95345  22408623.3904   22408619.8704
     -2108.8784
  19289973.34847  15007221.47342  24614456.6874   24614452.8704
     -3798.2874
  -4130113.62547  -3210627.54343  23959575.7334   23959570.5894
      1592.6944
  -2208110.27749  -1711532.45347  21719527.7184   21719524.7724
     -1247.7394
  -8151779.50449  -6349588.89545  22797396.9914   22797394.0544
      1475.7004
 04  9 14 16 15  0.0030000  0  6G 1G11G14G23G25G20
  -3309830.35549  -2570949.72747  21574251.4134   21574249.1164
      -454.3154
   2339935.76649   1828115.10945  22414668.1324   22414664.5114
     -2117.6864
  19346959.47347  15051626.23442  24625300.3124   24625298.2414
     -3799.0754
  -4153954.32047  -3229204.68743  23955038.3744   23955033.5814
      1589.3804
  -2189257.24649  -1696841.78147  21723115.5074   21723112.5154
     -1256.8694
  -8173863.29748  -6366797.03545  22793194.9764   22793191.7574
      1472.2534
 04  9 14 16 15 15.0030000  0  6G 1G11G14G23G25G20
  -3302939.81649  -2565580.47346  21575562.8124   21575560.0624
      -459.3694
   2371830.02049   1852967.77045  22420737.2334   22420733.8474
     -2126.2844
  19403954.29747  15096037.75842  24636146.1164   24636144.1674
     -3799.6554
  -4177748.41047  -3247745.52043  23950510.6874   23950505.9174
      1586.2734
  -2170270.52349  -1682046.93047  21726728.6474   21726725.5114
     -1265.7824
  -8195898.21948  -6383967.10245  22789001.9604   22788998.6444
      1468.9954
 04  9 14 16 15 30.0030000  0  6G 1G11G14G23G25G20
  -3295973.55949  -2560152.22346  21576888.4134   21576886.1124
      -464.4174
   2403853.04749   1877920.77345  22426831.1554   22426827.8394
     -2134.8684
  19460957.73047  15140455.98442  24646993.8664   24646991.6594
     -3800.2294
  -4201495.89848  -3266250.04343  23945991.5464   23945987.0224
      1583.1664
  -2151150.27049  -1667148.02746  21730367.0624   21730363.7534
     -1274.6844
  -8217884.12549  -6401098.96945  22784817.9054   22784814.6084
      1465.7274
 04  9 14 16 15 45.0030000  0  6G 1G11G14G23G25G20
  -3288929.83649  -2554663.60547  21578228.9834   21578226.5774
      -469.5824
   2436006.44949   1902975.36745  22432949.6874   22432946.1284
     -2143.5604
  19517971.51247  15184882.27742  24657843.0934   24657841.3704
     -3800.9194
  -4225194.93047  -3284716.79743  23941481.9604   23941477.0074
      1579.9354
  -2131894.63349  -1652143.62946  21734031.2654   21734028.2334
     -1283.7094
  -8239818.93748  -6418191.02345  22780643.9374   22780640.9254
      1462.3214
 04  9 14 16 16  0.0030000  0  6G 1G11G14G23G25G20
  -3281808.82049  -2549114.76246  21579583.9054   21579581.3434
      -474.7344
   2468289.94149   1928131.33245  22439092.8354   22439089.3474
     -2152.2334
  19574995.33647  15229316.38342  24668694.3824   24668692.4134
     -3801.5884
  -4248845.69148  -3303145.94143  23936981.7334   23936976.4294
      1576.7174
  -2112504.03149  -1637034.06246  21737721.3044   21737718.1204
     -1292.7074
  -8261702.60548  -6435243.22745  22776479.7964   22776476.1554
      1458.9114
 04  9 14 16 16 15.0030000  0  6G 1G11G14G23G25G20
  -3274611.31249  -2543506.31646  21580953.6944   21580950.7964
      -479.8344
   2500702.65649   1953387.98445  22445261.1634   22445257.6324
     -2160.8484
  19632028.37147  15273757.69942  24679547.5854   24679544.8274
     -3802.2024
  -4272448.70747  -3321537.88743  23932490.2414   23932484.4404
      1573.5344
  -2092979.18449  -1621819.89146  21741436.6474   21741433.5424
     -1301.6574
  -8283535.57848  -6452255.92245  22772324.9914   22772321.9994
      1455.5324
 04  9 14 16 16 30.0030000  0  6G 1G11G14G23G25G20
  -3267337.29749  -2537838.25847  21582337.7334   21582335.2574
      -484.9344
   2533244.51249   1978745.27045  22451453.6474   22451450.1044
     -2169.4574
  19689070.57447  15318206.15642  24690402.1244   24690399.6794
     -3802.8144
  -4296003.82447  -3339892.51244  23928007.7024   23928002.4374
      1570.3414
  -2073320.12149  -1606501.14546  21745177.6794   21745174.7024
     -1310.6044
  -8305317.55148  -6469228.88745  22768180.1474   22768176.8544
      1452.1324
 04  9 14 16 16 45.0030000  0  6G 1G11G14G23G25G20
  -3259986.50849  -2532110.36347  21583736.5464   21583733.9684
      -490.0534
   2565915.57049   2004203.22345  22457670.9294   22457667.3004
     -2178.0714
  19746122.28547  15362661.99242  24701258.9524   24701256.6204
     -3803.4474
  -4319510.75047  -3358209.57843  23923534.2804   23923529.1474
      1567.1284
  -2053526.55949  -1591077.58247  21748944.5074   21748941.0624
     -1319.5714
  -8327048.10248  -6486161.77745  22764044.8354   22764041.6984
      1448.7034
 04  9 14 16 17  0.0030000  0  6G 1G11G14G23G25G20
  -3252558.42649  -2526322.25047  21585150.4294   21585147.4684
      -495.2054
   2598716.37949   2029762.28545  22463912.4914   22463908.8194
     -2186.7214
  19803184.09047  15407125.69142  24712117.4054   24712114.6364
     -3804.1204
  -4342968.72347  -3376488.51243  23919070.5074   23919065.1244
      1563.8654
  -2033597.89149  -1575548.74247  21752736.7334   21752733.4484
     -1328.5784
  -8348726.29348  -6503053.86745  22759919.5694   22759916.0654
      1445.2134
 04  9 14 16 17 15.0030000  0  6G 1G11G14G23G25G20
  -3245052.44549  -2520473.44146  21586578.6794   21586576.0304
      -500.3994
   2631647.33649   2055422.75845  22470179.2884   22470175.2294
     -2195.3974
  19860256.36747  15451597.59042  24722977.7884   24722975.2224
     -3804.8184
  -4366377.06247  -3394728.75844  23914615.7654   23914610.9294
      1560.5564
  -2013533.51649  -1559914.16447  21756554.7104   21756551.6834
     -1337.6254
  -8370351.10948  -6519904.37145  22755804.6244   22755801.2884
      1441.6544
 04  9 14 16 17 30.0030000  0  6G 1G11G14G23G25G20
  -3237470.83649  -2514565.69147  21588021.2494   21588018.7494
      -505.4414
   2664706.29349   2081182.97745  22476469.9374   22476466.3744
     -2203.9304
  19917337.04747  15496075.98842  24733840.6554   24733838.2374
     -3805.3794
  -4389737.75047  -3412931.88743  23910170.6794   23910165.2884
      1557.3794
  -1993335.76249  -1544175.64547  21760398.1474   21760394.9684
     -1346.5174
  -8391924.52349  -6536714.81245  22751699.2184   22751696.0854
      1438.2284
 04  9 14 16 17 45.0030000  0  6G 1G11G14G23G25G20
  -3229813.84449  -2508599.20746  21589478.3044   21589475.5424
      -510.4664
   2697892.80949   2107042.59045  22482785.3354   22482781.7334
     -2212.4344
  19974425.72747  15540560.66842  24744703.1474   24744701.2804
     -3805.9124
  -4413051.05548  -3431098.07844  23905733.9994   23905729.4094
      1554.2204
  -1973005.11749  -1528333.58247  21764266.8744   21764263.8544
     -1355.3764
  -8413446.59848  -6553485.26245  22747603.6634   22747600.3974
      1434.8054
 04  9 14 16 18  0.0030000  0  6G 1G11G14G23G25G20
  -3222078.64149  -2502571.77047  21590950.3434   21590947.6714
      -515.6804
   2731209.53949   2133003.68045  22489125.2494   22489121.7534
     -2221.1154
  20031525.28947  15585053.79342  24755569.4914   24755567.5694
     -3806.6374
  -4436314.13347  -3449225.12544  23901307.2264   23901302.3274
      1550.8724
  -1952538.68049  -1512385.70747  21768161.6164   21768158.3624
     -1364.4294
  -8434914.13348  -6570213.20345  22743518.6084   22743515.0224
      1431.1694
 04  9 14 16 18 15.0030000  0  6G 1G11G14G23G25G20
  -3214265.52749  -2496483.62947  21592437.2414   21592434.3544
      -520.8744
   2764656.02749   2159065.87145  22495489.8354   22495486.4564
     -2229.7664
  20088635.34047  15629555.12542  24766437.1794   24766434.5464
     -3807.3374
  -4459527.16047  -3467313.18443  23896889.9764   23896884.6364
      1547.5354
  -1931936.88349  -1496332.35247  21772081.9684   21772078.8194
     -1373.4534
  -8456327.30548  -6586898.78145  22739443.8904   22739440.3354
      1427.5454
 04  9 14 16 18 30.0030000  0  6G 1G11G14G23G25G20
  -3206375.59049  -2490335.62947  21593938.5624   21593935.9134
      -525.9964
   2798231.28149   2185228.38745  22501878.9214   22501875.6674
     -2238.3504
  20145754.62547  15674063.60242  24777306.3664   24777304.5224
     -3807.9524
  -4482691.09047  -3485362.98843  23892482.0544   23892476.5074
      1544.2624
  -1911200.91449  -1480174.44947  21776027.8904   21776025.0654
     -1382.3984
  -8477686.78948  -6603542.54345  22735379.5384   22735375.7414
      1423.9664
 04  9 14 16 18 45.0030000  0  6G 1G11G14G23G25G20
  -3198408.36749  -2484127.40247  21595454.5544   21595451.6204
      -531.1484
   2831935.56349   2211491.46145  22508292.9294   22508289.4134
     -2246.9524
  20202883.81647  15718579.84442  24788178.0544   24788174.9724
     -3808.6134
  -4505805.24248  -3503374.00444  23888083.6634   23888078.3194
      1540.9434
  -1890330.12549  -1463911.49246  21779999.4444   21779996.4014
     -1391.3864
  -8498991.78148  -6620143.82445  22731325.3194   22731321.6834
      1420.3334
 04  9 14 16 19  0.0030000  0  6G 1G11G14G23G25G20
  -3190364.21949  -2477859.23446  21596985.3434   21596982.4604
      -536.2774
   2865768.32449   2237854.64145  22514731.0464   22514727.2654
     -2255.5174
  20260022.52747  15763103.50842  24799051.6714   24799048.0544
     -3809.2474
  -4528869.83247  -3521346.40244  23883695.0154   23883689.1904
      1537.6394
  -1869324.78149  -1447543.68747  21783996.7654   21783993.5774
     -1400.3564
  -8520242.19548  -6636702.58645  22727281.5694   22727277.7614
      1416.6944
 04  9 14 16 19 15.0030000  0  6G 1G11G14G23G25G20
  -3182243.18049  -2471531.15246  21598530.5074   21598528.1014
      -541.4034
   2899729.35249   2264317.77045  22521193.3744   22521189.9404
     -2264.0684
  20317170.57047  15807634.43842  24809925.5854   24809923.8394
     -3809.8704
  -4551884.81647  -3539280.14544  23879314.9214   23879309.6014
      1534.3324
  -1848185.09449  -1431071.21146  21788019.2184   21788016.3004
     -1409.3124
  -8541437.86348  -6653218.68745  22723247.7724   22723244.1874
      1413.0454
 04  9 14 16 19 30.0030000  0  6G 1G11G14G23G25G20
  -3174045.86349  -2465143.63746  21600090.2964   21600087.9334
      -546.4884
   2933817.90249   2290880.27745  22527680.3824   22527677.0544
     -2272.5704
  20374327.39847  15852172.15642  24820802.5154   24820800.5694
     -3810.4554
  -4574850.76647  -3557175.67643  23874944.8974   23874939.5154
      1531.0634
  -1826911.73849  -1414494.57047  21792067.2024   21792064.3044
     -1418.2244
  -8562579.21148  -6669692.46145  22719224.9444   22719221.1594
      1409.4234
 04  9 14 16 19 45.0040000  0  6G 1G11G14G23G25G20
  -3165770.90649  -2458695.61347  21601665.1764   21601662.2974
      -551.6644
   2968037.05949   2317544.54345  22534192.1374   22534188.5004
     -2281.2774
  20431497.56647  15896720.35242  24831682.1374   24831679.1804
     -3811.3454
  -4597768.23447  -3575033.42644  23870583.6444   23870578.5944
      1527.8314
  -1805502.51249  -1397812.04746  21796141.6994   21796138.5044
     -1427.2824
  -8583666.53548  -6686124.13745  22715211.9184   22715208.4454
      1405.8224
 04  9 14 16 20  0.0040000  0  6G 1G11G14G23G25G20
  -3157420.71949  -2452188.97347  21603254.1844   21603251.6174
      -556.6794
   3002380.86749   2344305.94945  22540727.3554   22540723.9144
     -2289.5874
  20488672.06347  15941271.88342  24842561.1214   24842559.5554
     -3811.6334
  -4620635.30947  -3592851.91044  23866232.0664   23866227.2814
      1524.4724
  -1783961.71149  -1381027.00446  21800240.7544   21800237.5194
     -1436.0534
  -8604697.96548  -6702512.26245  22711209.9344   22711206.7154
      1402.0954
 04  9 14 16 20 15.0040000  0  6G 1G11G14G23G25G20
  -3148994.06248  -2445622.74247  21604857.8014   21604855.4924
      -561.7774
   3036852.13349   2371166.66445  22547287.2304   22547283.8914
     -2298.0844
  20545855.60947  15985830.41442  24853444.0744   24853441.9184
     -3812.2364
  -4643452.75047  -3610631.71144  23861889.9344   23861884.7774
      1521.1634
  -1762287.16049  -1364137.74646  21804365.1684   21804362.2694
     -1444.9704
  -8625673.83248  -6718857.08645  22707218.2464   22707214.4104
      1398.3914
 04  9 14 16 20 30.0040000  0  6G 1G11G14G23G25G20
  -3140492.99249  -2438998.53946  21606475.4654   21606473.0664
      -566.7384
   3071448.73849   2398125.04745  22553870.5124   22553867.1764
     -2306.4404
  20603045.98447  16030394.36342  24864326.6444   24864324.1484
     -3812.6924
  -4666222.48447  -3628374.34444  23857557.3944   23857551.7504
      1517.9824
  -1740480.96549  -1347145.90247  21808515.0044   21808511.6484
     -1453.7464
  -8646596.11748  -6735160.16445  22703236.7384   22703233.2894
      1394.8194
 04  9 14 16 20 45.0040000  0  6G 1G11G14G23G25G20
  -3131916.84049  -2432315.82046  21608107.7074   21608104.7584
      -571.7434
   3106171.24649   2425181.53545  22560478.1524   22560474.7344
     -2314.8344
  20660243.94547  16074964.19542  24875210.7694   24875208.0624
     -3813.1974
  -4688943.71147  -3646079.18043  23853233.2934   23853227.8794
      1514.7484
  -1718542.44549  -1330050.94546  21812689.7854   21812686.2584
     -1462.5684
  -8667463.61748  -6751420.54345  22699265.8554   22699262.1914
      1391.1674
 04  9 14 16 21  0.0040000  0  6G 1G11G14G23G25G20
  -3123265.57449  -2425574.57447  21609753.7154   21609751.1684
      -576.7514
   3141019.54749   2452336.05545  22567109.7154   22567105.8554
     -2323.2204
  20717449.45347  16119539.87142  24886097.1134   24886094.5004
     -3813.7014
  -4711616.19547  -3663746.03143  23848919.0044   23848913.3834
      1511.4994
  -1696471.58249  -1312852.86747  21816889.4414   21816886.0664
     -1471.3914
  -8688276.00048  -6767637.98045  22695305.4654   22695302.0124
      1387.4924
 04  9 14 16 21 15.0040000  0  6G 1G11G14G23G25G20
  -3114539.40249  -2418774.95746  21611414.2234   21611411.2424
      -581.7454
   3175993.23449   2479588.26645  22573764.7074   22573761.1414
     -2331.5794
  20774662.26647  16164121.27042  24896983.6764   24896981.4144
     -3814.1874
  -4734240.08647  -3681375.02344  23844613.7774   23844608.2344
      1508.2594
  -1674268.62549  -1295551.85947  21821114.7544   21821111.3524
     -1480.1974
  -8709033.16848  -6783812.38745  22691355.7384   22691352.1914
      1383.8114
 04  9 14 16 21 30.0040000  0  6G 1G11G14G23G25G20
  -3105737.94949  -2411916.68047  21613089.0664   21613086.1954
      -586.7644
   3211092.72349   2506938.51245  22580444.1914   22580440.5984
     -2339.9664
  20831882.77347  16208708.68442  24907872.8164   24907869.5664
     -3814.7014
  -4756814.94548  -3698965.80944  23840317.8944   23840312.1804
      1504.9914
  -1651933.19549  -1278147.62146  21825364.8794   21825361.5474
     -1489.0294
  -8729734.46548  -6799943.27045  22687416.1684   22687412.9454
      1380.0864
 04  9 14 16 21 45.0040000  0  6G 1G11G14G23G25G20
  -3096861.99249  -2405000.34446  21614777.9574   21614775.5124
      -591.7304
   3246316.92249   2534385.93045  22587147.0194   22587143.2344
     -2348.2804
  20889110.25047  16253301.47742  24918763.0354   24918760.6414
     -3815.1654
  -4779341.47748  -3716518.94144  23836030.9494   23836025.6844
      1501.7694
  -1629466.19549  -1260640.87147  21829640.1524   21829637.0704
     -1497.8004
  -8750380.48448  -6816031.07045  22683487.2624   22683483.7304
      1376.4014
 04  9 14 16 22  0.0040000  0  6G 1G11G14G23G25G20
  -3087911.26649  -2398025.75047  21616481.1764   21616478.5664
      -596.7154
   3281666.16849   2561930.79345  22593873.6684   22593869.8794
     -2356.6164
  20946344.94147  16297899.89542  24929653.9414   24929652.5274
     -3815.6464
  -4801819.08247  -3734033.93744  23831753.8244   23831748.3554
      1498.5074
  -1606867.49249  -1243031.48847  21833940.6374   21833937.2344
     -1506.5804
  -8770970.55948  -6832075.27745  22679568.9494   22679565.5514
      1372.6724
 04  9 14 16 22 15.0040000  0  6G 1G11G14G23G25G20
  -3078885.84849  -2390992.95747  21618198.7774   21618196.0944
      -601.6954
   3317140.23049   2589572.91445  22600624.4104   22600620.5824
     -2364.9374
  21003586.66046  16342503.81642  24940546.1054   24940545.0004
     -3816.1154
  -4824247.92247  -3751510.93744  23827485.5194   23827480.3404
      1495.2564
  -1584137.06249  -1225319.46947  21838266.3634   21838262.9534
     -1515.3624
  -8791504.39548  -6848075.66845  22675661.4414   22675658.0164
      1368.9224
 04  9 14 16 22 30.0040000  0  6G 1G11G14G23G25G20
  -3069787.19949  -2383903.09846  21619930.2544   21619927.6914
      -606.5774
   3352737.41049   2617310.96545  22607398.1054   22607394.6414
     -2373.1454
  21060834.07446  16387112.15242  24951439.9964   24951437.8524
     -3816.4944
  -4846629.27047  -3768950.93044  23823226.9494   23823221.2894
      1492.0904
  -1561276.50849  -1207506.04747  21842616.3874   21842612.9884
     -1524.0374
  -8811983.11348  -6864033.10545  22671764.9884   22671761.1844
      1365.2484
 04  9 14 16 22 45.0040000  0  6G 1G11G14G23G25G20
  -3060614.93749  -2376755.88346  21621675.7694   21621673.0274
      -611.4844
   3388458.03949   2645145.21545  22614195.6134   22614192.2344
     -2381.3754
  21118087.33247  16431725.06642  24962335.9414   24962332.8984
     -3816.8844
  -4868962.64147  -3786353.53544  23818977.3404   23818971.8634
      1488.8914
  -1538285.49649  -1189590.96946  21846991.1134   21846988.0624
     -1532.7344
  -8832406.06248  -6879947.09045  22667878.2464   22667874.6604
      1361.5304
 04  9 14 16 23  0.0040000  0  6G 1G11G14G23G25G20
  -3051367.96549  -2369550.44147  21623435.0354   21623432.8054
      -616.4654
   3424302.98449   2673076.33245  22621016.5514   22621013.3324
     -2389.6634
  21175347.63346  16476343.44142  24973231.4654   24973230.0164
     -3817.3534
  -4891246.77347  -3803717.78544  23814736.1524   23814730.9104
      1485.6094
  -1515163.02749  -1171573.45746  21851391.4654   21851388.2774
     -1541.4984
  -8852771.91848  -6895816.58645  22664002.7464   22663999.0624
      1357.7244
 04  9 14 16 23 15.0040000  0  6G 1G11G14G23G25G20
  -3042048.74648  -2362288.71146  21625208.7854   21625205.9694
      -621.2814
   3460269.81649   2701102.42645  22627860.7854   22627857.2584
     -2397.7894
  21232612.63347  16520965.48442  24984129.1294   24984126.9494
     -3817.6674
  -4913483.96148  -3821045.44544  23810504.7774   23810499.7734
      1482.4794
  -1491911.38349  -1153455.29347  21855815.7624   21855812.6174
     -1550.1104
  -8873082.68448  -6911643.14845  22660137.8484   22660134.3284
      1354.0514
 04  9 14 16 23 30.0040000  0  6G 1G11G14G23G25G20
  -3032656.94949  -2354970.42646  21626995.7074   21626993.2814
      -626.1204
   3496358.69949   2729223.62145  22634728.0514   22634724.7424
     -2405.9264
  21289882.51646  16565591.36742  24995027.0044   24995025.2694
     -3817.9924
  -4935673.86748  -3838336.26644  23806281.9574   23806277.1564
      1479.3274
  -1468530.44549  -1135236.38746  21860265.3714   21860262.0784
     -1558.7294
  -8893337.74248  -6927426.30945  22656283.4104   22656279.8794
      1350.3374
 04  9 14 16 23 45.0040000  0  6G 1G11G14G23G25G20
  -3023191.97748  -2347595.11346  21628796.8554   21628794.5234
      -630.9984
   3532570.04349   2757440.24245  22641619.2544   22641615.5664
     -2414.0904
  21347157.84047  16610221.45742  25005926.1994   25005924.2464
     -3818.3554
  -4957815.75848  -3855589.66844  23802068.6684   23802063.4924
      1476.1264
  -1445019.59049  -1116916.23446  21864739.3324   21864736.0164
     -1567.3904
  -8913536.26648  -6943165.40645  22652439.6214   22652435.8164
      1346.5684
 04  9 14 16 24  0.0040000  0  6G 1G11G14G23G25G20
  -3013653.81249  -2340162.77746  21630612.0664   21630609.3094
      -635.8784
   3568903.75849   2785752.21945  22648533.2854   22648529.9534
     -2422.2484
  21404438.74246  16654855.89842  25016826.0514   25016824.4694
     -3818.7274
  -4979909.50447  -3872805.55944  23797864.5044   23797859.0984
      1472.9164
  -1421378.96949  -1098494.97346  21869237.9184   21869234.6294
     -1576.0414
  -8933677.96948  -6958860.24245  22648607.0044   22648602.9734
      1342.7804
 04  9 14 16 24 15.0040000  0  6G 1G11G14G23G25G20
  -3004042.01249  -2332673.06246  21632441.1844   21632438.7894
      -640.7874
   3605360.21549   2814159.84045  22655470.6134   22655466.8484
     -2430.4304
  21461725.68047  16699495.05542  25027727.9804   25027725.8164
     -3819.1294
  -5001954.54747  -3889983.49244  23793669.4414   23793664.0704
      1469.6704
  -1397608.10549  -1079972.21946  21873761.0594   21873757.9414
     -1584.7244
  -8953762.00048  -6974510.12545  22644784.9184   22644781.1914
      1338.9354
 04  9 14 16 24 30.0040000  0  6G 1G11G14G23G25G20
  -2994357.09848  -2325126.37546  21634283.9024   21634281.5704
      -645.6614
   3641938.70349   2842662.55145  22662431.5664   22662427.9264
     -2438.5664
  21519018.14146  16744138.48042  25038630.4184   25038628.1054
     -3819.4974
  -5023951.16048  -3907123.69144  23789483.3714   23789478.3054
      1466.4414
  -1373707.60548  -1061348.44946  21878309.5124   21878306.3794
     -1593.3674
  -8973788.61748  -6990115.28145  22640974.2074   22640970.5664
      1335.1084
 04  9 14 16 24 45.0040000  0  6G 1G11G14G23G25G20
  -2984599.55949  -2317523.08246  21636141.1444   21636138.5274
      -650.5034
   3678638.44949   2871259.74645  22669414.9654   22669411.6524
     -2446.6504
  21576315.50446  16788785.75042  25049534.1294   25049531.2504
     -3819.8244
  -5045899.81248  -3924226.52344  23785306.8324   23785301.7424
      1463.2434
  -1349678.20749  -1042624.23847  21882882.1294   21882878.9774
     -1601.9604
  -8993758.04348  -7005675.86345  22637174.3324   22637170.1914
      1331.2954
 04  9 14 16 25  0.0040000  0  6G 1G11G14G23G25G20
  -2974768.93448  -2309862.86347  21638011.5274   21638008.8714
      -655.3754
   3715459.87149   2899951.75445  22676421.7694   22676418.5594
     -2454.7614
  21633618.13746  16833437.15642  25060438.1214   25060435.6374
     -3820.1764
  -5067799.90248  -3941291.51244  23781138.9494   23781134.2934
      1460.0064
  -1325519.40648  -1023799.19947  21887479.2624   21887476.2154
     -1610.5874
  -9013669.46548  -7021191.25045  22633384.8714   22633381.4104
      1327.4284
 04  9 14 16 25 15.0040000  0  6G 1G11G14G23G25G20
  -2964865.02749  -2302145.52747  21639896.2464   21639893.7584
      -660.2604
   3752403.19149   2928738.73845  22683451.9734   22683448.3754
     -2462.8884
  21690926.38346  16878092.89542  25071343.1914   25071341.2194
     -3820.5504
  -5089651.16848  -3958318.44944  23776980.9024   23776976.1994
      1456.7514
  -1301230.95749  -1004873.13747  21892101.3324   21892098.1764
     -1619.2304
  -9033522.38748  -7036661.05545  22629606.9964   22629603.0664
      1323.5284
 04  9 14 16 25 30.0040000  0  6G 1G11G14G23G25G20
  -2954888.36748  -2294371.49647  21641794.9414   21641792.3054
      -665.1114
   3789467.55149   2957620.05545  22690505.0594   22690501.8124
     -2470.9574
  21748239.68046  16922752.53542  25082250.3404   25082247.6254
     -3820.8864
  -5111453.91448  -3975307.59044  23772831.9804   23772826.7274
      1453.5164
  -1276813.55548   -985846.58246  21896747.5984   21896744.6174
     -1627.8274
  -9053316.96948  -7052085.39545  22625840.5434   22625836.8984
      1319.6394
 04  9 14 16 25 45.0040000  0  6G 1G11G14G23G25G20
  -2944841.01248  -2286542.38747  21643706.8794   21643704.0474
      -669.8244
   3826650.84449   2986594.03545  22697581.0354   22697577.5434
     -2478.8864
  21805555.89846  16967414.49642  25093157.0354   25093154.6844
     -3821.0814
  -5133210.22747  -3992260.53544  23768692.0044   23768686.9734
      1450.4214
  -1252269.32048   -966721.20347  21901418.2234   21901414.9414
     -1636.2824
  -9073054.99248  -7067465.67245  22622084.2934   22622080.6954
      1315.8684
 04  9 14 16 26  0.0040000  0  6G 1G11G14G23G25G20
  -2934722.56648  -2278657.88347  21645632.3714   21645629.3944
      -674.5634
   3863953.33249   3015660.90245  22704679.3944   22704676.0784
     -2486.8334
  21862875.61746  17012079.18442  25104064.3794   25104062.1914
     -3821.3154
  -5154919.50447  -4009176.83644  23764561.1054   23764555.4804
      1447.2854
  -1227597.83248   -947496.66447  21906112.8714   21906110.0354
     -1644.7664
  -9092735.70348  -7082801.28545  22618339.3554   22618335.4494
      1312.0474
 04  9 14 16 26 15.0040000  0  6G 1G11G14G23G25G20
  -2924533.21949  -2270718.12946  21647571.1604   21647568.6644
      -679.2904
   3901374.71149   3044820.40645  22711800.5514   22711797.2384
     -2494.7594
  21920198.49647  17056746.32042  25114973.1764   25114969.9304
     -3821.5254
  -5176581.77747  -4026056.52344  23760438.3244   23760433.3364
      1444.1524
  -1202799.28549   -928173.12147  21910832.0904   21910828.8794
     -1653.2364
  -9112358.98848  -7098092.14845  22614605.1214   22614601.3794
      1308.2194
 04  9 14 16 26 30.0040000  0  6G 1G11G14G23G25G20
  -2914272.45349  -2262722.72346  21649523.8094   21649520.9844
      -684.0514
   3938915.35949   3074072.85245  22718943.8404   22718940.3404
     -2502.7104
  21977525.14147  17101416.41442  25125881.2774   25125879.1254
     -3821.7764
  -5198196.39848  -4042899.06244  23756325.4024   23756320.2074
      1440.9754
  -1177873.32848   -908750.29347  21915575.3714   21915572.3714
     -1661.7304
  -9131923.91448  -7113337.53945  22610881.9184   22610878.3364
      1304.3284
 04  9 14 16 26 45.0040000  0  6G 1G11G14G23G25G20
  -2903940.53149  -2254671.87546  21651489.8484   21651487.2074
      -688.7954
   3976574.92649   3103417.96145  22726110.7154   22726107.1644
     -2510.6384
  22034855.25447  17146089.20742  25136790.9184   25136788.2074
     -3822.0084
  -5219763.60548  -4059704.66444  23752221.2774   23752216.3404
      1437.8144
  -1152820.22749   -889228.39547  21920343.1374   21920339.6174
     -1670.2074
  -9151430.46148  -7128537.44545  22607169.9104   22607166.1294
      1300.4364
 04  9 14 16 27  0.0040000  0  6G 1G11G14G23G25G20
  -2893537.88349  -2246565.91047  21653469.2544   21653466.6644
      -693.5104
   4014352.77049   3132855.23445  22733299.5514   22733295.7814
     -2518.5234
  22092188.40647  17190764.35542  25147701.6604   25147698.9534
     -3822.2104
  -5241283.74647  -4076473.58644  23748126.1294   23748120.6054
      1434.6764
  -1127640.43049   -869607.77746  21925134.5124   21925131.4304
     -1678.6534
  -9170878.80948  -7143691.99645  22603468.9964   22603465.5784
      1296.5574
 04  9 14 16 27 15.0040000  0  6G 1G11G14G23G25G20
  -2883064.17649  -2238404.57847  21655462.6294   21655459.6844
      -698.2474
   4052249.10248   3162384.83245  22740511.1684   22740507.2154
     -2526.4224
  22149524.88347  17235442.06342  25158611.8794   25158609.6214
     -3822.4324
  -5262756.24647  -4093205.39144  23744040.2694   23744034.9184
      1431.5004
  -1102333.80949   -849888.32446  21929949.9264   21929947.1414
     -1687.1084
  -9190268.35548  -7158800.73045  22599779.3094   22599775.4224
      1292.6364
 04  9 14 16 27 30.0040000  0  6G 1G11G14G23G25G20
  -2872518.25449  -2230186.98047  21657469.4104   21657466.5274
      -703.0614
   4090264.94949   3192007.56645  22747745.0824   22747741.4924
     -2534.3904
  22206865.94147  17280123.38342  25169523.5984   25169520.6414
     -3822.7374
  -5284179.86348  -4109899.10244  23739963.3634   23739958.0594
      1428.2414
  -1076899.09049   -830069.06647  21934790.3244   21934787.1604
     -1695.6484
  -9209597.57448  -7173862.45745  22596101.0274   22596097.3164
      1288.6154
 04  9 14 16 27 45.0040000  0  6G 1G11G14G23G25G20
  -2861901.54349  -2221914.21147  21659489.5594   21659486.6214
      -707.7814
   4128398.57048   3221722.06345  22755001.9574   22754998.4344
     -2542.2414
  22264210.06347  17324807.09442  25180435.8094   25180433.1804
     -3822.9414
  -5305555.85947  -4126555.69944  23735895.2304   23735890.1094
      1425.0664
  -1051337.86749   -810151.22346  21939654.2694   21939651.3054
     -1704.0824
  -9228867.61349  -7188878.06645  22592434.1914   22592430.5004
      1284.6694
 04  9 14 16 28  0.0040000  0  6G 1G11G14G23G25G20
  -2851214.60249  -2213586.72347  21661523.5434   21661520.4024
      -712.4634
   4166649.26249   3251527.78545  22762280.7624   22762277.1444
     -2550.0464
  22321556.75847  17369492.80942  25191349.1444   25191346.0234
     -3823.1134
  -5326884.78547  -4143175.62544  23731836.7464   23731831.2424
      1421.9284
  -1025650.89549   -790135.40246  21944542.0984   21944539.0234
     -1712.4654
  -9248078.60548  -7203847.66445  22588778.2154   22588774.7694
      1280.7334
 04  9 14 16 28 15.0040000  0  6G 1G11G14G23G25G20
  -2840455.36749  -2205202.90246  21663571.1444   21663568.0624
      -717.2824
   4205019.12149   3281426.37545  22769582.2234   22769578.5434
     -2557.9914
  22378908.12147  17414182.17642  25202262.5434   25202260.2894
     -3823.4244
  -5348164.46148  -4159757.18044  23727787.6524   23727782.1684
      1418.6454
   -999836.13749   -770020.00846  21949454.8554   21949451.6334
     -1720.9844
  -9267228.26249  -7218769.46145  22585134.1294   22585130.5824
      1276.6444
 04  9 14 16 28 30.0040000  0  6G 1G11G14G23G25G20
  -2829625.65249  -2196764.16446  21665631.5194   21665628.4884
      -721.9814
   4243506.23849   3311416.32045  22776905.8244   22776902.2464
     -2565.8084
  22436262.28147  17458873.67642  25213176.8554   25213174.3594
     -3823.6114
  -5369396.47348  -4176301.58644  23723747.3554   23723741.5744
      1415.4674
   -973895.44149   -749806.46946  21954391.4264   21954388.0434
     -1729.3804
  -9286318.05548  -7233644.62145  22581501.8554   22581497.8404
      1272.6534
 04  9 14 16 28 45.0040000  0  6G 1G11G14G23G25G20
  -2818724.59849  -2188269.82847  21667706.0124   21667702.8674
      -726.7374
   4282111.13349   3341498.05145  22784252.0274   22784248.6844
     -2573.6604
  22493620.08647  17503568.03142  25224091.4574   25224088.8754
     -3823.8544
  -5390580.01248  -4192808.21944  23719716.1134   23719710.6764
      1412.2364
   -947827.98849   -729494.17246  21959351.6134   21959348.3324
     -1737.8304
  -9305346.79748  -7248472.20745  22577880.8244   22577876.7894
      1268.5834
 04  9 14 16 29  0.0040000  0  6G 1G11G14G23G25G20
  -2807752.84449  -2179720.41047  21669793.7934   21669791.1054
      -731.4504
   4320833.00049   3371670.93445  22791620.7934   22791617.3014
     -2581.4584
  22550980.94947  17548264.79342  25235006.9654   25235004.3204
     -3824.0584
  -5411715.45348  -4209277.38744  23715694.0664   23715688.6804
      1409.0294
   -921634.46949   -709083.63346  21964336.2544   21964332.8484
     -1746.2354
  -9324314.75449  -7263252.42245  22574271.1054   22574267.5164
      1264.5304
 04  9 14 16 29 15.0040000  0  6G 1G11G14G23G25G20
  -2796711.82049  -2171117.01647  21671894.7694   21671892.1524
      -736.0684
   4359670.39849   3401933.82445  22799011.5044   22799007.9104
     -2589.1604
  22608343.51246  17592962.85942  25245922.8014   25245920.2304
     -3824.1714
  -5432804.11748  -4225710.09444  23711681.1444   23711676.0744
      1405.9114
   -895316.34048   -688576.00446  21969344.1374   21969340.7544
     -1754.5424
  -9343223.04748  -7277986.15245  22570672.9654   22570669.3634
      1260.5534
 04  9 14 16 29 30.0040000  0  6G 1G11G14G23G25G20
  -2785599.58248  -2162458.12547  21674009.7384   21674006.8834
      -740.8164
   4398625.11349   3432288.14145  22806424.0044   22806420.6254
     -2596.9814
  22665709.60546  17637663.68842  25256838.4024   25256836.5394
     -3824.4064
  -5453843.98448  -4242104.77744  23707677.0514   23707672.4104
      1402.6584
   -868871.60548   -667969.71946  21974376.4804   21974373.6374
     -1762.9824
  -9362069.43748  -7292671.64145  22567086.4494   22567082.7694
      1256.4264
 04  9 14 16 29 45.0040000  0  6G 1G11G14G23G25G20
  -2774417.14548  -2153744.53547  21676137.2934   21676134.6764
      -745.4964
   4437695.88749   3462732.89545  22813859.2774   22813855.7464
     -2604.7184
  22723078.22346  17682366.47342  25267756.1214   25267752.7544
     -3824.5744
  -5474835.95348  -4258462.14144  23703682.6684   23703677.1054
      1399.4654
   -842301.56249   -647265.77746  21979432.7544   21979429.3124
     -1771.3364
  -9380854.62948  -7307309.44946  22563512.0984   22563508.2774
      1252.3464
 04  9 14 16 30  0.0040000  0  6G 1G11G14G23G25G20
  -2763164.60949  -2144976.32447  21678278.5194   21678275.8324
      -750.1694
   4476882.56649   3493267.96145  22821316.1214   22821312.6294
     -2612.4454
  22780449.38746  17727071.24642  25278673.1764   25278670.7274
     -3824.7444
  -5495779.83248  -4274782.03544  23699697.3324   23699691.8524
      1396.2594
   -815606.46149   -626464.39847  21984512.6914   21984509.4964
     -1779.6734
  -9399578.46548  -7321899.44945  22559949.1684   22559945.2344
      1248.2564
 04  9 14 16 30 15.0040000  0  6G 1G11G14G23G25G20
  -2751842.95748  -2136154.25447  21680433.1134   21680430.3944
      -754.7774
   4516184.00849   3523892.45345  22828794.8324   22828791.5354
     -2620.0964
  22837822.07446  17771777.22342  25289590.8014   25289588.4064
     -3824.8464
  -5516676.68048  -4291065.27044  23695720.8014   23695715.1954
      1393.1234
   -788787.19948   -605566.27047  21989616.2074   21989612.7074
     -1787.9514
  -9418241.43748  -7336442.01645  22556397.4104   22556393.5624
      1244.1984
 04  9 14 16 30 30.0040000  0  6G 1G11G14G23G25G20
  -2740452.97748  -2127278.94947  21682600.6214   21682597.7304
      -759.3324
   4555599.18049   3554605.56345  22836295.2464   22836291.7304
     -2627.6784
  22895195.39846  17816483.68842  25300508.8554   25300506.0354
     -3824.8884
  -5537527.25448  -4307312.45744  23691752.8014   23691747.6914
      1390.0384
   -761844.67248   -584572.09046  21994743.0514   21994739.8284
     -1796.1684
  -9436844.16848  -7350937.64145  22552857.1294   22552853.9844
      1240.1824
 04  9 14 16 30 45.0040000  0  6G 1G11G14G23G25G20
  -2728995.81248  -2118351.28147  21684780.9264   21684777.9534
      -763.8114
   4595126.77049   3585406.27345  22843817.2154   22843813.8794
     -2635.1734
  22952568.37544  17861189.87942  25311426.2304   25311423.2114
     -3824.8654
  -5558332.46548  -4323524.29744  23687793.8164   23687788.4534
      1387.0144
   -734780.22348   -563482.90646  21999892.8014   21999889.9774
     -1804.2974
  -9455387.45348  -7365386.95345  22549329.2384   22549325.1174
      1236.2194
 04  9 14 16 31  0.0040000  0  6G 1G11G14G23G25G20
  -2717470.33249  -2109370.38746  21686973.8324   21686971.2154
      -768.3654
   4634767.86749   3616295.43045  22851360.4344   22851357.2384
     -2642.7404
  23009941.95345  17905896.52342  25322344.2934   25322341.4574
     -3824.9054
  -5579091.00447  -4339699.76644  23683843.7304   23683837.8244
      1383.9034
   -707592.75448   -542297.86747  22005066.7074   22005063.7034
     -1812.4984
  -9473869.89848  -7379788.84445  22545811.7774   22545807.8984
      1232.1634
 04  9 14 16 31 15.0040000  0  6G 1G11G14G23G25G20
  -2705876.53148  -2100336.25046  21689180.3714   21689177.3324
      -772.9204
   4674522.22349   3647272.83645  22858925.9024   22858922.1764
     -2650.2904
  23067316.32045  17950603.78142  25333261.7304   25333259.9494
     -3824.9584
  -5599802.83648  -4355838.84044  23679902.0434   23679896.4614
      1380.7894
   -680282.37148   -521017.04347  22010263.6294   22010260.1994
     -1820.6924
  -9492291.04748  -7394142.98045  22542306.4344   22542302.6294
      1228.0774
 04  9 14 16 31 30.0040000  0  6G 1G11G14G23G25G20
  -2694215.32849  -2091249.59447  21691399.2304   21691396.0664
      -777.4144
   4714388.74648   3678337.65645  22866511.8094   22866508.9064
     -2657.7684
  23124690.39845  17995310.81641  25344180.2464   25344178.0474
     -3824.9394
  -5620468.80147  -4371942.17244  23675969.4264   23675963.8014
      1377.7314
   -652850.00448   -499641.16846  22015484.1684   22015480.8014
     -1828.8244
  -9510651.51248  -7408449.83245  22538812.4184   22538809.0984
      1224.0314
 04  9 14 16 31 45.0040000  0  6G 1G11G14G23G25G20
  -2682485.71149  -2082109.62946  21693631.5044   21693628.6214
      -781.9744
   4754368.31649   3709490.55545  22874120.0354   22874116.6684
     -2665.3054
  23182065.35545  18040018.52042  25355098.6294   25355095.8874
     -3824.9974
  -5641087.75048  -4388008.87544  23672045.8554   23672040.5784
      1374.5974
   -625294.65649   -478169.46947  22020727.5044   22020724.2774
     -1837.0234
  -9528949.95748  -7422708.35245  22535330.1994   22535326.6294
      1219.8964
 04  9 14 16 32  0.0040000  0  6G 1G11G14G23G25G20
  -2670688.01649  -2072916.62147  21695876.3014   21695873.8914
      -786.5134
   4794460.43849   3740731.15645  22881749.3244   22881745.7344
     -2672.8084
  23239440.73845  18084726.64141  25366016.5194   25366013.1914
     -3825.0264
  -5661659.76248  -4404038.98844  23668131.1844   23668126.0234
      1371.4674
   -597616.81649   -456602.32047  22025994.2464   22025991.2384
     -1845.1894
  -9547186.43749  -7436918.59045  22531859.9264   22531856.5664
      1215.7654
 04  9 14 16 32 15.0040000  0  6G 1G11G14G23G25G20
  -2658823.34049  -2063671.41847  21698134.2154   21698131.2304
      -790.9784
   4834663.82848   3772058.46945  22889399.5824   22889395.8594
     -2680.2264
  23296815.57444  18129434.33241  25376934.9734   25376931.8204
     -3824.9894
  -5682186.00447  -4420033.45344  23664224.9024   23664219.9184
      1368.4164
   -569817.84449   -434940.78147  22031284.4024   22031281.4964
     -1853.2654
  -9565361.73848  -7451081.16045  22528401.6374   22528397.8484
      1211.6874
 04  9 14 16 32 30.0040000  0  6G 1G11G14G23G25G20
  -2646891.59449  -2054373.94946  21700404.4804   21700401.7114
      -795.4504
   4874978.42249   3803472.43445  22897071.4414   22897067.7854
     -2687.6404
  23354189.85543  18174141.47741  25387852.5274   25387850.2584
     -3824.9524
  -5702666.26648  -4435992.08244  23660327.6524   23660322.8054
      1365.3514
   -541897.64549   -413184.77746  22036597.4494   22036594.3674
     -1861.3474
  -9583475.41849  -7465195.71146  22524954.5594   22524950.9304
      1207.5794
 04  9 14 16 32 45.0040000  0  6G 1G11G14G23G25G20
  -2634892.67649  -2045024.13746  21702688.2234   21702685.1334
      -799.9284
   4915404.08648   3834972.94145  22904764.1604   22904760.8204
     -2695.0444
  23411563.92244  18218848.48841  25398771.4344   25398767.2504
     -3824.9384
  -5723100.23448  -4451914.64144  23656439.2384   23656433.7974
      1362.2654
   -513856.14149   -391334.25446  22041933.6524   22041930.5164
     -1869.4344
  -9601527.09849  -7479261.94146  22521519.2934   22521515.2274
      1203.4454
 04  9 14 16 33  0.0040000  0  6G 1G11G14G23G25G20
  -2622826.56649  -2035621.97346  21704984.1374   21704981.1134
      -804.4074
   4955940.77349   3866559.96945  22912478.2464   22912474.6444
     -2702.4464
  23468937.56354  18263555.24251  25409689.0274   25409685.3634
     -3824.9234
  -5743487.75048  -4467801.00844  23652559.6054   23652554.1214
      1359.1684
   -485693.41049   -369389.26646  22047292.6214   22047289.6954
     -1877.5154
  -9619516.38349  -7493279.56245  22518096.0824   22518092.3834
      1199.2864
 04  9 14 16 33 15.0040000  0  6G 1G11G14G23G25G20
  -2610693.14149  -2026167.35546  21707292.4654   21707290.0274
      -808.8954
   4996588.34049   3898233.39145  22920213.0194   22920209.1374
     -2709.8384
  23526311.12954  18308261.83651  25420607.4024   25420602.6644
     -3824.9094
  -5763828.62948  -4483651.02344  23648688.9414   23648683.7304
      1356.0594
   -457409.42649   -347349.79746  22052675.1914   22052671.7664
     -1885.5994
  -9637442.77049  -7507248.16445  22514684.7774   22514681.1374
      1195.0924
 04  9 14 16 33 30.0040000  0  6G 1G11G14G23G25G20
  -2598491.64849  -2016659.69146  21709614.6524   21709612.0434
      -813.4334
   5037347.51649   3929993.77745  22927969.2154   22927965.6054
     -2717.2784
  23583685.12543  18352968.79741  25431524.1994   25431520.3484
     -3824.9334
  -5784122.04348  -4499464.05944  23644827.3874   23644821.8834
      1352.8944
   -429003.49249   -325215.30946  22058080.6764   22058077.3674
     -1893.7294
  -9655305.16048  -7521166.91445  22511285.8164   22511282.0394
      1190.8264
 04  9 14 16 33 45.0040000  0  6G 1G11G14G23G25G20
  -2586223.36749  -2007099.98846  21711949.3554   21711946.5784
      -817.8854
   5078216.84049   3961839.99245  22935746.3164   22935742.7344
     -2724.6224
  23641058.49644  18397675.32841  25442442.5904   25442438.5474
     -3824.8914
  -5804369.12548  -4515240.99644  23640974.4264   23640968.8674
      1349.8054
   -400477.01249   -302986.87946  22063508.9344   22063505.6804
     -1901.7654
  -9673104.66449  -7535036.64545  22507898.4574   22507894.8554
      1186.6344
 04  9 14 16 34  0.0040000  0  5G 1G11G23G25G20
  -2573887.48849  -1997487.61347  21714296.7854   21714293.9574
      -822.3924
   5119196.93449   3993772.52045  22943544.4734   22943541.3094
     -2732.0064
  -5824568.90248  -4530981.06644  23637130.4494   23637125.2694
      1346.6524
   -371829.22749   -280663.93047  22068960.3484   22068957.3754
     -1909.8524
  -9690840.07049  -7548856.43445  22504523.4884   22504519.9144
      1182.3604
 04  9 14 16 34 15.0040000  0  5G 1G11G23G25G20
  -2561483.42649  -1987822.11347  21716657.1294   21716654.5084
      -826.9374
   5160288.29349   4025791.75045  22951364.0194   22951360.6254
     -2739.4244
  -5844720.60248  -4546683.68744  23633295.9104   23633290.3634
      1343.4474
   -343059.56249   -258246.00846  22074435.0124   22074431.9344
     -1917.9784
  -9708510.32849  -7562625.46545  22501161.1994   22501157.7074
      1178.0174
 04  9 14 16 34 30.0040000  0  5G 1G11G23G25G20
  -2549010.85249  -1978103.21947  21719030.4024   21719027.9924
      -831.5054
   5201490.85948   4057897.63745  22959204.6684   22959201.0434
     -2746.8384
  -5864823.86348  -4562348.55944  23629470.2774   23629464.4304
      1340.2174
   -314167.89849   -235733.02347  22079932.9574   22079929.6804
     -1926.1114
  -9726114.98849  -7576343.37946  22497811.1604   22497807.3714
      1173.6444
 04  9 14 16 34 45.0040000  0  5G 1G11G23G25G20
  -2536468.11349  -1968329.65647  21721417.4654   21721414.7814
      -836.1834
   5242806.19148   4090091.38745  22967066.6604   22967062.9694
     -2754.3554
  -5884877.03548  -4577974.39144  23625654.2464   23625648.8634
      1336.8784
   -285152.69549   -213123.77347  22085454.4184   22085451.1294
     -1934.3474
  -9743652.05149  -7590008.61346  22494473.6844   22494469.7504
      1169.1384
 04  9 14 16 35  0.0040000  0  5G 1G11G23G25G20
  -2523855.80549  -1958501.88346  21723817.4654   21723814.9144
      -840.8214
   5284233.59048   4122372.46945  22974950.4184   22974946.5944
     -2761.8274
  -5904880.44548  -4593561.45744  23621847.8944   23621842.3124
      1333.5614
   -256014.55549   -190418.72347  22090998.9734   22090996.0234
     -1942.5434
  -9761121.66849  -7603621.30145  22491149.4414   22491145.6684
      1164.6414
 04  9 14 16 35 15.0040000  0  5G 1G11G23G25G20
  -2511173.52349  -1948619.58247  21726230.6374   21726228.1804
      -845.4854
   5325773.16848   4154740.96545  22982854.7774   22982851.3674
     -2769.3054
  -5924833.57848  -4609109.34044  23618051.0514   23618045.4534
      1330.2094
   -226753.26249   -167617.71547  22096567.4884   22096564.0864
     -1950.7534
  -9778523.19549  -7617180.92646  22487838.3874   22487834.5624
      1160.1024
 04  9 14 16 35 30.0040000  0  5G 1G11G23G25G20
  -2498421.28149  -1938682.77047  21728657.3874   21728654.5314
      -850.1494
   5367424.80948   4187196.77345  22990780.9964   22990777.4264
     -2776.7764
  -5944736.44548  -4624618.05144  23614263.5044   23614258.0744
      1326.8584
   -197368.91849   -144720.81647  22102159.3094   22102155.9884
     -1958.9564
  -9795856.26248  -7630687.21146  22484539.9104   22484536.3164
      1155.5384
 04  9 14 16 35 45.0040000  0  5G 1G11G23G25G20
  -2485599.25449  -1928691.57447  21731097.7854   21731094.7034
      -854.8024
   5409188.15648   4219739.63745  22998728.1214   22998724.8404
     -2784.2234
  -5964589.05948  -4640087.61344  23610485.6844   23610480.0944
      1323.5084
   -167861.71149   -121728.18747  22107774.3164   22107770.9614
     -1967.1474
  -9813120.79349  -7644140.07445  22481254.5194   22481250.8944
      1150.9694
 04  9 14 16 36  0.0040000  0  5G 1G11G23G25G20
  -2472707.42649  -1918645.99247  21733550.6604   21733547.7934
      -859.4554
   5451063.10248   4252369.45745  23006696.7464   23006693.4024
     -2791.6634
  -5984391.24648  -4655517.87944  23606717.4574   23606711.8944
      1320.1464
   -138231.81249    -98639.95347  22113412.3324   22113409.1444
     -1975.3274
  -9830316.36349  -7657539.22345  22477981.9884   22477978.5664
      1146.3714
 04  9 14 16 36 15.0040000  0  5G 1G11G23G25G20
  -2459746.43049  -1908546.51247  21736017.0354   21736014.0624
      -864.0664
   5493048.86348   4285085.61745  23014686.1374   23014682.7114
     -2799.0514
  -6004143.52048  -4670909.25044  23602958.4884   23602953.1764
      1316.8184
   -108479.90249    -75456.65247  22119074.0194   22119070.7424
     -1983.4614
  -9847443.30549  -7670884.88746  22474723.0124   22474719.5864
      1141.7964
 04  9 14 16 36 30.0040000  0  5G 1G11G23G25G20
  -2446716.77349  -1898393.53947  21738496.4884   21738493.8054
      -868.6444
   5535144.59848   4317887.48445  23022696.6844   23022693.5314
     -2806.3824
  -6023846.33248  -4686262.07844  23599208.8874   23599203.4734
      1313.5214
    -78606.71549    -52178.84447  22124758.8164   22124755.6994
     -1991.5464
  -9864501.81649  -7684177.22346  22471476.9104   22471473.3404
      1137.2344
 04  9 14 16 36 45.0040000  0  5G 1G11G23G25G20
  -2433619.48849  -1888187.85946  21740988.7384   21740985.9614
      -873.1524
   5577349.25048   4350774.21145  23030728.5594   23030724.6094
     -2813.6434
  -6043500.56248  -4701577.04744  23595468.9344   23595463.5984
      1310.2824
    -48613.30949    -28807.35546  22130466.4344   22130462.9804
     -1999.5604
  -9881492.60548  -7697416.79345  22468243.7464   22468240.1804
      1132.7194
 04  9 14 16 37  0.0040000  0  5G 1G11G23G25G20
  -2420453.90649  -1877928.96547  21743494.2304   21743491.5744
      -877.7054
   5619663.20348   4383746.12145  23038780.2074   23038776.5784
     -2820.9304
  -6063105.50048  -4716853.61344  23591738.2694   23591733.0084
      1306.9964
    -18499.17649     -5341.79346  22136197.0594   22136193.5164
     -2007.6094
  -9898414.74248  -7710602.86746  22465023.7544   22465019.9104
      1128.1424
 04  9 14 16 37 15.0040000  0  5G 1G11G23G25G20
  -2407219.69549  -1867616.60246  21746012.9654   21746009.7344
      -882.2814
   5662086.56348   4416803.26645  23046853.1374   23046849.7934
     -2828.2244
  -6082660.71148  -4732091.42244  23588016.5984   23588011.6764
      1303.6814
     11735.80549     18217.93047  22141950.0824   22141947.3524
     -2015.6654
  -9915267.49649  -7723734.87946  22461816.4344   22461813.2894
      1123.5174
 04  9 14 16 37 30.0040000  0  5G 1G11G23G25G20
  -2393917.32849  -1857251.12146  21748544.0434   21748541.1954
      -886.8244
   5704618.77748   4449945.25445  23054946.8324   23054943.1254
     -2835.4814
  -6102166.48448  -4747290.71144  23584305.1524   23584300.0984
      1300.3854
     42091.32049     41871.57846  22147726.7154   22147723.5864
     -2023.7014
  -9932050.99248  -7736812.91846  22458622.5594   22458619.1174
      1118.9004
 04  9 14 16 37 45.0040000  0  5G 1G11G23G25G20
  -2380547.47349  -1846833.03946  21751088.1604   21751085.3914
      -891.3244
   5747259.01648   4483171.39845  23063061.1214   23063057.4534
     -2842.6834
  -6121623.33248  -4762451.87944  23580602.7464   23580597.2114
      1297.1234
     72566.64549     65618.58646  22153526.2464   22153523.1334
     -2031.6884
  -9948765.51648  -7749837.21946  22455441.9264   22455438.3634
      1114.3024
 04  9 14 16 38  0.0040000  0  5G 1G11G23G25G20
  -2367108.57049  -1836361.17247  21753645.4884   21753642.6214
      -895.9274
   5790008.64848   4516482.78945  23071195.9344   23071192.7584
     -2849.9764
  -6141029.63748  -4777573.66044  23576909.9804   23576904.6254
      1293.7544
    103163.19149     89460.05146  22159348.3874   22159345.2624
     -2039.7704
  -9965409.23848  -7762806.34846  22452274.6054   22452271.1294
      1109.5824
 04  9 14 16 38 15.0040000  0  5G 1G11G23G25G20
  -2353600.67649  -1825835.54347  21756215.9654   21756213.2114
      -900.5264
   5832867.46948   4549879.25844  23079351.5904   23079348.4184
     -2857.2554
  -6160385.32448  -4792656.01644  23573226.6374   23573220.9414
      1290.3794
    133880.61349    113395.70747  22165193.9344   22165190.6644
     -2047.8284
  -9981981.89148  -7775720.10246  22449120.9734   22449117.5434
      1104.8434
 04  9 14 16 38 30.0040000  0  5G 1G11G23G25G20
  -2340023.35248  -1815255.80547  21758799.7384   21758796.9774
      -905.1554
   5875835.59448   4583360.90645  23087528.5274   23087524.6334
     -2864.5424
  -6179689.81648  -4807698.45744  23569553.0904   23569548.0314
      1286.9664
    164719.29349    137425.84047  22171061.9104   22171059.0704
     -2055.9124
  -9998482.71948  -7788577.88746  22445980.9024   22445977.1024
      1100.0554
 04  9 14 16 38 45.0040000  0  5G 1G11G23G25G20
  -2326376.55949  -1804621.94146  21761396.7774   21761394.0004
      -909.7864
   5918912.85948   4616927.59845  23095725.4104   23095722.1874
     -2871.8184
  -6198942.99248  -4822700.92244  23565889.2234   23565884.1174
      1283.5454
    195679.23049    161550.47346  22176953.8014   22176950.4844
     -2063.9964
 -10014911.25048  -7801379.33646  22442854.8324   22442851.1334
      1095.2354
 04  9 14 16 39  0.0040000  0  5G 1G11G23G25G20
  -2312661.52048  -1793934.89547  21764006.4804   21764003.8364
      -914.3364
   5962097.95748   4650578.30945  23103943.4574   23103940.1724
     -2879.0074
  -6218145.91448  -4837664.23044  23562234.9884   23562229.5624
      1280.1954
    226759.22349    185768.65247  22182868.1374   22182864.9494
     -2071.9994
 -10031268.35548  -7814125.12546  22439742.2234   22439738.4924
      1090.4744
 04  9 14 16 39 15.0040000  0  5G 1G11G23G25G20
  -2298878.52049  -1783194.89546  21766629.6294   21766626.5624
      -918.8674
   6005390.43848   4684312.70345  23112181.5744   23112178.4494
     -2886.1654
  -6237298.83648  -4852588.58244  23558590.8244   23558584.8794
      1276.8614
    257958.59449    210079.84847  22188804.9024   22188801.7424
     -2079.9584
 -10047554.24249  -7826815.42245  22436642.9024   22436639.2894
      1085.7264
 04  9 14 16 39 30.0040000  0  5G 1G11G23G25G20
  -2285025.76249  -1772400.53547  21769265.2304   21769262.6374
      -923.5174
   6048791.83248   4718131.95344  23120440.6524   23120437.3524
     -2893.4264
  -6256399.87148  -4867472.49244  23554955.9024   23554949.9414
      1273.4024
    289279.03949    234485.38747  22194765.0824   22194762.0824
     -2088.0304
 -10063766.68448  -7839448.49246  22433557.9414   22433554.2774
      1080.8294
 04  9 14 16 39 45.0040000  0  5G 1G11G23G25G20
  -2271104.43749  -1761552.75047  21771914.3794   21771911.6174
      -928.0884
   6092300.75048   4752035.00044  23128720.1604   23128716.5594
     -2900.5954
  -6275450.03948  -4882316.76644  23551330.9024   23551325.3054
      1270.0114
    320719.40249    258984.37146  22200747.8484   22200744.8204
     -2096.0244
 -10079906.48049  -7852024.95346  22430486.7154   22430483.1094
      1075.9864
 04  9 14 16 40  0.0040000  0  5G 1G11G23G25G20
  -2257113.76249  -1750650.92647  21774576.5904   21774573.9494
      -932.7124
   6135917.80948   4786022.30945  23137020.3324   23137016.7814
     -2907.8044
  -6294448.47748  -4897120.73444  23547715.3014   23547709.5744
      1266.5634
    352280.28149    283577.26646  22206753.9734   22206750.6374
     -2104.0594
 -10095972.55949  -7864543.97746  22427429.3714   22427425.7274
      1071.0724
 04  9 14 16 40 15.0040000  0  5G 1G11G23G25G20
  -2243053.35249  -1739694.75847  21777252.5354   21777249.9454
      -937.3614
   6179643.21948   4820094.04745  23145340.8484   23145337.6444
     -2915.0274
  -6313394.65648  -4911883.98444  23544109.3014   23544104.2234
      1263.0794
    383961.98449    308264.30147  22212782.8094   22212779.3444
     -2112.1144
 -10111964.25449  -7877005.02746  22424386.2464   22424382.6764
      1066.1134
 04  9 14 16 40 30.0040000  0  5G 1G11G23G25G20
  -2228923.47749  -1728684.47347  21779941.3404   21779938.5354
      -941.9924
   6223476.53548   4854249.87145  23153682.3944   23153678.9264
     -2922.2214
  -6332288.72748  -4926606.62544  23540514.3324   23540509.2664
      1259.6054
    415764.10549    333045.17247  22218834.4104   22218831.0904
     -2120.1414
 -10127881.32049  -7889407.93446  22421357.1214   22421354.0044
      1061.1384
 04  9 14 16 40 45.0040000  0  5G 1G11G23G25G20
  -2214725.12949  -1717620.82047  21782642.8944   21782640.4694
      -946.5574
   6267416.50448   4888488.78945  23162043.7934   23162040.1134
     -2929.3314
  -6351131.57448  -4941289.35544  23536928.4414   23536923.5904
      1256.1904
    447685.65649    357919.11346  22224908.9184   22224905.7464
     -2128.1034
 -10143724.51249  -7901753.27046  22418342.6684   22418338.7384
      1056.2134
 04  9 14 16 41  0.0040000  0  5G 1G11G23G25G20
  -2200456.85549  -1706502.68446  21785358.4884   21785355.3794
      -951.2184
   6311464.40648   4922811.82445  23170425.4734   23170422.1564
     -2936.5274
  -6369921.68748  -4955930.98444  23533353.0904   23533347.7234
      1252.6744
    479727.87949    382887.07846  22231006.0434   22231003.3014
     -2136.1484
 -10159492.11349  -7914039.71546  22415341.7854   22415338.2304
      1051.1734
 04  9 14 16 41 15.0040000  0  5G 1G11G23G25G20
  -2186119.26649  -1695330.53946  21788086.4494   21788083.5904
      -955.8394
   6355619.47348   4957218.36344  23178828.0984   23178824.3874
     -2943.6714
  -6388659.53548  -4970531.89544  23529787.3944   23529782.2304
      1249.1904
    511889.97349    407948.44546  22237126.6214   22237123.4024
     -2144.1404
 -10175184.44149  -7926267.49646  22412356.0044   22412352.1844
      1046.1554
 04  9 14 16 41 30.0040000  0  5G 1G11G23G25G20
  -2171712.62549  -1684104.58247  21790828.3484   21790825.3094
      -960.4434
   6399881.22748   4991708.02745  23187250.7544   23187247.2694
     -2950.7844
  -6407345.22748  -4985092.16844  23526231.6764   23526226.0824
      1245.7134
    544171.69949    433103.03547  22243269.7774   22243266.3524
     -2152.1154
 -10190801.28549  -7938436.46546  22409384.2464   22409380.4924
      1041.1234
 04  9 14 16 41 45.0040000  0  5G 1G11G23G25G20
  -2157235.93449  -1672824.04347  21793583.3484   21793579.9494
      -965.1134
   6444250.42248   5026281.42244  23195693.7854   23195690.6374
     -2957.9464
  -6425977.73048  -4999610.99244  23522685.7854   23522680.4304
      1242.1674
    576573.80549    458351.43847  22249435.6294   22249431.9694
     -2160.1404
 -10206341.37549  -7950545.62946  22406426.8014   22406423.2974
      1036.0064
 04  9 14 16 42  0.0040000  0  5G 1G11G23G25G20
  -2142688.99249  -1661488.76647  21796350.8554   21796348.3674
      -969.7964
   6488727.16448   5060938.61344  23204157.5044   23204154.5044
     -2965.1164
  -6444556.64149  -5014088.06244  23519150.5984   23519144.9574
      1238.5944
    609096.43849    483693.75046  22255624.4574   22255620.9694
     -2168.1764
 -10221804.20349  -7962594.58246  22403484.4964   22403480.5514
      1030.8554
 04  9 14 16 42 15.0040000  0  5G 1G11G23G25G20
  -2128072.12549  -1650099.00446  21799132.9024   21799129.8014
      -974.4584
   6533310.79348   5095679.08244  23212641.4574   23212638.4694
     -2972.2424
  -6463082.19948  -5028523.55944  23515625.5664   23515619.7664
      1235.0374
    641739.19949    509129.66047  22261836.0434   22261832.5624
     -2176.1844
 -10237189.72749  -7974583.29746  22400556.6844   22400553.1604
      1025.7024
 04  9 14 16 42 30.0040000  0  5G 1G11G23G25G20
  -2113385.82849  -1638655.13747  21801927.1914   21801924.6214
      -979.0864
   6578000.71948   5130502.38744  23221146.1444   23221143.0664
     -2979.3284
  -6481554.85548  -5042917.82444  23512109.7154   23512104.6094
      1231.5104
    674501.33249    534658.59846  22268070.6914   22268067.2584
     -2184.1424
 -10252498.10949  -7986511.90646  22397643.4024   22397639.5124
      1020.5594
 04  9 14 16 42 45.0040000  0  5G 1G11G23G25G20
  -2098628.68749  -1627156.06247  21804735.4964   21804732.8594
      -983.8094
   6622798.02748   5165409.37544  23229670.5744   23229667.2934
     -2986.4874
  -6499972.96948  -5057269.59044  23508605.1524   23508599.7734
      1227.8744
    707384.12149    560281.54746  22274328.1214   22274324.7814
     -2192.1864
 -10267727.59449  -7998379.03546  22394745.5514   22394741.8324
      1015.2994
 04  9 14 16 43  0.0040000  0  5G 1G11G23G25G20
  -2083799.60549  -1615600.94146  21807557.5124   21807554.5234
      -988.6054
   6667703.66048   5200400.77045  23238215.7854   23238212.8914
     -2993.7094
  -6518335.37148  -5071577.94544  23505110.8554   23505105.3674
      1224.1604
    740388.64849    585999.36347  22280608.3554   22280605.5664
     -2200.3024
 -10282876.86749  -8010183.66046  22391862.5984   22391858.7074
      1009.9524
 04  9 14 16 43 15.0040000  0  5G 1G11G23G25G20
  -2068900.32849  -1603991.11346  21810392.9184   21810389.8634
      -993.2854
   6712715.89548   5235475.22344  23246781.4884   23246778.4804
     -3000.8164
  -6536643.72348  -5085844.18744  23501627.0824   23501621.7344
      1220.5574
    773513.05949    611810.58246  22286912.0124   22286908.5274
     -2208.2944
 -10297947.27349  -8021926.83246  22388995.2154   22388991.4374
      1004.6944
 04  9 14 16 43 30.0040000  0  5G 1G11G23G25G20
  -2053930.16049  -1592326.05147  21813241.5274   21813238.6994
      -998.0114
   6757835.13748   5270633.06645  23255367.2384   23255364.1024
     -3007.9494
  -6554897.25848  -5100067.71544  23498153.1844   23498147.7344
      1216.9024
    806757.93849    637715.68047  22293238.2384   22293235.0194
     -2216.3254
 -10312937.62549  -8033607.62146  22386142.1134   22386138.6914
       999.3574
 04  9 14 16 43 45.0040000  0  5G 1G11G23G25G20
  -2038888.76249  -1580605.48047  21816103.6994   21816100.9574
     -1002.7604
   6803061.45748   5305874.33644  23263973.6134   23263970.0984
     -3015.0884
  -6573095.50048  -5114248.14544  23494690.4414   23494684.9024
      1213.2164
    840123.43849    663714.77346  22299587.1524   22299584.1484
     -2224.3674
 -10327847.35949  -8045225.59446  22383304.9414   22383301.4534
       993.9824
 04  9 14 16 44  0.0040000  0  5G 1G11G23G25G20
  -2023776.82049  -1568829.94146  21818979.6214   21818976.6604
     -1007.4634
   6848393.78548   5341198.21544  23272599.9574   23272596.6214
     -3022.1554
  -6591239.02048  -5128385.95344  23491237.5044   23491232.2344
      1209.5684
    873608.77749    689807.23847  22305959.3244   22305956.3914
     -2232.3564
 -10342676.94949  -8056781.11746  22380482.9804   22380479.4844
       988.6394
 04  9 14 16 44 15.0040000  0  5G 1G11G23G25G20
  -2008594.37149  -1556999.46147  21821868.9184   21821865.5704
     -1012.1634
   6893832.08248   5376604.66844  23281246.5194   23281243.1174
     -3029.2204
  -6609327.73448  -5142481.03944  23487795.4654   23487790.0824
      1205.9144
    907213.87549    715993.02747  22312354.5824   22312351.3554
     -2240.3404
 -10357425.96949  -8068273.85246  22377676.4184   22377672.6874
       983.2684
 04  9 14 16 44 30.0040000  0  5G 1G11G23G25G20
  -1993341.84049  -1545114.37947  21824770.9964   21824768.2154
     -1016.8354
   6939375.71548   5412093.20344  23289913.0514   23289910.2274
     -3036.2424
  -6627361.84448  -5156533.59044  23484363.6214   23484358.2034
      1202.2744
    940938.05549    742271.60947  22318771.6684   22318768.8984
     -2248.2794
 -10372094.57449  -8079703.93446  22374884.9264   22374881.0744
       977.9074
 04  9 14 16 44 45.0040000  0  5G 1G11G23G25G20
  -1978018.41049  -1533174.03947  21827687.2544   21827684.2854
     -1021.5624
   6985025.16848   5447664.19144  23298600.4024   23298596.8014
     -3043.2974
  -6645340.63749  -5170543.02744  23480942.6764   23480936.7504
      1198.5864
    974781.92649    768643.46147  22325212.1994   22325208.6444
     -2256.2584
 -10386681.60949  -8091070.45346  22372109.3244   22372105.5434
       972.4694
 04  9 14 16 45  0.0040000  0  5G 1G11G23G25G20
  -1962624.33249  -1521178.65647  21830616.4964   21830613.6954
     -1026.2724
   7030780.10548   5483317.38744  23307307.0904   23307303.7304
     -3050.3294
  -6663264.18048  -5184509.41844  23477531.6604   23477526.3524
      1194.9034
   1008745.17649    795108.32446  22331675.1294   22331671.9304
     -2264.2174
 -10401187.01649  -8102373.36746  22369349.2074   22369345.4144
       967.0274
 04  9 14 16 45 15.0040000  0  5G 1G11G23G25G20
  -1947161.43049  -1509129.64547  21833558.8874   21833556.1764
     -1030.8604
   7076638.46148   5519051.15244  23316034.1134   23316030.6134
     -3057.2244
  -6681134.21948  -5198434.11744  23474131.1374   23474125.9064
      1191.3364
   1042825.91049    821664.73846  22338160.4104   22338157.0594
     -2272.0494
 -10415612.27749  -8113613.82046  22366603.9264   22366600.3444
       961.6844
 04  9 14 16 45 30.0040000  0  5G 1G11G23G25G20
  -1931628.35949  -1497025.95747  21836514.8164   21836512.0084
     -1035.5384
   7122601.35948   5554866.39544  23324780.1994   23324776.5314
     -3064.1934
  -6698949.17648  -5212315.89844  23470740.9964   23470735.8324
      1187.6644
   1077025.26649    848313.58646  22344668.5824   22344665.2624
     -2279.9574
 -10429955.72349  -8124790.53546  22363874.3164   22363870.9024
       956.2304
 04  9 14 16 45 45.0040000  0  5G 1G11G23G25G20
  -1916024.98448  -1484867.48847  21839484.0274   21839481.0864
     -1040.2254
   7168668.67248   5590762.98044  23333546.3634   23333543.1724
     -3071.1544
  -6716708.92648  -5226154.65244  23467361.3484   23467356.2734
      1183.9834
   1111343.19149    875054.82846  22351198.9964   22351195.5824
     -2287.8624
 -10444216.92249  -8135903.15646  22361160.3874   22361156.9694
       950.7474
 04  9 14 16 46  0.0040000  0  5G 1G11G23G25G20
  -1900351.80549  -1472654.62547  21842466.6054   21842463.6684
     -1044.8794
   7214839.73448   5626740.42244  23342332.3794   23342329.0944
     -3078.0714
  -6734414.00848  -5239950.81244  23463992.4104   23463986.9534
      1180.3394
   1145779.03949    901887.94947  22357751.6294   22357748.3324
     -2295.7234
 -10458395.93048  -8146951.72746  22358462.4184   22358459.0124
       945.2674
 04  9 14 16 46 15.0050000  0  5G 1G11G23G25G20
  -1884609.46949  -1460387.86747  21845462.0954   21845459.5054
     -1049.4894
   7261115.70348   5662799.60544  23351138.3684   23351135.2164
     -3085.0654
  -6752066.98848  -5253706.37544  23460632.8924   23460627.5754
      1176.8654
   1180333.41449    928813.43446  22364327.0634   22364324.0634
     -2303.6254
 -10472495.14149  -8157938.12146  22355779.5404   22355775.9274
       939.9474
 04  9 14 16 46 30.0050000  0  5G 1G11G23G25G20
  -1868799.60249  -1448068.49247  21848470.6494   21848468.1694
     -1053.9914
   7307490.73848   5698935.98044  23359963.2044   23359959.9384
     -3091.6694
  -6769664.92248  -5267419.04344  23457284.1184   23457279.0134
      1173.1964
   1215002.18449    955828.05946  22370924.4784   22370921.4584
     -2311.2514
 -10486511.85949  -8168860.23446  22353112.2204   22353108.9504
       934.4484
 04  9 14 16 46 45.0050000  0  5G 1G11G23G25G20
  -1852921.04349  -1435695.59447  21851492.0634   21851489.3954
     -1058.5714
   7353967.68848   5735151.77744  23368807.8684   23368804.2284
     -3098.4634
  -6787208.66849  -5281089.48844  23453945.9464   23453940.3414
      1169.5834
   1249787.52049    982933.51246  22377543.7984   22377540.5714
     -2319.0224
 -10500446.54749  -8179718.43746  22350460.5244   22350456.9544
       928.9794
 04  9 14 16 47  0.0050000  0  5G 1G11G23G25G20
  -1836974.67249  -1423269.85247  21854526.8374   21854524.0914
     -1063.0914
   7400545.55148   5771446.20344  23377670.9234   23377668.0204
     -3105.1914
  -6804699.06649  -5294718.36344  23450617.9934   23450612.3334
      1166.0274
   1284688.38749   1010128.98446  22384185.4314   22384182.2634
     -2326.7244
 -10514299.77749  -8190513.16046  22347824.0794   22347820.4234
       923.5494
 04  9 14 16 47 15.0050000  0  5G 1G11G23G25G20
  -1820960.44549  -1410791.23847  21857574.3214   21857571.5874
     -1067.6154
   7447224.14548   5807819.12144  23386553.6494   23386550.4894
     -3111.9064
  -6822136.07449  -5308305.64145  23447299.2354   23447293.8844
      1162.4674
   1319704.61349   1037414.35546  22390848.6264   22390845.5284
     -2334.4154
 -10528071.16848  -8201244.10546  22345203.4854   22345200.1144
       918.0934
 04  9 14 16 47 30.0050000  0  5G 1G11G23G25G20
  -1804879.55149  -1398260.66847  21860634.4154   21860631.8214
     -1072.0604
   7494002.01648   5844269.38744  23395455.2904   23395452.3024
     -3118.5254
  -6839520.80149  -5321852.17245  23443991.5094   23443985.8684
      1158.9824
   1354834.85949   1064788.57446  22397533.8924   22397530.8764
     -2342.0164
 -10541761.65648  -8211912.01646  22342598.3844   22342594.5324
       912.6994
 04  9 14 16 47 45.0050000  0  5G 1G11G23G25G20
  -1788731.57848  -1385677.84047  21863707.1814   21863704.2164
     -1076.5324
   7540879.42247   5880797.22744  23404376.0404   23404372.6344
     -3125.1604
  -6856852.60548  -5335357.47345  23440693.3214   23440687.5284
      1155.4544
   1390079.46549   1092251.89546  22404240.5404   22404237.5324
     -2349.6404
 -10555370.32448  -8222516.17646  22340008.6814   22340005.2244
       907.2454
 04  9 14 16 48  0.0050000  0  5G 1G11G23G25G20
  -1772516.01648  -1373042.33247  21866792.6034   21866789.9234
     -1081.0374
   7587856.61348   5917402.81644  23413315.3844   23413312.2204
     -3131.8134
  -6874130.97348  -5348821.12145  23437404.9544   23437399.4074
      1151.8914
   1425438.66449   1119804.51646  22410969.2904   22410965.9704
     -2357.2804
 -10568896.42248  -8233055.98446  22337434.8844   22337431.2284
       901.7404
 04  9 14 16 48 15.0050000  0  5G 1G11G23G25G20
  -1756233.89848  -1360354.97347  21869891.3534   21869888.4624
     -1085.4744
   7634932.46548   5954085.28144  23422273.8134   23422270.2634
     -3138.3904
  -6891356.71549  -5362243.77344  23434127.2284   23434121.7514
      1148.3834
   1460911.51649   1147445.68846  22417719.3214   22417716.1574
     -2364.8574
 -10582340.61748  -8243531.97346  22334876.5634   22334872.7514
       896.2804
 04  9 14 16 48 30.0050000  0  5G 1G11G23G25G20
  -1739886.25849  -1347616.54747  21873002.0954   21872999.3334
     -1089.8434
   7682105.61348   5990843.57044  23431250.5564   23431247.3294
     -3144.8774
  -6908530.75449  -5375626.13344  23430859.1104   23430853.9384
      1144.9364
   1496496.66449   1175174.37546  22424490.8764   22424487.9074
     -2372.3434
 -10595703.67249  -8253944.74246  22332333.7904   22332330.0204
       890.8704
 04  9 14 16 48 45.0050000  0  5G 1G11G23G25G20
  -1723473.27749  -1334827.21147  21876125.5484   21876122.6734
     -1094.1994
   7729375.76247   6027677.44944  23440245.3534   23440242.1574
     -3151.3434
  -6925653.25849  -5388968.34044  23427600.8454   23427595.0564
      1141.5004
   1532193.82449   1202990.34846  22431283.9544   22431281.0204
     -2379.8114
 -10608985.41848  -8264294.15246  22329806.3064   22329802.6034
       885.4504
 04  9 14 16 49  0.0050000  0  5G 1G11G23G25G20
  -1706994.41049  -1321986.54347  21879261.2284   21879258.5014
     -1098.5914
   7776743.06348   6064587.01244  23449259.3294   23449256.1034
     -3157.8204
  -6942723.49649  -5402269.82045  23424352.3374   23424346.8844
      1138.0164
   1568003.34449   1230893.85946  22438098.5174   22438095.3104
     -2387.3014
 -10622185.01648  -8274579.55546  22327294.2124   22327290.9584
       879.9734
 04  9 14 16 49 15.0050000  0  5G 1G11G23G25G20
  -1690449.95749  -1309094.76247  21882409.6814   21882406.8104
     -1102.9644
   7824206.92648   6101571.83244  23458291.7674   23458288.1614
     -3164.2584
  -6959741.82049  -5415530.84045  23421114.3924   23421108.8374
      1134.5554
   1603924.87149   1258884.65246  22444934.1734   22444930.7164
     -2394.7684
 -10635302.43448  -8284800.91046  22324798.1964   22324794.6304
       874.4954
 04  9 14 16 49 30.0050000  0  5G 1G11G23G25G20
  -1673839.86349  -1296151.83247  21885570.1884   21885567.5014
     -1107.3404
   7871767.32048   6138631.86344  23467341.7984   23467338.5834
     -3170.6934
  -6976707.91849  -5428751.17645  23417885.3454   23417880.0014
      1131.0734
   1639958.33249   1286962.66446  22451790.8764   22451787.9154
     -2402.2314
 -10648337.21548  -8294957.88746  22322318.0094   22322314.4194
       868.9854
 04  9 14 16 49 45.0050000  0  5G 1G11G23G25G20
  -1657165.09848  -1283158.50847  21888743.5324   21888740.8334
     -1111.6514
   7919423.01648   6175766.16044  23476410.4544   23476407.0524
     -3177.0464
  -6993622.75049  -5441931.55945  23414666.6264   23414661.3954
      1127.6554
   1676102.63749   1315127.05546  22458668.7044   22458665.7784
     -2409.6204
 -10661290.05948  -8305051.00446  22319852.7744   22319849.3534
       863.5234
 04  9 14 16 50  0.0050000  0  5G 1G11G23G25G20
  -1640424.59049  -1270113.95347  21891928.9154   21891926.3374
     -1116.0344
   7967174.83248   6212975.35244  23485497.3764   23485494.0204
     -3183.4544
  -7010485.12549  -5455071.06645  23411457.8604   23411452.0674
      1124.1584
   1712358.56649   1343378.42246  22465568.1034   22465565.1884
     -2417.0624
 -10674159.51248  -8315079.15246  22317404.1264   22317400.2044
       857.9644
 04  9 14 16 50 15.0050000  0  5G 1G11G23G25G20
  -1623619.78549  -1257019.30547  21895126.8214   21895124.1854
     -1120.3204
   8015021.27048   6250258.28144  23494602.2354   23494599.2244
     -3189.7624
  -7027296.27749  -5468170.65645  23408258.8454   23408253.2554
      1120.7434
   1748724.55149   1371715.54746  22472488.5714   22472485.4584
     -2424.3994
 -10686946.71948  -8325043.21146  22314970.7904   22314966.9154
       852.4804
 04  9 14 16 50 30.0050000  0  5G 1G11G23G25G20
  -1606751.76649  -1243875.39547  21898336.4854   21898334.0364
     -1124.5354
   8062961.12948   6287614.00044  23503725.1034   23503721.8684
     -3195.9914
  -7044057.20348  -5481231.10945  23405069.2354   23405063.7904
      1117.3954
   1785199.47349   1400137.55946  22479429.2434   22479426.1614
     -2431.6614
 -10699652.49248  -8334943.81246  22312552.8454   22312549.1264
       847.0524
 04  9 14 16 50 45.0050000  0  5G 1G11G23G25G20
  -1589820.19549  -1230681.96547  21901558.5634   21901555.9664
     -1128.7714
   8110994.27348   6325042.39844  23512865.4384   23512862.0874
     -3202.2104
  -7060767.53949  -5494252.14545  23401889.5244   23401883.8494
      1114.0224
   1821783.53149   1428644.61746  22486391.1964   22486387.6574
     -2438.9374
 -10712276.03948  -8344780.33646  22310150.8294   22310147.1064
       841.5704
 04  9 14 16 51  0.0050000  0  5G 1G11G23G25G20
  -1572824.68448  -1217438.71147  21904792.6964   21904790.2864
     -1133.0344
   8159120.83248   6362543.60944  23522023.5564   23522020.4854
     -3208.4374
  -7077426.79349  -5507233.37545  23398718.9464   23398713.7594
      1110.6174
   1858476.90649   1457236.85246  22493373.8134   22493370.4504
     -2446.2254
 -10724816.65648  -8354552.24646  22307764.1964   22307760.5954
       836.0414
 04  9 14 16 51 15.0050000  0  5G 1G11G23G25G20
  -1555766.34449  -1204146.50047  21908039.0564   21908036.4464
     -1137.2234
   8207339.46548   6400116.55544  23531199.6424   23531196.1884
     -3214.5764
  -7094035.92249  -5520175.54344  23395558.5094   23395553.0444
      1107.2754
   1895278.33249   1485913.28146  22500376.8214   22500373.4744
     -2453.4284
 -10737275.23848  -8364260.22746  22305393.1344   22305390.0244
       830.5724
 04  9 14 16 51 30.0050000  0  5G 1G11G23G25G20
  -1538645.94549  -1190805.92647  21911296.6734   21911294.2744
     -1141.3604
   8255649.19148   6437760.48444  23540392.3604   23540388.8174
     -3220.6484
  -7110595.69148  -5533079.25045  23392407.6104   23392401.8564
      1103.9854
   1932186.88749   1514673.18846  22507400.0714   22507397.3994
     -2460.5704
 -10749652.21148  -8373904.61746  22303038.0564   22303034.6144
       825.1324
 04  9 14 16 51 45.0050000  0  5G 1G11G23G25G20
  -1521462.69548  -1177416.37947  21914566.8374   21914563.8764
     -1145.5504
   8304050.70748   6475475.94144  23549602.8454   23549599.5634
     -3226.7684
  -7127105.14549  -5545943.75445  23389265.6424   23389260.2314
      1100.6304
   1969203.23449   1543517.08646  22514444.2354   22514441.1034
     -2467.7574
 -10761946.48848  -8383484.57446  22300698.6034   22300695.2474
       819.6184
 04  9 14 16 52  0.0050000  0  5G 1G11G23G25G20
  -1504217.09849  -1163978.25847  21917848.4854   21917845.6304
     -1149.7074
   8352543.14548   6513262.23844  23558830.8684   23558827.1854
     -3232.8294
  -7143564.55549  -5558769.26245  23386133.7354   23386127.8844
      1097.2944
   2006326.58249   1572444.36746  22521508.7674   22521505.5564
     -2474.8904
 -10774158.17248  -8393000.16846  22298374.9544   22298371.1654
       814.1124
 04  9 14 16 52 15.0050000  0  5G 1G11G23G25G20
  -1486908.47749  -1150491.02047  21921142.2904   21921139.3994
     -1153.9084
   8401126.94548   6551119.73444  23568075.3454   23568072.3644
     -3238.9204
  -7159973.18748  -5571555.20745  23383011.1964   23383005.5244
      1093.9094
   2043557.63749   1601455.57446  22528593.5174   22528590.1224
     -2482.0704
 -10786286.16048  -8402450.55546  22296066.9234   22296063.5524
       808.5334
 04  9 14 16 52 30.0050000  0  6G 1G11G16G23G25G20
  -1469537.18748  -1136954.95746  21924447.9074   21924445.2744
     -1158.0864
   8449801.49248   6589047.93444  23577338.2824   23577334.7984
     -3244.9704
    -87269.99257    -60597.78952  25526285.0174   25526283.2704

  -7176331.41848  -5584301.87145  23379898.1734   23379892.3564
      1090.5494
   2080895.85549   1630550.28546  22535698.6344   22535695.6184
     -2489.2154
 -10798330.64148  -8411835.85946  22293775.0014   22293771.3294
       802.9654
 04  9 14 16 52 45.0050000  0  6G 1G11G16G23G25G20
  -1452102.61348  -1123369.57447  21927765.5174   21927762.8374
     -1162.3054
   8498567.28948   6627047.24244  23586618.2204   23586615.1424
     -3251.0534
   -116969.44147    -83740.17642  25520633.5324   25520631.6964
      1979.9634
  -7192638.43748  -5597008.63744  23376795.1344   23376789.5674
      1087.1354
   2118341.87549   1659728.99646  22542824.1574   22542821.3724
     -2496.4014
 -10810290.50048  -8421155.22746  22291499.0794   22291495.3804
       797.3244
 04  9 14 16 53  0.0050000  0  6G 1G11G16G23G25G20
  -1434607.39849  -1109736.93747  21931094.6494   21931091.9504
     -1166.3484
   8547421.62148   6665115.53544  23595915.0564   23595911.5834
     -3256.9554
   -146649.66046   -106867.56642  25514984.8994   25514984.0134
      1978.6814
  -7208896.77049  -5609677.45745  23373700.8534   23373695.6964
      1083.8894
   2155892.60949   1688989.30546  22549970.2434   22549966.8174
     -2503.3824
 -10822168.16048  -8430410.54746  22289238.9314   22289235.2044
       791.8444
 04  9 14 16 53 15.0050000  0  6G 1G11G16G23G25G20
  -1417052.77349  -1096058.01247  21934435.2284   21934432.4074
     -1170.3084
   8596362.71148   6703251.43444  23605227.9854   23605224.6454
     -3262.7394
   -176311.41846   -129980.60242  25509340.8064   25509339.4624
      1977.4514
  -7225107.62549  -5622309.28945  23370616.3374   23370610.7314
      1080.7244
   2193546.62949   1718330.09446  22557135.3684   22557132.0874
     -2510.2684
 -10833964.53149  -8439602.52346  22286994.3134   22286990.6454
       786.4254
 04  9 14 16 53 30.0050000  0  6G 1G11G16G23G25G20
  -1399436.42249  -1082330.98447  21937787.8134   21937784.9624
     -1174.4234
   8645392.73448   6741456.63744  23614558.4704   23614554.8764
     -3268.6684
   -205951.83646   -153077.00842  25503699.9384   25503698.0794
      1976.0284
  -7241268.56649  -5634902.21945  23367540.9154   23367535.6344
      1077.3964
   2231306.16049   1747753.10247  22564320.6104   22564317.6814
     -2517.3024
 -10845677.02049  -8448729.13746  22284765.4234   22284761.5674
       780.8334
 04  9 14 16 53 45.0050000  0  6G 1G11G16G23G25G20
  -1381758.85949  -1068556.26647  21941151.5714   21941148.8884
     -1178.5044
   8694510.87948   6779730.50444  23623904.8534   23623901.7044
     -3274.5434
   -235570.98046   -176156.79742  25498063.1424   25498061.8254
      1974.6104
  -7257379.96549  -5647456.54745  23364475.1424   23364470.0134
      1074.0934
   2269170.65249   1777257.89146  22571525.9464   22571522.8604
     -2524.2994
 -10857305.82048  -8457790.53146  22282552.6494   22282548.6454
       775.2534
 04  9 14 16 54  0.0050000  0  6G 1G11G16G23G25G20
  -1364018.05548  -1054732.26647  21944527.3134   21944524.4974
     -1182.7204
   8743719.05948   6818074.52344  23633268.5794   23633265.5914
     -3280.5454
   -265166.49646   -199218.22742  25492432.4464   25492429.9664
      1973.0344
  -7273439.69949  -5659970.62544  23361419.0174   23361413.6344
      1070.6494
   2307141.91849   1806845.88346  22578751.8214   22578748.7824
     -2531.4184
 -10868848.59448  -8466784.90646  22280355.9854   22280351.7904
       769.5184
 04  9 14 16 54 15.0050000  0  6G 1G11G16G23G25G20
  -1346216.82449  -1040861.17246  21947914.6814   21947912.0714
     -1186.7494
   8793014.13748   6856486.25844  23642649.3454   23642646.1454
     -3286.3394
   -294740.54746   -222262.88342  25486804.4314   25486802.8374
      1971.6034
  -7289450.47349  -5672446.54345  23358372.5714   23358366.5484
      1067.3854
   2345217.01649   1836514.78146  22585996.9934   22585994.1344
     -2538.3404
 -10880307.62948  -8475714.02346  22278175.2124   22278171.7944
       763.9364
 04  9 14 16 54 30.0050000  0  6G 1G11G16G23G25G20
  -1328353.27349  -1026941.52747  21951314.3374   21951311.5244
     -1190.9034
   8842397.77348   6894966.99644  23652046.6814   23652043.3764
     -3292.2424
   -324290.79747   -245289.03942  25481181.0794   25481179.3214
      1970.0174
  -7305410.37149  -5684882.81645  23355334.9384   23355329.8564
      1063.9934
   2383397.62149   1866265.90246  22593263.0014   22593259.8024
     -2545.3744
 -10891680.87148  -8484576.28146  22276011.0634   22276007.2514
       758.2164
 04  9 14 16 54 45.0050000  0  6G 1G11G16G23G25G20
  -1310427.59049  -1012973.46547  21954725.1814   21954722.6654
     -1195.0464
   8891869.52048   6933516.38744  23661461.0564   23661457.8844
     -3298.1164
   -353817.04747   -268296.47742  25475562.2124   25475561.0174
      1968.4174
  -7321319.42649  -5697279.47745  23352307.6104   23352302.3644
      1060.6044
   2421683.37949   1896098.94946  22600548.3214   22600545.5094
     -2552.3844
 -10902968.07448  -8493371.50846  22273862.9234   22273859.6694
       752.4804
 04  9 14 16 55  0.0050000  0  6G 1G11G16G23G25G20
  -1292441.48849   -998958.31647  21958148.0634   21958145.4074
     -1199.0734
   8941427.53148   6972133.00844  23670891.6264   23670888.3214
     -3303.8674
   -383320.54346   -291286.18042  25469947.7984   25469946.6304
      1966.9004
  -7337179.22749  -5709637.75045  23349289.5014   23349284.4074
      1057.3204
   2460072.42249   1926012.48846  22607853.7354   22607850.5794
     -2559.2704
 -10914170.67248  -8502100.80546  22271731.4384   22271727.7864
       746.8404
 04  9 14 16 55 15.0050000  0  6G 1G11G16G23G25G20
  -1274395.81649   -984896.76247  21961581.7904   21961579.2744
     -1203.0454
   8991070.89548   7010816.13344  23680338.4074   23680335.0794
     -3309.5584
   -412801.70747   -314258.48842  25464337.6884   25464336.1814
      1965.4114
  -7352990.53149  -5721958.23045  23346281.0714   23346275.6774
      1054.0874
   2498563.74649   1956005.71546  22615178.1814   22615175.2594
     -2566.0884
 -10925289.19149  -8510764.58646  22269615.4704   22269612.0994
       741.2354
 04  9 14 16 55 30.0050000  0  6G 1G11G16G23G25G20
  -1256289.47749   -970787.92247  21965027.2984   21965024.6344
     -1207.0894
   9040800.10548   7049566.16444  23689801.3924   23689798.4664
     -3315.2814
   -442258.90246   -337212.09842  25458732.2984   25458730.9194
      1963.8134
  -7368752.09449  -5734239.95745  23343281.4074   23343276.1494
      1050.7714
   2537158.38749   1986079.46546  22622522.6344   22622519.5404
     -2572.9764
 -10936322.18448  -8519361.71546  22267516.0564   22267512.2474
       735.5334
 04  9 14 16 55 45.0050000  0  6G 1G11G16G23G25G20
  -1238121.37149   -956630.96147  21968484.7824   21968482.0324
     -1211.2074
   9090616.07048   7088383.77744  23699280.9464   23699278.0754
     -3321.0644
   -471690.58246   -360145.84042  25453131.1184   25453129.7084
      1962.1124
  -7384462.65648  -5746481.94945  23340292.1184   23340286.7594
      1047.3714
   2575857.30149   2016234.45746  22629886.8924   22629883.5994
     -2579.9284
 -10947268.27049  -8527891.13346  22265433.0174   22265429.5634
       729.7394
 04  9 14 16 56  0.0050000  0  6G 1G11G16G23G25G20
  -1219893.13349   -942427.13347  21971953.3214   21971951.0134
     -1215.2164
   9140516.99648   7127267.60244  23708777.2674   23708773.9354
     -3326.7284
   -501097.95347   -383060.62942  25447535.6104   25447532.9584
      1960.4914
  -7400123.96149  -5758685.55545  23337311.7744   23337306.4314
      1044.0874
   2614658.53549   2046469.18446  22637270.2354   22637267.1304
     -2586.7494
 -10958128.72748  -8536353.82446  22263366.3994   22263362.7824
       724.0304
 04  9 14 16 56 15.0050000  0  6G 1G11G16G23G25G20
  -1201603.97349   -928175.84047  21975433.8374   21975431.3024
     -1219.2774
   9190503.44948   7166218.07044  23718289.2904   23718286.7084
     -3332.4304
   -530479.72747   -405955.48442  25441944.9464   25441942.2394
      1958.7854
  -7415735.04749  -5770850.01245  23334341.0014   23334335.8254
      1040.7394
   2653562.78549   2076784.17246  22644673.5874   22644670.2704
     -2593.6174
 -10968902.44148  -8544748.92646  22261316.1814   22261312.4314
       718.2484
 04  9 14 16 56 30.0050000  0  6G 1G11G16G23G25G20
  -1183254.54749   -913877.58247  21978925.3684   21978923.3174
     -1223.2954
   9240574.58248   7205234.51244  23727817.3994   23727814.3334
     -3338.0764
   -559836.03947   -428830.51242  25436358.3844   25436356.1964
      1957.0884
  -7431296.40649  -5782975.74245  23331379.8214   23331374.3254
      1037.4244
   2692569.07049   2107178.67246  22652096.3684   22652092.9464
     -2600.4194
 -10979589.79348  -8553076.73046  22259282.5404   22259278.8604
       712.4904
 04  9 14 16 56 45.0050000  0  6G 1G11G16G23G25G20
  -1164844.79349   -899532.31647  21982429.0324   21982426.1184
     -1227.3174
   9290730.00448   7244316.64844  23737361.7744   23737358.6814
     -3343.6954
   -589166.37947   -451685.30942  25430777.3604   25430774.8454
      1955.3564
  -7446807.85249  -5795062.57445  23328427.8604   23328422.4744
      1034.0964
   2731677.47749   2137652.74646  22659538.1494   22659535.4314
     -2607.2274
 -10990190.37949  -8561336.92246  22257265.3064   22257261.6854
       706.7064
 04  9 14 16 57  0.0050000  0  6G 1G11G16G23G25G20
  -1146374.16449   -885139.62547  21985943.7824   21985941.0174
     -1231.3754
   9340970.23848   7283464.86344  23746922.3764   23746919.0204
     -3349.3494
   -618469.78547   -474519.12142  25425200.6574   25425198.1304
      1953.5604
  -7462268.89849  -5807110.13345  23325486.0564   23325480.5994
      1030.7364
   2770888.44949   2168206.75046  22666999.7124   22666996.8684
     -2614.0654
 -11000703.35549  -8569528.85246  22255264.6734   22255260.9274
       700.8654
 04  9 14 16 57 15.0050000  0  6G 1G11G16G23G25G20
  -1127844.31649   -870700.78547  21989469.5564   21989466.8764
     -1235.3234
   9391293.32448   7322677.64544  23756498.3924   23756495.2394
     -3354.8724
   -647747.49247   -497332.87942  25419629.0874   25419627.3024
      1951.8474
  -7477680.91849  -5819119.49245  23322553.0404   23322547.3724
      1027.4684
   2810200.08249   2198839.17646  22674480.4234   22674477.6534
     -2620.7764
 -11011130.08649  -8577653.57446  22253280.6734   22253277.1264
       695.1154
 04  9 14 16 57 30.0050000  0  6G 1G11G16G23G25G20
  -1109254.29349   -856215.05947  21993007.4624   21993004.4934
     -1239.3354
   9441699.97748   7361955.53944  23766090.5564   23766087.6454
     -3360.4434
   -676997.98447   -520125.43742  25414063.0324   25414061.0754
      1950.0334
  -7493042.89849  -5831089.85245  23319630.0564   23319624.2044
      1024.1324
   2849613.07849   2229550.59446  22681980.8534   22681977.7554
     -2627.5334
 -11021469.06649  -8585709.91846  22251313.2284   22251309.5364
       689.2654
 04  9 14 16 57 45.0050000  0  6G 1G11G16G23G25G20
  -1090604.17649   -841682.50046  21996556.3374   21996553.7354
     -1243.3414
   9492189.81648   7401298.25844  23775698.3454   23775695.4154
     -3365.9894
   -706220.87147   -542896.48042  25408501.8994   25408500.0604
      1948.1924
  -7508354.88749  -5843021.25845  23316716.1264   23316710.8644
      1020.7994
   2889127.35949   2260340.93046  22689499.9704   22689496.4194
     -2634.2854
 -11031720.19149  -8593697.80946  22249362.5484   22249358.6064
       683.4084
 04  9 14 16 58  0.0050000  0  6G 1G11G16G23G25G20
  -1071894.57449   -827103.59447  22000116.6884   22000114.0524
     -1247.3074
   9542762.03548   7440705.16044  23785321.9074   23785319.0524
     -3371.4814
   -735416.30147   -565646.13342  25402946.3214   25402944.5834
      1946.3624
  -7523617.27049  -5854914.02045  23313811.8214   23313806.1854
      1017.4924
   2928742.03549   2291209.50446  22697038.7354   22697035.2904
     -2640.9784
 -11041883.70749  -8601617.42646  22247428.3294   22247424.8454
       677.5684
 04  9 14 16 58 15.0050000  0  6G 1G11G16G23G25G20
  -1053124.82849   -812477.81246  22003688.3454   22003685.5244
     -1251.3164
   9593417.03148   7480176.57044  23794961.2434   23794957.9744
     -3377.0004
   -764583.18447   -588373.52342  25397395.9854   25397394.0404
      1944.4594
  -7538829.34048  -5866767.56645  23310917.1574   23310911.5834
      1014.1384
   2968457.69549   2322156.77046  22704596.2044   22704592.7634
     -2647.7114
 -11051958.60949  -8609468.00046  22245511.0094   22245507.3134
       671.6604
 04  9 14 16 58 30.0050000  0  6G 1G11G16G23G25G20
  -1034294.89149   -797805.13746  22007271.7514   22007268.8334
     -1255.3294
   9644154.57848   7519712.30544  23804616.2434   23804613.2784
     -3382.5034
   -793720.99247   -611078.27742  25391851.3374   25391848.8024
      1942.5214
  -7553990.98049  -5878581.82845  23308031.7984   23308026.1814
      1010.7764
   3008274.04749   2353182.48446  22712172.8294   22712169.6734
     -2654.4234
 -11061944.71949  -8617249.37946  22243610.5484   22243607.3064
       665.7414
 04  9 14 16 58 45.0050000  0  6G 1G11G16G23G25G20
  -1015406.06249   -783086.57446  22010866.2514   22010863.2314
     -1259.2554
   9694973.14148   7559311.16844  23814286.8134   23814283.5364
     -3387.9044
   -822830.58247   -633761.05142  25386311.6964   25386309.6184
      1940.6394
  -7569103.45749  -5890357.77045  23305155.9464   23305150.3994
      1007.4984
   3048189.55949   2384285.48046  22719768.6034   22719765.4194
     -2661.0344
 -11071842.91049  -8624962.25046  22241727.3604   22241723.8174
       659.8794
 04  9 14 16 59  0.0050000  0  6G 1G11G16G23G25G20
   -996458.22349   -768322.02346  22014471.7744   22014468.7634
     -1263.1894
   9745872.59848   7598973.06644  23823972.7434   23823969.4664
     -3393.2974
   -851911.48847   -656421.45742  25380777.8534   25380775.2514
      1938.7274
  -7584166.41849  -5902095.13345  23302289.5014   23302284.4234
      1004.1974
   3088204.39849   2415465.87146  22727383.5564   22727380.1774
     -2667.6564
 -11081652.78949  -8632606.30946  22239860.5634   22239856.8954
       653.9924
 04  9 14 16 59 15.0050000  0  6G 1G11G16G23G25G20
   -977449.40249   -753509.96146  22018088.9464   22018086.0204
     -1267.2554
   9796854.63348   7638699.30144  23833674.0324   23833671.2314
     -3398.8024
   -880961.12147   -679057.49642  25375249.7984   25375248.1694
      1936.6424
  -7599177.82848  -5913792.32845  23299433.0634   23299427.5054
      1000.7614
   3128320.35249   2446725.04746  22735016.9384   22735013.9854
     -2674.3974
 -11091371.93049  -8640179.66046  22238011.0014   22238007.0634
       647.9434
 04  9 14 16 59 30.0050000  0  6G 1G11G16G23G25G20
   -958381.82849   -738652.10946  22021717.3684   22021714.6654
     -1271.1724
   9847916.80548   7678487.98444  23843391.2434   23843387.9784
     -3404.1454
   -909981.36347   -701670.65242  25369727.3844   25369725.2984
      1934.6834
  -7614139.96949  -5925451.12545  23296585.8134   23296580.2744
       997.4764
   3168534.96949   2478061.10546  22742669.5874   22742666.2004
     -2680.9744
 -11101002.27749  -8647683.83246  22236178.4464   22236175.1034
       642.0234
 04  9 14 16 59 45.0050000  0  6G 1G11G16G23G25G20
   -939255.21149   -723748.25846  22025357.1424   22025354.0484
     -1275.1084
   9899059.14848   7718339.14844  23853122.7824   23853120.1104
     -3409.4904
   -938971.43447   -724260.26642  25364210.6654   25364208.7824
      1932.6714
  -7629052.32849  -5937071.13345  23293748.2354   23293742.9894
       994.1574
   3208848.39849   2509474.16046  22750341.0634   22750337.6854
     -2687.5624
 -11110543.25849  -8655118.35946  22234362.7204   22234358.9504
       636.0654
 04  9 14 17  0  0.0050000  0  6G 1G11G16G23G25G20
   -920070.16449   -708798.87546  22029007.9314   22029005.0204
     -1279.0034
   9950280.75848   7758252.05944  23862869.9854   23862867.2284
     -3414.7744
   -967931.46147   -746826.49242  25358699.5324   25358697.6574
      1930.6684
  -7643915.39548  -5948652.73445  23290919.6734   23290914.2514
       990.8714
   3249259.75049   2540963.51646  22758030.8994   22758027.6384
     -2694.0904
 -11119995.25049  -8662483.55146  22232564.3764   22232560.5634
       630.1334
